<?xml version="1.0" encoding="UTF-8" standalone="no" ?>
<gpx xmlns="http://www.topografix.com/GPX/1/1" xmlns:xsi="http://www.w3.org/2001/XMLSchema-instance" xsi:schemaLocation="http://www.topografix.com/GPX/1/1 http://www.topografix.com/GPX/1/1/gpx.xsd" version="1.1" creator="VisuGPX - https://www.visugpx.com">
  <metadata>
    <name>avec Dr Alain P</name>
    <desc><![CDATA[manque un bout au départ et des coupures d\\\'enregistrement sous les 5 km/h]]></desc>
  </metadata>
  <trk>
    <name><![CDATA[Port-sur-Saône Cyclisme]]></name>
    <trkseg>
      <trkpt lat="47.6962" lon="6.04683">
        <ele>238</ele>
        <time>2015-09-10T11:45:41.000Z</time>
      </trkpt>
      <trkpt lat="47.69621" lon="6.04686">
        <ele>238</ele>
        <time>2015-09-10T11:45:42.000Z</time>
      </trkpt>
      <trkpt lat="47.69629" lon="6.04708">
        <ele>238</ele>
        <time>2015-09-10T11:45:50.000Z</time>
      </trkpt>
      <trkpt lat="47.69634" lon="6.04727">
        <ele>238</ele>
        <time>2015-09-10T11:45:57.000Z</time>
      </trkpt>
      <trkpt lat="47.69634" lon="6.04729">
        <ele>238</ele>
        <time>2015-09-10T11:45:58.000Z</time>
      </trkpt>
      <trkpt lat="47.69642" lon="6.04767">
        <ele>239</ele>
        <time>2015-09-10T11:46:14.000Z</time>
      </trkpt>
      <trkpt lat="47.69642" lon="6.04768">
        <ele>239</ele>
        <time>2015-09-10T11:46:15.000Z</time>
      </trkpt>
      <trkpt lat="47.69764" lon="6.04949">
        <ele>251</ele>
        <time>2015-09-10T11:48:32.000Z</time>
      </trkpt>
      <trkpt lat="47.69766" lon="6.04952">
        <ele>251</ele>
        <time>2015-09-10T11:48:34.000Z</time>
      </trkpt>
      <trkpt lat="47.69768" lon="6.04953">
        <ele>251</ele>
        <time>2015-09-10T11:48:35.000Z</time>
      </trkpt>
      <trkpt lat="47.69769" lon="6.04955">
        <ele>251</ele>
        <time>2015-09-10T11:48:36.000Z</time>
      </trkpt>
      <trkpt lat="47.6977" lon="6.04957">
        <ele>251</ele>
        <time>2015-09-10T11:48:37.000Z</time>
      </trkpt>
      <trkpt lat="47.6977" lon="6.04959">
        <ele>251</ele>
        <time>2015-09-10T11:48:38.000Z</time>
      </trkpt>
      <trkpt lat="47.69771" lon="6.04961">
        <ele>251</ele>
        <time>2015-09-10T11:48:39.000Z</time>
      </trkpt>
      <trkpt lat="47.69774" lon="6.04969">
        <ele>251</ele>
        <time>2015-09-10T11:48:43.000Z</time>
      </trkpt>
      <trkpt lat="47.69778" lon="6.04985">
        <ele>251</ele>
        <time>2015-09-10T11:48:50.000Z</time>
      </trkpt>
      <trkpt lat="47.69779" lon="6.04988">
        <ele>251</ele>
        <time>2015-09-10T11:48:51.000Z</time>
      </trkpt>
      <trkpt lat="47.6978" lon="6.0499">
        <ele>251</ele>
        <time>2015-09-10T11:48:52.000Z</time>
      </trkpt>
      <trkpt lat="47.6978" lon="6.04992">
        <ele>251</ele>
        <time>2015-09-10T11:48:53.000Z</time>
      </trkpt>
      <trkpt lat="47.69781" lon="6.04993">
        <ele>251</ele>
        <time>2015-09-10T11:48:54.000Z</time>
      </trkpt>
      <trkpt lat="47.69781" lon="6.04995">
        <ele>251</ele>
        <time>2015-09-10T11:48:55.000Z</time>
      </trkpt>
      <trkpt lat="47.69783" lon="6.04999">
        <ele>251</ele>
        <time>2015-09-10T11:48:57.000Z</time>
      </trkpt>
      <trkpt lat="47.69785" lon="6.05007">
        <ele>251</ele>
        <time>2015-09-10T11:49:00.000Z</time>
      </trkpt>
      <trkpt lat="47.69786" lon="6.05009">
        <ele>251</ele>
        <time>2015-09-10T11:49:01.000Z</time>
      </trkpt>
      <trkpt lat="47.69787" lon="6.05013">
        <ele>251</ele>
        <time>2015-09-10T11:49:03.000Z</time>
      </trkpt>
      <trkpt lat="47.69793" lon="6.05026">
        <ele>251</ele>
        <time>2015-09-10T11:49:10.000Z</time>
      </trkpt>
      <trkpt lat="47.69794" lon="6.05028">
        <ele>251</ele>
        <time>2015-09-10T11:49:11.000Z</time>
      </trkpt>
      <trkpt lat="47.69796" lon="6.05031">
        <ele>252</ele>
        <time>2015-09-10T11:49:12.000Z</time>
      </trkpt>
      <trkpt lat="47.69798" lon="6.05034">
        <ele>252</ele>
        <time>2015-09-10T11:49:13.000Z</time>
      </trkpt>
      <trkpt lat="47.698" lon="6.05036">
        <ele>252</ele>
        <time>2015-09-10T11:49:14.000Z</time>
      </trkpt>
      <trkpt lat="47.69801" lon="6.05038">
        <ele>252</ele>
        <time>2015-09-10T11:49:15.000Z</time>
      </trkpt>
      <trkpt lat="47.69803" lon="6.0504">
        <ele>252</ele>
        <time>2015-09-10T11:49:16.000Z</time>
      </trkpt>
      <trkpt lat="47.69816" lon="6.05058">
        <ele>252</ele>
        <time>2015-09-10T11:49:23.000Z</time>
      </trkpt>
      <trkpt lat="47.69829" lon="6.05077">
        <ele>253</ele>
        <time>2015-09-10T11:49:31.000Z</time>
      </trkpt>
      <trkpt lat="47.69844" lon="6.05093">
        <ele>253</ele>
        <time>2015-09-10T11:49:37.000Z</time>
      </trkpt>
      <trkpt lat="47.69859" lon="6.05109">
        <ele>252</ele>
        <time>2015-09-10T11:49:43.000Z</time>
      </trkpt>
      <trkpt lat="47.6988" lon="6.05127">
        <ele>252</ele>
        <time>2015-09-10T11:49:49.000Z</time>
      </trkpt>
      <trkpt lat="47.69902" lon="6.05148">
        <ele>251</ele>
        <time>2015-09-10T11:49:56.000Z</time>
      </trkpt>
      <trkpt lat="47.69918" lon="6.05161">
        <ele>250</ele>
        <time>2015-09-10T11:50:01.000Z</time>
      </trkpt>
      <trkpt lat="47.69925" lon="6.0517">
        <ele>249</ele>
        <time>2015-09-10T11:50:04.000Z</time>
      </trkpt>
      <trkpt lat="47.69925" lon="6.05177">
        <ele>249</ele>
        <time>2015-09-10T11:50:06.000Z</time>
      </trkpt>
      <trkpt lat="47.69917" lon="6.05188">
        <ele>249</ele>
        <time>2015-09-10T11:50:10.000Z</time>
      </trkpt>
      <trkpt lat="47.69914" lon="6.0519">
        <ele>250</ele>
        <time>2015-09-10T11:50:11.000Z</time>
      </trkpt>
      <trkpt lat="47.69895" lon="6.05203">
        <ele>250</ele>
        <time>2015-09-10T11:50:17.000Z</time>
      </trkpt>
      <trkpt lat="47.69874" lon="6.05227">
        <ele>250</ele>
        <time>2015-09-10T11:50:24.000Z</time>
      </trkpt>
      <trkpt lat="47.69858" lon="6.0526">
        <ele>250</ele>
        <time>2015-09-10T11:50:32.000Z</time>
      </trkpt>
      <trkpt lat="47.69853" lon="6.05271">
        <ele>250</ele>
        <time>2015-09-10T11:50:35.000Z</time>
      </trkpt>
      <trkpt lat="47.69851" lon="6.05274">
        <ele>250</ele>
        <time>2015-09-10T11:50:36.000Z</time>
      </trkpt>
      <trkpt lat="47.69849" lon="6.05278">
        <ele>250</ele>
        <time>2015-09-10T11:50:37.000Z</time>
      </trkpt>
      <trkpt lat="47.69846" lon="6.05282">
        <ele>250</ele>
        <time>2015-09-10T11:50:38.000Z</time>
      </trkpt>
      <trkpt lat="47.69844" lon="6.05286">
        <ele>250</ele>
        <time>2015-09-10T11:50:39.000Z</time>
      </trkpt>
      <trkpt lat="47.69824" lon="6.05319">
        <ele>251</ele>
        <time>2015-09-10T11:50:46.000Z</time>
      </trkpt>
      <trkpt lat="47.69816" lon="6.05337">
        <ele>249</ele>
        <time>2015-09-10T11:50:49.000Z</time>
      </trkpt>
      <trkpt lat="47.69811" lon="6.05352">
        <ele>249</ele>
        <time>2015-09-10T11:50:51.000Z</time>
      </trkpt>
      <trkpt lat="47.69808" lon="6.05361">
        <ele>248</ele>
        <time>2015-09-10T11:50:52.000Z</time>
      </trkpt>
      <trkpt lat="47.69806" lon="6.0537">
        <ele>248</ele>
        <time>2015-09-10T11:50:53.000Z</time>
      </trkpt>
      <trkpt lat="47.69803" lon="6.05379">
        <ele>247</ele>
        <time>2015-09-10T11:50:54.000Z</time>
      </trkpt>
      <trkpt lat="47.698" lon="6.05388">
        <ele>247</ele>
        <time>2015-09-10T11:50:55.000Z</time>
      </trkpt>
      <trkpt lat="47.69797" lon="6.05398">
        <ele>247</ele>
        <time>2015-09-10T11:50:56.000Z</time>
      </trkpt>
      <trkpt lat="47.69794" lon="6.05408">
        <ele>246</ele>
        <time>2015-09-10T11:50:57.000Z</time>
      </trkpt>
      <trkpt lat="47.69791" lon="6.05418">
        <ele>243</ele>
        <time>2015-09-10T11:50:58.000Z</time>
      </trkpt>
      <trkpt lat="47.6979" lon="6.05426">
        <ele>243</ele>
        <time>2015-09-10T11:50:59.000Z</time>
      </trkpt>
      <trkpt lat="47.69789" lon="6.05433">
        <ele>243</ele>
        <time>2015-09-10T11:51:00.000Z</time>
      </trkpt>
      <trkpt lat="47.6979" lon="6.05439">
        <ele>243</ele>
        <time>2015-09-10T11:51:01.000Z</time>
      </trkpt>
      <trkpt lat="47.69792" lon="6.05444">
        <ele>243</ele>
        <time>2015-09-10T11:51:02.000Z</time>
      </trkpt>
      <trkpt lat="47.69796" lon="6.05447">
        <ele>243</ele>
        <time>2015-09-10T11:51:03.000Z</time>
      </trkpt>
      <trkpt lat="47.698" lon="6.05448">
        <ele>243</ele>
        <time>2015-09-10T11:51:04.000Z</time>
      </trkpt>
      <trkpt lat="47.69803" lon="6.05449">
        <ele>243</ele>
        <time>2015-09-10T11:51:05.000Z</time>
      </trkpt>
      <trkpt lat="47.69807" lon="6.05449">
        <ele>243</ele>
        <time>2015-09-10T11:51:06.000Z</time>
      </trkpt>
      <trkpt lat="47.69811" lon="6.05449">
        <ele>243</ele>
        <time>2015-09-10T11:51:07.000Z</time>
      </trkpt>
      <trkpt lat="47.69821" lon="6.05449">
        <ele>244</ele>
        <time>2015-09-10T11:51:10.000Z</time>
      </trkpt>
      <trkpt lat="47.69826" lon="6.05448">
        <ele>244</ele>
        <time>2015-09-10T11:51:12.000Z</time>
      </trkpt>
      <trkpt lat="47.69839" lon="6.05444">
        <ele>246</ele>
        <time>2015-09-10T11:51:18.000Z</time>
      </trkpt>
      <trkpt lat="47.69842" lon="6.05443">
        <ele>246</ele>
        <time>2015-09-10T11:51:19.000Z</time>
      </trkpt>
      <trkpt lat="47.69845" lon="6.05442">
        <ele>246</ele>
        <time>2015-09-10T11:51:20.000Z</time>
      </trkpt>
      <trkpt lat="47.69848" lon="6.0544">
        <ele>246</ele>
        <time>2015-09-10T11:51:21.000Z</time>
      </trkpt>
      <trkpt lat="47.6985" lon="6.05439">
        <ele>246</ele>
        <time>2015-09-10T11:51:22.000Z</time>
      </trkpt>
      <trkpt lat="47.69856" lon="6.05436">
        <ele>246</ele>
        <time>2015-09-10T11:51:24.000Z</time>
      </trkpt>
      <trkpt lat="47.69858" lon="6.05434">
        <ele>246</ele>
        <time>2015-09-10T11:51:25.000Z</time>
      </trkpt>
      <trkpt lat="47.69861" lon="6.05432">
        <ele>246</ele>
        <time>2015-09-10T11:51:26.000Z</time>
      </trkpt>
      <trkpt lat="47.69863" lon="6.05431">
        <ele>246</ele>
        <time>2015-09-10T11:51:27.000Z</time>
      </trkpt>
      <trkpt lat="47.69866" lon="6.0543">
        <ele>246</ele>
        <time>2015-09-10T11:51:28.000Z</time>
      </trkpt>
      <trkpt lat="47.69871" lon="6.05426">
        <ele>246</ele>
        <time>2015-09-10T11:51:30.000Z</time>
      </trkpt>
      <trkpt lat="47.69874" lon="6.05425">
        <ele>246</ele>
        <time>2015-09-10T11:51:31.000Z</time>
      </trkpt>
      <trkpt lat="47.69877" lon="6.05424">
        <ele>246</ele>
        <time>2015-09-10T11:51:32.000Z</time>
      </trkpt>
      <trkpt lat="47.69879" lon="6.05422">
        <ele>246</ele>
        <time>2015-09-10T11:51:33.000Z</time>
      </trkpt>
      <trkpt lat="47.6989" lon="6.05417">
        <ele>247</ele>
        <time>2015-09-10T11:51:37.000Z</time>
      </trkpt>
      <trkpt lat="47.69893" lon="6.05416">
        <ele>249</ele>
        <time>2015-09-10T11:51:38.000Z</time>
      </trkpt>
      <trkpt lat="47.69895" lon="6.05414">
        <ele>249</ele>
        <time>2015-09-10T11:51:39.000Z</time>
      </trkpt>
      <trkpt lat="47.69898" lon="6.05413">
        <ele>249</ele>
        <time>2015-09-10T11:51:40.000Z</time>
      </trkpt>
      <trkpt lat="47.69901" lon="6.05411">
        <ele>249</ele>
        <time>2015-09-10T11:51:41.000Z</time>
      </trkpt>
      <trkpt lat="47.69919" lon="6.05402">
        <ele>248</ele>
        <time>2015-09-10T11:51:48.000Z</time>
      </trkpt>
      <trkpt lat="47.69922" lon="6.05401">
        <ele>249</ele>
        <time>2015-09-10T11:51:49.000Z</time>
      </trkpt>
      <trkpt lat="47.69924" lon="6.054">
        <ele>249</ele>
        <time>2015-09-10T11:51:50.000Z</time>
      </trkpt>
      <trkpt lat="47.69927" lon="6.05399">
        <ele>249</ele>
        <time>2015-09-10T11:51:51.000Z</time>
      </trkpt>
      <trkpt lat="47.6993" lon="6.05398">
        <ele>249</ele>
        <time>2015-09-10T11:51:52.000Z</time>
      </trkpt>
      <trkpt lat="47.69947" lon="6.05389">
        <ele>249</ele>
        <time>2015-09-10T11:51:58.000Z</time>
      </trkpt>
      <trkpt lat="47.6997" lon="6.0538">
        <ele>249</ele>
        <time>2015-09-10T11:52:05.000Z</time>
      </trkpt>
      <trkpt lat="47.69992" lon="6.05377">
        <ele>249</ele>
        <time>2015-09-10T11:52:11.000Z</time>
      </trkpt>
      <trkpt lat="47.70021" lon="6.05374">
        <ele>248</ele>
        <time>2015-09-10T11:52:18.000Z</time>
      </trkpt>
      <trkpt lat="47.70053" lon="6.05375">
        <ele>248</ele>
        <time>2015-09-10T11:52:24.000Z</time>
      </trkpt>
      <trkpt lat="47.70086" lon="6.05372">
        <ele>246</ele>
        <time>2015-09-10T11:52:29.000Z</time>
      </trkpt>
      <trkpt lat="47.70094" lon="6.0537">
        <ele>246</ele>
        <time>2015-09-10T11:52:30.000Z</time>
      </trkpt>
      <trkpt lat="47.70101" lon="6.05368">
        <ele>246</ele>
        <time>2015-09-10T11:52:31.000Z</time>
      </trkpt>
      <trkpt lat="47.70108" lon="6.05365">
        <ele>246</ele>
        <time>2015-09-10T11:52:32.000Z</time>
      </trkpt>
      <trkpt lat="47.70115" lon="6.05362">
        <ele>246</ele>
        <time>2015-09-10T11:52:33.000Z</time>
      </trkpt>
      <trkpt lat="47.70137" lon="6.05351">
        <ele>245</ele>
        <time>2015-09-10T11:52:36.000Z</time>
      </trkpt>
      <trkpt lat="47.70144" lon="6.05347">
        <ele>245</ele>
        <time>2015-09-10T11:52:37.000Z</time>
      </trkpt>
      <trkpt lat="47.70151" lon="6.05344">
        <ele>245</ele>
        <time>2015-09-10T11:52:38.000Z</time>
      </trkpt>
      <trkpt lat="47.70158" lon="6.05339">
        <ele>245</ele>
        <time>2015-09-10T11:52:39.000Z</time>
      </trkpt>
      <trkpt lat="47.70165" lon="6.05335">
        <ele>244</ele>
        <time>2015-09-10T11:52:40.000Z</time>
      </trkpt>
      <trkpt lat="47.70177" lon="6.05326">
        <ele>245</ele>
        <time>2015-09-10T11:52:42.000Z</time>
      </trkpt>
      <trkpt lat="47.70208" lon="6.05298">
        <ele>246</ele>
        <time>2015-09-10T11:52:48.000Z</time>
      </trkpt>
      <trkpt lat="47.70224" lon="6.05282">
        <ele>247</ele>
        <time>2015-09-10T11:52:53.000Z</time>
      </trkpt>
      <trkpt lat="47.70239" lon="6.05272">
        <ele>248</ele>
        <time>2015-09-10T11:52:59.000Z</time>
      </trkpt>
      <trkpt lat="47.70242" lon="6.05271">
        <ele>248</ele>
        <time>2015-09-10T11:53:00.000Z</time>
      </trkpt>
      <trkpt lat="47.70245" lon="6.0527">
        <ele>248</ele>
        <time>2015-09-10T11:53:01.000Z</time>
      </trkpt>
      <trkpt lat="47.70247" lon="6.05269">
        <ele>248</ele>
        <time>2015-09-10T11:53:02.000Z</time>
      </trkpt>
      <trkpt lat="47.7025" lon="6.05269">
        <ele>248</ele>
        <time>2015-09-10T11:53:03.000Z</time>
      </trkpt>
      <trkpt lat="47.70254" lon="6.05269">
        <ele>252</ele>
        <time>2015-09-10T11:53:05.000Z</time>
      </trkpt>
      <trkpt lat="47.70262" lon="6.05268">
        <ele>252</ele>
        <time>2015-09-10T11:53:08.000Z</time>
      </trkpt>
      <trkpt lat="47.70264" lon="6.05268">
        <ele>252</ele>
        <time>2015-09-10T11:53:09.000Z</time>
      </trkpt>
      <trkpt lat="47.70267" lon="6.05268">
        <ele>252</ele>
        <time>2015-09-10T11:53:10.000Z</time>
      </trkpt>
      <trkpt lat="47.70269" lon="6.05268">
        <ele>252</ele>
        <time>2015-09-10T11:53:11.000Z</time>
      </trkpt>
      <trkpt lat="47.70274" lon="6.05268">
        <ele>253</ele>
        <time>2015-09-10T11:53:13.000Z</time>
      </trkpt>
      <trkpt lat="47.70282" lon="6.05268">
        <ele>253</ele>
        <time>2015-09-10T11:53:16.000Z</time>
      </trkpt>
      <trkpt lat="47.70284" lon="6.05267">
        <ele>253</ele>
        <time>2015-09-10T11:53:17.000Z</time>
      </trkpt>
      <trkpt lat="47.70287" lon="6.05267">
        <ele>253</ele>
        <time>2015-09-10T11:53:18.000Z</time>
      </trkpt>
      <trkpt lat="47.70289" lon="6.05266">
        <ele>253</ele>
        <time>2015-09-10T11:53:19.000Z</time>
      </trkpt>
      <trkpt lat="47.70292" lon="6.05266">
        <ele>254</ele>
        <time>2015-09-10T11:53:20.000Z</time>
      </trkpt>
      <trkpt lat="47.70302" lon="6.05266">
        <ele>254</ele>
        <time>2015-09-10T11:53:24.000Z</time>
      </trkpt>
      <trkpt lat="47.70305" lon="6.05265">
        <ele>254</ele>
        <time>2015-09-10T11:53:25.000Z</time>
      </trkpt>
      <trkpt lat="47.70308" lon="6.05265">
        <ele>254</ele>
        <time>2015-09-10T11:53:26.000Z</time>
      </trkpt>
      <trkpt lat="47.70311" lon="6.05265">
        <ele>254</ele>
        <time>2015-09-10T11:53:27.000Z</time>
      </trkpt>
      <trkpt lat="47.70313" lon="6.05266">
        <ele>255</ele>
        <time>2015-09-10T11:53:28.000Z</time>
      </trkpt>
      <trkpt lat="47.70326" lon="6.05266">
        <ele>255</ele>
        <time>2015-09-10T11:53:33.000Z</time>
      </trkpt>
      <trkpt lat="47.70333" lon="6.05268">
        <ele>255</ele>
        <time>2015-09-10T11:53:36.000Z</time>
      </trkpt>
      <trkpt lat="47.70336" lon="6.05268">
        <ele>258</ele>
        <time>2015-09-10T11:53:37.000Z</time>
      </trkpt>
      <trkpt lat="47.70338" lon="6.05268">
        <ele>258</ele>
        <time>2015-09-10T11:53:38.000Z</time>
      </trkpt>
      <trkpt lat="47.7034" lon="6.05268">
        <ele>258</ele>
        <time>2015-09-10T11:53:39.000Z</time>
      </trkpt>
      <trkpt lat="47.70345" lon="6.05268">
        <ele>258</ele>
        <time>2015-09-10T11:53:41.000Z</time>
      </trkpt>
      <trkpt lat="47.70365" lon="6.05271">
        <ele>259</ele>
        <time>2015-09-10T11:53:49.000Z</time>
      </trkpt>
      <trkpt lat="47.70368" lon="6.05272">
        <ele>259</ele>
        <time>2015-09-10T11:53:50.000Z</time>
      </trkpt>
      <trkpt lat="47.7037" lon="6.05272">
        <ele>259</ele>
        <time>2015-09-10T11:53:51.000Z</time>
      </trkpt>
      <trkpt lat="47.70373" lon="6.05273">
        <ele>259</ele>
        <time>2015-09-10T11:53:52.000Z</time>
      </trkpt>
      <trkpt lat="47.70375" lon="6.05274">
        <ele>259</ele>
        <time>2015-09-10T11:53:53.000Z</time>
      </trkpt>
      <trkpt lat="47.70392" lon="6.05278">
        <ele>260</ele>
        <time>2015-09-10T11:54:00.000Z</time>
      </trkpt>
      <trkpt lat="47.7041" lon="6.05284">
        <ele>260</ele>
        <time>2015-09-10T11:54:07.000Z</time>
      </trkpt>
      <trkpt lat="47.70412" lon="6.05285">
        <ele>260</ele>
        <time>2015-09-10T11:54:08.000Z</time>
      </trkpt>
      <trkpt lat="47.70415" lon="6.05286">
        <ele>260</ele>
        <time>2015-09-10T11:54:09.000Z</time>
      </trkpt>
      <trkpt lat="47.70418" lon="6.05287">
        <ele>261</ele>
        <time>2015-09-10T11:54:10.000Z</time>
      </trkpt>
      <trkpt lat="47.7042" lon="6.05288">
        <ele>261</ele>
        <time>2015-09-10T11:54:11.000Z</time>
      </trkpt>
      <trkpt lat="47.70433" lon="6.05293">
        <ele>261</ele>
        <time>2015-09-10T11:54:16.000Z</time>
      </trkpt>
      <trkpt lat="47.7045" lon="6.05297">
        <ele>261</ele>
        <time>2015-09-10T11:54:22.000Z</time>
      </trkpt>
      <trkpt lat="47.70463" lon="6.05312">
        <ele>261</ele>
        <time>2015-09-10T11:54:27.000Z</time>
      </trkpt>
      <trkpt lat="47.70481" lon="6.05332">
        <ele>261</ele>
        <time>2015-09-10T11:54:34.000Z</time>
      </trkpt>
      <trkpt lat="47.70492" lon="6.05343">
        <ele>262</ele>
        <time>2015-09-10T11:54:39.000Z</time>
      </trkpt>
      <trkpt lat="47.70522" lon="6.05355">
        <ele>261</ele>
        <time>2015-09-10T11:54:47.000Z</time>
      </trkpt>
      <trkpt lat="47.70547" lon="6.05363">
        <ele>260</ele>
        <time>2015-09-10T11:54:54.000Z</time>
      </trkpt>
      <trkpt lat="47.70577" lon="6.05374">
        <ele>260</ele>
        <time>2015-09-10T11:55:02.000Z</time>
      </trkpt>
      <trkpt lat="47.70609" lon="6.05388">
        <ele>259</ele>
        <time>2015-09-10T11:55:10.000Z</time>
      </trkpt>
      <trkpt lat="47.70634" lon="6.05397">
        <ele>259</ele>
        <time>2015-09-10T11:55:16.000Z</time>
      </trkpt>
      <trkpt lat="47.70664" lon="6.05406">
        <ele>258</ele>
        <time>2015-09-10T11:55:23.000Z</time>
      </trkpt>
      <trkpt lat="47.70669" lon="6.05407">
        <ele>258</ele>
        <time>2015-09-10T11:55:24.000Z</time>
      </trkpt>
      <trkpt lat="47.70674" lon="6.05408">
        <ele>258</ele>
        <time>2015-09-10T11:55:25.000Z</time>
      </trkpt>
      <trkpt lat="47.70678" lon="6.05408">
        <ele>258</ele>
        <time>2015-09-10T11:55:26.000Z</time>
      </trkpt>
      <trkpt lat="47.70683" lon="6.05408">
        <ele>258</ele>
        <time>2015-09-10T11:55:27.000Z</time>
      </trkpt>
      <trkpt lat="47.70702" lon="6.05407">
        <ele>258</ele>
        <time>2015-09-10T11:55:31.000Z</time>
      </trkpt>
      <trkpt lat="47.70745" lon="6.0541">
        <ele>257</ele>
        <time>2015-09-10T11:55:40.000Z</time>
      </trkpt>
      <trkpt lat="47.70778" lon="6.05415">
        <ele>258</ele>
        <time>2015-09-10T11:55:48.000Z</time>
      </trkpt>
      <trkpt lat="47.70799" lon="6.05422">
        <ele>259</ele>
        <time>2015-09-10T11:55:54.000Z</time>
      </trkpt>
      <trkpt lat="47.70822" lon="6.05436">
        <ele>259</ele>
        <time>2015-09-10T11:56:02.000Z</time>
      </trkpt>
      <trkpt lat="47.70827" lon="6.05438">
        <ele>260</ele>
        <time>2015-09-10T11:56:04.000Z</time>
      </trkpt>
      <trkpt lat="47.70829" lon="6.05439">
        <ele>260</ele>
        <time>2015-09-10T11:56:05.000Z</time>
      </trkpt>
      <trkpt lat="47.70831" lon="6.05441">
        <ele>260</ele>
        <time>2015-09-10T11:56:06.000Z</time>
      </trkpt>
      <trkpt lat="47.70833" lon="6.05442">
        <ele>260</ele>
        <time>2015-09-10T11:56:07.000Z</time>
      </trkpt>
      <trkpt lat="47.70848" lon="6.05451">
        <ele>263</ele>
        <time>2015-09-10T11:56:14.000Z</time>
      </trkpt>
      <trkpt lat="47.7086" lon="6.05458">
        <ele>263</ele>
        <time>2015-09-10T11:56:19.000Z</time>
      </trkpt>
      <trkpt lat="47.70862" lon="6.05459">
        <ele>263</ele>
        <time>2015-09-10T11:56:20.000Z</time>
      </trkpt>
      <trkpt lat="47.70864" lon="6.0546">
        <ele>263</ele>
        <time>2015-09-10T11:56:21.000Z</time>
      </trkpt>
      <trkpt lat="47.70867" lon="6.05461">
        <ele>263</ele>
        <time>2015-09-10T11:56:22.000Z</time>
      </trkpt>
      <trkpt lat="47.70869" lon="6.05462">
        <ele>263</ele>
        <time>2015-09-10T11:56:23.000Z</time>
      </trkpt>
      <trkpt lat="47.70884" lon="6.05468">
        <ele>264</ele>
        <time>2015-09-10T11:56:29.000Z</time>
      </trkpt>
      <trkpt lat="47.70886" lon="6.05469">
        <ele>264</ele>
        <time>2015-09-10T11:56:30.000Z</time>
      </trkpt>
      <trkpt lat="47.70888" lon="6.0547">
        <ele>264</ele>
        <time>2015-09-10T11:56:31.000Z</time>
      </trkpt>
      <trkpt lat="47.7089" lon="6.05471">
        <ele>264</ele>
        <time>2015-09-10T11:56:32.000Z</time>
      </trkpt>
      <trkpt lat="47.70892" lon="6.05472">
        <ele>264</ele>
        <time>2015-09-10T11:56:33.000Z</time>
      </trkpt>
      <trkpt lat="47.70894" lon="6.05474">
        <ele>264</ele>
        <time>2015-09-10T11:56:34.000Z</time>
      </trkpt>
      <trkpt lat="47.709" lon="6.05477">
        <ele>264</ele>
        <time>2015-09-10T11:56:37.000Z</time>
      </trkpt>
      <trkpt lat="47.70913" lon="6.05482">
        <ele>265</ele>
        <time>2015-09-10T11:56:43.000Z</time>
      </trkpt>
      <trkpt lat="47.70915" lon="6.05483">
        <ele>265</ele>
        <time>2015-09-10T11:56:44.000Z</time>
      </trkpt>
      <trkpt lat="47.70917" lon="6.05484">
        <ele>266</ele>
        <time>2015-09-10T11:56:45.000Z</time>
      </trkpt>
      <trkpt lat="47.70919" lon="6.05485">
        <ele>266</ele>
        <time>2015-09-10T11:56:46.000Z</time>
      </trkpt>
      <trkpt lat="47.7092" lon="6.05486">
        <ele>266</ele>
        <time>2015-09-10T11:56:47.000Z</time>
      </trkpt>
      <trkpt lat="47.70926" lon="6.05488">
        <ele>266</ele>
        <time>2015-09-10T11:56:50.000Z</time>
      </trkpt>
      <trkpt lat="47.7094" lon="6.05493">
        <ele>267</ele>
        <time>2015-09-10T11:56:57.000Z</time>
      </trkpt>
      <trkpt lat="47.70942" lon="6.05493">
        <ele>267</ele>
        <time>2015-09-10T11:56:58.000Z</time>
      </trkpt>
      <trkpt lat="47.70944" lon="6.05494">
        <ele>267</ele>
        <time>2015-09-10T11:56:59.000Z</time>
      </trkpt>
      <trkpt lat="47.70946" lon="6.05495">
        <ele>267</ele>
        <time>2015-09-10T11:57:00.000Z</time>
      </trkpt>
      <trkpt lat="47.70948" lon="6.05495">
        <ele>267</ele>
        <time>2015-09-10T11:57:01.000Z</time>
      </trkpt>
      <trkpt lat="47.70951" lon="6.05496">
        <ele>267</ele>
        <time>2015-09-10T11:57:02.000Z</time>
      </trkpt>
      <trkpt lat="47.70958" lon="6.05498">
        <ele>267</ele>
        <time>2015-09-10T11:57:05.000Z</time>
      </trkpt>
      <trkpt lat="47.70972" lon="6.05502">
        <ele>270</ele>
        <time>2015-09-10T11:57:11.000Z</time>
      </trkpt>
      <trkpt lat="47.70974" lon="6.05503">
        <ele>270</ele>
        <time>2015-09-10T11:57:12.000Z</time>
      </trkpt>
      <trkpt lat="47.70975" lon="6.05504">
        <ele>270</ele>
        <time>2015-09-10T11:57:13.000Z</time>
      </trkpt>
      <trkpt lat="47.70978" lon="6.05504">
        <ele>270</ele>
        <time>2015-09-10T11:57:14.000Z</time>
      </trkpt>
      <trkpt lat="47.7098" lon="6.05505">
        <ele>270</ele>
        <time>2015-09-10T11:57:15.000Z</time>
      </trkpt>
      <trkpt lat="47.7099" lon="6.05508">
        <ele>271</ele>
        <time>2015-09-10T11:57:20.000Z</time>
      </trkpt>
      <trkpt lat="47.71008" lon="6.05512">
        <ele>273</ele>
        <time>2015-09-10T11:57:29.000Z</time>
      </trkpt>
      <trkpt lat="47.71024" lon="6.05513">
        <ele>274</ele>
        <time>2015-09-10T11:57:36.000Z</time>
      </trkpt>
      <trkpt lat="47.71027" lon="6.05513">
        <ele>274</ele>
        <time>2015-09-10T11:57:37.000Z</time>
      </trkpt>
      <trkpt lat="47.71029" lon="6.05514">
        <ele>274</ele>
        <time>2015-09-10T11:57:38.000Z</time>
      </trkpt>
      <trkpt lat="47.71032" lon="6.05514">
        <ele>274</ele>
        <time>2015-09-10T11:57:39.000Z</time>
      </trkpt>
      <trkpt lat="47.71035" lon="6.05514">
        <ele>274</ele>
        <time>2015-09-10T11:57:40.000Z</time>
      </trkpt>
      <trkpt lat="47.71046" lon="6.05513">
        <ele>275</ele>
        <time>2015-09-10T11:57:44.000Z</time>
      </trkpt>
      <trkpt lat="47.71068" lon="6.0551">
        <ele>275</ele>
        <time>2015-09-10T11:57:50.000Z</time>
      </trkpt>
      <trkpt lat="47.71102" lon="6.05507">
        <ele>276</ele>
        <time>2015-09-10T11:57:59.000Z</time>
      </trkpt>
      <trkpt lat="47.71133" lon="6.05504">
        <ele>277</ele>
        <time>2015-09-10T11:58:07.000Z</time>
      </trkpt>
      <trkpt lat="47.71152" lon="6.05501">
        <ele>277</ele>
        <time>2015-09-10T11:58:13.000Z</time>
      </trkpt>
      <trkpt lat="47.71164" lon="6.05503">
        <ele>277</ele>
        <time>2015-09-10T11:58:16.000Z</time>
      </trkpt>
      <trkpt lat="47.71168" lon="6.05504">
        <ele>277</ele>
        <time>2015-09-10T11:58:17.000Z</time>
      </trkpt>
      <trkpt lat="47.71172" lon="6.05506">
        <ele>277</ele>
        <time>2015-09-10T11:58:18.000Z</time>
      </trkpt>
      <trkpt lat="47.71177" lon="6.05507">
        <ele>277</ele>
        <time>2015-09-10T11:58:19.000Z</time>
      </trkpt>
      <trkpt lat="47.71181" lon="6.05509">
        <ele>277</ele>
        <time>2015-09-10T11:58:20.000Z</time>
      </trkpt>
      <trkpt lat="47.71194" lon="6.05512">
        <ele>277</ele>
        <time>2015-09-10T11:58:23.000Z</time>
      </trkpt>
      <trkpt lat="47.71203" lon="6.05515">
        <ele>277</ele>
        <time>2015-09-10T11:58:25.000Z</time>
      </trkpt>
      <trkpt lat="47.71208" lon="6.05517">
        <ele>277</ele>
        <time>2015-09-10T11:58:26.000Z</time>
      </trkpt>
      <trkpt lat="47.71212" lon="6.05518">
        <ele>277</ele>
        <time>2015-09-10T11:58:27.000Z</time>
      </trkpt>
      <trkpt lat="47.71217" lon="6.05521">
        <ele>277</ele>
        <time>2015-09-10T11:58:28.000Z</time>
      </trkpt>
      <trkpt lat="47.71222" lon="6.05525">
        <ele>276</ele>
        <time>2015-09-10T11:58:29.000Z</time>
      </trkpt>
      <trkpt lat="47.71227" lon="6.05528">
        <ele>276</ele>
        <time>2015-09-10T11:58:30.000Z</time>
      </trkpt>
      <trkpt lat="47.71233" lon="6.05531">
        <ele>276</ele>
        <time>2015-09-10T11:58:31.000Z</time>
      </trkpt>
      <trkpt lat="47.71238" lon="6.05533">
        <ele>276</ele>
        <time>2015-09-10T11:58:32.000Z</time>
      </trkpt>
      <trkpt lat="47.71243" lon="6.05536">
        <ele>276</ele>
        <time>2015-09-10T11:58:33.000Z</time>
      </trkpt>
      <trkpt lat="47.71249" lon="6.0554">
        <ele>276</ele>
        <time>2015-09-10T11:58:34.000Z</time>
      </trkpt>
      <trkpt lat="47.71255" lon="6.05543">
        <ele>272</ele>
        <time>2015-09-10T11:58:35.000Z</time>
      </trkpt>
      <trkpt lat="47.71261" lon="6.05547">
        <ele>272</ele>
        <time>2015-09-10T11:58:36.000Z</time>
      </trkpt>
      <trkpt lat="47.71268" lon="6.05551">
        <ele>272</ele>
        <time>2015-09-10T11:58:37.000Z</time>
      </trkpt>
      <trkpt lat="47.71274" lon="6.05555">
        <ele>271</ele>
        <time>2015-09-10T11:58:38.000Z</time>
      </trkpt>
      <trkpt lat="47.71282" lon="6.05559">
        <ele>271</ele>
        <time>2015-09-10T11:58:39.000Z</time>
      </trkpt>
      <trkpt lat="47.71289" lon="6.05563">
        <ele>270</ele>
        <time>2015-09-10T11:58:40.000Z</time>
      </trkpt>
      <trkpt lat="47.71297" lon="6.05567">
        <ele>270</ele>
        <time>2015-09-10T11:58:41.000Z</time>
      </trkpt>
      <trkpt lat="47.71305" lon="6.05572">
        <ele>269</ele>
        <time>2015-09-10T11:58:42.000Z</time>
      </trkpt>
      <trkpt lat="47.71312" lon="6.05577">
        <ele>267</ele>
        <time>2015-09-10T11:58:43.000Z</time>
      </trkpt>
      <trkpt lat="47.71318" lon="6.05581">
        <ele>266</ele>
        <time>2015-09-10T11:58:44.000Z</time>
      </trkpt>
      <trkpt lat="47.71324" lon="6.05584">
        <ele>263</ele>
        <time>2015-09-10T11:58:45.000Z</time>
      </trkpt>
      <trkpt lat="47.71329" lon="6.05587">
        <ele>262</ele>
        <time>2015-09-10T11:58:46.000Z</time>
      </trkpt>
      <trkpt lat="47.71334" lon="6.05589">
        <ele>261</ele>
        <time>2015-09-10T11:58:47.000Z</time>
      </trkpt>
      <trkpt lat="47.71338" lon="6.05592">
        <ele>261</ele>
        <time>2015-09-10T11:58:48.000Z</time>
      </trkpt>
      <trkpt lat="47.71352" lon="6.056">
        <ele>260</ele>
        <time>2015-09-10T11:58:51.000Z</time>
      </trkpt>
      <trkpt lat="47.71361" lon="6.05607">
        <ele>260</ele>
        <time>2015-09-10T11:58:53.000Z</time>
      </trkpt>
      <trkpt lat="47.71374" lon="6.05617">
        <ele>260</ele>
        <time>2015-09-10T11:58:56.000Z</time>
      </trkpt>
      <trkpt lat="47.71383" lon="6.05623">
        <ele>260</ele>
        <time>2015-09-10T11:58:58.000Z</time>
      </trkpt>
      <trkpt lat="47.71396" lon="6.05634">
        <ele>260</ele>
        <time>2015-09-10T11:59:01.000Z</time>
      </trkpt>
      <trkpt lat="47.71401" lon="6.05636">
        <ele>260</ele>
        <time>2015-09-10T11:59:02.000Z</time>
      </trkpt>
      <trkpt lat="47.71405" lon="6.0564">
        <ele>259</ele>
        <time>2015-09-10T11:59:03.000Z</time>
      </trkpt>
      <trkpt lat="47.71409" lon="6.05645">
        <ele>259</ele>
        <time>2015-09-10T11:59:04.000Z</time>
      </trkpt>
      <trkpt lat="47.71414" lon="6.05648">
        <ele>259</ele>
        <time>2015-09-10T11:59:05.000Z</time>
      </trkpt>
      <trkpt lat="47.71439" lon="6.05669">
        <ele>257</ele>
        <time>2015-09-10T11:59:10.000Z</time>
      </trkpt>
      <trkpt lat="47.71471" lon="6.05696">
        <ele>256</ele>
        <time>2015-09-10T11:59:16.000Z</time>
      </trkpt>
      <trkpt lat="47.71476" lon="6.057">
        <ele>256</ele>
        <time>2015-09-10T11:59:17.000Z</time>
      </trkpt>
      <trkpt lat="47.71482" lon="6.05705">
        <ele>256</ele>
        <time>2015-09-10T11:59:18.000Z</time>
      </trkpt>
      <trkpt lat="47.71488" lon="6.05709">
        <ele>256</ele>
        <time>2015-09-10T11:59:19.000Z</time>
      </trkpt>
      <trkpt lat="47.71493" lon="6.05714">
        <ele>256</ele>
        <time>2015-09-10T11:59:20.000Z</time>
      </trkpt>
      <trkpt lat="47.71511" lon="6.05724">
        <ele>256</ele>
        <time>2015-09-10T11:59:23.000Z</time>
      </trkpt>
      <trkpt lat="47.71539" lon="6.05732">
        <ele>256</ele>
        <time>2015-09-10T11:59:28.000Z</time>
      </trkpt>
      <trkpt lat="47.71567" lon="6.05734">
        <ele>255</ele>
        <time>2015-09-10T11:59:34.000Z</time>
      </trkpt>
      <trkpt lat="47.71571" lon="6.05734">
        <ele>255</ele>
        <time>2015-09-10T11:59:35.000Z</time>
      </trkpt>
      <trkpt lat="47.71575" lon="6.05734">
        <ele>255</ele>
        <time>2015-09-10T11:59:36.000Z</time>
      </trkpt>
      <trkpt lat="47.71579" lon="6.05735">
        <ele>255</ele>
        <time>2015-09-10T11:59:37.000Z</time>
      </trkpt>
      <trkpt lat="47.71582" lon="6.05737">
        <ele>254</ele>
        <time>2015-09-10T11:59:38.000Z</time>
      </trkpt>
      <trkpt lat="47.71584" lon="6.05738">
        <ele>255</ele>
        <time>2015-09-10T11:59:39.000Z</time>
      </trkpt>
      <trkpt lat="47.71584" lon="6.05738">
        <ele>255</ele>
        <time>2015-09-10T11:59:40.000Z</time>
      </trkpt>
      <trkpt lat="47.71585" lon="6.05738">
        <ele>255</ele>
        <time>2015-09-10T12:00:17.000Z</time>
      </trkpt>
      <trkpt lat="47.71587" lon="6.05738">
        <ele>255</ele>
        <time>2015-09-10T12:00:18.000Z</time>
      </trkpt>
      <trkpt lat="47.71595" lon="6.05739">
        <ele>255</ele>
        <time>2015-09-10T12:00:21.000Z</time>
      </trkpt>
      <trkpt lat="47.71599" lon="6.05737">
        <ele>255</ele>
        <time>2015-09-10T12:00:23.000Z</time>
      </trkpt>
      <trkpt lat="47.71613" lon="6.05736">
        <ele>256</ele>
        <time>2015-09-10T12:00:27.000Z</time>
      </trkpt>
      <trkpt lat="47.71638" lon="6.05742">
        <ele>257</ele>
        <time>2015-09-10T12:00:34.000Z</time>
      </trkpt>
      <trkpt lat="47.7166" lon="6.0574">
        <ele>258</ele>
        <time>2015-09-10T12:00:40.000Z</time>
      </trkpt>
      <trkpt lat="47.71682" lon="6.05737">
        <ele>260</ele>
        <time>2015-09-10T12:00:47.000Z</time>
      </trkpt>
      <trkpt lat="47.71697" lon="6.05744">
        <ele>260</ele>
        <time>2015-09-10T12:00:52.000Z</time>
      </trkpt>
      <trkpt lat="47.71718" lon="6.05754">
        <ele>260</ele>
        <time>2015-09-10T12:00:59.000Z</time>
      </trkpt>
      <trkpt lat="47.71733" lon="6.05759">
        <ele>261</ele>
        <time>2015-09-10T12:01:04.000Z</time>
      </trkpt>
      <trkpt lat="47.71764" lon="6.05772">
        <ele>262</ele>
        <time>2015-09-10T12:01:11.000Z</time>
      </trkpt>
      <trkpt lat="47.7178" lon="6.05785">
        <ele>262</ele>
        <time>2015-09-10T12:01:17.000Z</time>
      </trkpt>
      <trkpt lat="47.71786" lon="6.0579">
        <ele>262</ele>
        <time>2015-09-10T12:01:21.000Z</time>
      </trkpt>
      <trkpt lat="47.71788" lon="6.05792">
        <ele>262</ele>
        <time>2015-09-10T12:01:22.000Z</time>
      </trkpt>
      <trkpt lat="47.71794" lon="6.05795">
        <ele>262</ele>
        <time>2015-09-10T12:01:25.000Z</time>
      </trkpt>
      <trkpt lat="47.71799" lon="6.05798">
        <ele>262</ele>
        <time>2015-09-10T12:01:27.000Z</time>
      </trkpt>
      <trkpt lat="47.71823" lon="6.05822">
        <ele>263</ele>
        <time>2015-09-10T12:01:33.000Z</time>
      </trkpt>
      <trkpt lat="47.71849" lon="6.05852">
        <ele>265</ele>
        <time>2015-09-10T12:01:39.000Z</time>
      </trkpt>
      <trkpt lat="47.71874" lon="6.05878">
        <ele>266</ele>
        <time>2015-09-10T12:01:46.000Z</time>
      </trkpt>
      <trkpt lat="47.71884" lon="6.05886">
        <ele>266</ele>
        <time>2015-09-10T12:01:49.000Z</time>
      </trkpt>
      <trkpt lat="47.71888" lon="6.05888">
        <ele>267</ele>
        <time>2015-09-10T12:01:50.000Z</time>
      </trkpt>
      <trkpt lat="47.71891" lon="6.05891">
        <ele>267</ele>
        <time>2015-09-10T12:01:51.000Z</time>
      </trkpt>
      <trkpt lat="47.71895" lon="6.05894">
        <ele>267</ele>
        <time>2015-09-10T12:01:52.000Z</time>
      </trkpt>
      <trkpt lat="47.71916" lon="6.0591">
        <ele>268</ele>
        <time>2015-09-10T12:01:59.000Z</time>
      </trkpt>
      <trkpt lat="47.71934" lon="6.05923">
        <ele>267</ele>
        <time>2015-09-10T12:02:05.000Z</time>
      </trkpt>
      <trkpt lat="47.71951" lon="6.05923">
        <ele>266</ele>
        <time>2015-09-10T12:02:11.000Z</time>
      </trkpt>
      <trkpt lat="47.71964" lon="6.05926">
        <ele>266</ele>
        <time>2015-09-10T12:02:17.000Z</time>
      </trkpt>
      <trkpt lat="47.71979" lon="6.0594">
        <ele>265</ele>
        <time>2015-09-10T12:02:22.000Z</time>
      </trkpt>
      <trkpt lat="47.71997" lon="6.05957">
        <ele>264</ele>
        <time>2015-09-10T12:02:27.000Z</time>
      </trkpt>
      <trkpt lat="47.72001" lon="6.0596">
        <ele>260</ele>
        <time>2015-09-10T12:02:28.000Z</time>
      </trkpt>
      <trkpt lat="47.72005" lon="6.05961">
        <ele>260</ele>
        <time>2015-09-10T12:02:29.000Z</time>
      </trkpt>
      <trkpt lat="47.72008" lon="6.05964">
        <ele>260</ele>
        <time>2015-09-10T12:02:30.000Z</time>
      </trkpt>
      <trkpt lat="47.72012" lon="6.05966">
        <ele>259</ele>
        <time>2015-09-10T12:02:31.000Z</time>
      </trkpt>
      <trkpt lat="47.72015" lon="6.05968">
        <ele>259</ele>
        <time>2015-09-10T12:02:32.000Z</time>
      </trkpt>
      <trkpt lat="47.72019" lon="6.05969">
        <ele>259</ele>
        <time>2015-09-10T12:02:33.000Z</time>
      </trkpt>
      <trkpt lat="47.72024" lon="6.05971">
        <ele>259</ele>
        <time>2015-09-10T12:02:34.000Z</time>
      </trkpt>
      <trkpt lat="47.72028" lon="6.05973">
        <ele>259</ele>
        <time>2015-09-10T12:02:35.000Z</time>
      </trkpt>
      <trkpt lat="47.72032" lon="6.05974">
        <ele>258</ele>
        <time>2015-09-10T12:02:36.000Z</time>
      </trkpt>
      <trkpt lat="47.72037" lon="6.05976">
        <ele>258</ele>
        <time>2015-09-10T12:02:37.000Z</time>
      </trkpt>
      <trkpt lat="47.72046" lon="6.05981">
        <ele>257</ele>
        <time>2015-09-10T12:02:39.000Z</time>
      </trkpt>
      <trkpt lat="47.72055" lon="6.05987">
        <ele>256</ele>
        <time>2015-09-10T12:02:41.000Z</time>
      </trkpt>
      <trkpt lat="47.7206" lon="6.05991">
        <ele>255</ele>
        <time>2015-09-10T12:02:42.000Z</time>
      </trkpt>
      <trkpt lat="47.72064" lon="6.05995">
        <ele>255</ele>
        <time>2015-09-10T12:02:43.000Z</time>
      </trkpt>
      <trkpt lat="47.72068" lon="6.05999">
        <ele>254</ele>
        <time>2015-09-10T12:02:44.000Z</time>
      </trkpt>
      <trkpt lat="47.72073" lon="6.06005">
        <ele>250</ele>
        <time>2015-09-10T12:02:45.000Z</time>
      </trkpt>
      <trkpt lat="47.72098" lon="6.06032">
        <ele>246</ele>
        <time>2015-09-10T12:02:51.000Z</time>
      </trkpt>
      <trkpt lat="47.72101" lon="6.06036">
        <ele>246</ele>
        <time>2015-09-10T12:02:52.000Z</time>
      </trkpt>
      <trkpt lat="47.72104" lon="6.0604">
        <ele>246</ele>
        <time>2015-09-10T12:02:53.000Z</time>
      </trkpt>
      <trkpt lat="47.72107" lon="6.06042">
        <ele>246</ele>
        <time>2015-09-10T12:02:54.000Z</time>
      </trkpt>
      <trkpt lat="47.72111" lon="6.06046">
        <ele>245</ele>
        <time>2015-09-10T12:02:55.000Z</time>
      </trkpt>
      <trkpt lat="47.72115" lon="6.0605">
        <ele>245</ele>
        <time>2015-09-10T12:02:56.000Z</time>
      </trkpt>
      <trkpt lat="47.72119" lon="6.06054">
        <ele>245</ele>
        <time>2015-09-10T12:02:57.000Z</time>
      </trkpt>
      <trkpt lat="47.7214" lon="6.0608">
        <ele>244</ele>
        <time>2015-09-10T12:03:02.000Z</time>
      </trkpt>
      <trkpt lat="47.72146" lon="6.06094">
        <ele>242</ele>
        <time>2015-09-10T12:03:04.000Z</time>
      </trkpt>
      <trkpt lat="47.7215" lon="6.06099">
        <ele>242</ele>
        <time>2015-09-10T12:03:05.000Z</time>
      </trkpt>
      <trkpt lat="47.72154" lon="6.06104">
        <ele>242</ele>
        <time>2015-09-10T12:03:06.000Z</time>
      </trkpt>
      <trkpt lat="47.72158" lon="6.06108">
        <ele>242</ele>
        <time>2015-09-10T12:03:07.000Z</time>
      </trkpt>
      <trkpt lat="47.72186" lon="6.06133">
        <ele>243</ele>
        <time>2015-09-10T12:03:13.000Z</time>
      </trkpt>
      <trkpt lat="47.72198" lon="6.06141">
        <ele>243</ele>
        <time>2015-09-10T12:03:17.000Z</time>
      </trkpt>
      <trkpt lat="47.72208" lon="6.06144">
        <ele>244</ele>
        <time>2015-09-10T12:03:22.000Z</time>
      </trkpt>
      <trkpt lat="47.72211" lon="6.06145">
        <ele>244</ele>
        <time>2015-09-10T12:03:23.000Z</time>
      </trkpt>
      <trkpt lat="47.72213" lon="6.06146">
        <ele>244</ele>
        <time>2015-09-10T12:03:24.000Z</time>
      </trkpt>
      <trkpt lat="47.72215" lon="6.06148">
        <ele>244</ele>
        <time>2015-09-10T12:03:25.000Z</time>
      </trkpt>
      <trkpt lat="47.72218" lon="6.0615">
        <ele>244</ele>
        <time>2015-09-10T12:03:26.000Z</time>
      </trkpt>
      <trkpt lat="47.72222" lon="6.06151">
        <ele>244</ele>
        <time>2015-09-10T12:03:27.000Z</time>
      </trkpt>
      <trkpt lat="47.72225" lon="6.06151">
        <ele>244</ele>
        <time>2015-09-10T12:03:28.000Z</time>
      </trkpt>
      <trkpt lat="47.7224" lon="6.06153">
        <ele>245</ele>
        <time>2015-09-10T12:03:34.000Z</time>
      </trkpt>
      <trkpt lat="47.72242" lon="6.06153">
        <ele>245</ele>
        <time>2015-09-10T12:03:35.000Z</time>
      </trkpt>
      <trkpt lat="47.72244" lon="6.06152">
        <ele>245</ele>
        <time>2015-09-10T12:03:36.000Z</time>
      </trkpt>
      <trkpt lat="47.72246" lon="6.06152">
        <ele>245</ele>
        <time>2015-09-10T12:03:37.000Z</time>
      </trkpt>
      <trkpt lat="47.72248" lon="6.06153">
        <ele>245</ele>
        <time>2015-09-10T12:03:38.000Z</time>
      </trkpt>
      <trkpt lat="47.7225" lon="6.06153">
        <ele>247</ele>
        <time>2015-09-10T12:03:39.000Z</time>
      </trkpt>
      <trkpt lat="47.72253" lon="6.06153">
        <ele>247</ele>
        <time>2015-09-10T12:03:40.000Z</time>
      </trkpt>
      <trkpt lat="47.72265" lon="6.06147">
        <ele>247</ele>
        <time>2015-09-10T12:03:45.000Z</time>
      </trkpt>
      <trkpt lat="47.72283" lon="6.06138">
        <ele>247</ele>
        <time>2015-09-10T12:03:50.000Z</time>
      </trkpt>
      <trkpt lat="47.72303" lon="6.06141">
        <ele>247</ele>
        <time>2015-09-10T12:03:55.000Z</time>
      </trkpt>
      <trkpt lat="47.72307" lon="6.06141">
        <ele>247</ele>
        <time>2015-09-10T12:03:56.000Z</time>
      </trkpt>
      <trkpt lat="47.7231" lon="6.06142">
        <ele>247</ele>
        <time>2015-09-10T12:03:57.000Z</time>
      </trkpt>
      <trkpt lat="47.72313" lon="6.06142">
        <ele>247</ele>
        <time>2015-09-10T12:03:58.000Z</time>
      </trkpt>
      <trkpt lat="47.72316" lon="6.06142">
        <ele>247</ele>
        <time>2015-09-10T12:03:59.000Z</time>
      </trkpt>
      <trkpt lat="47.7232" lon="6.06143">
        <ele>248</ele>
        <time>2015-09-10T12:04:00.000Z</time>
      </trkpt>
      <trkpt lat="47.72347" lon="6.06147">
        <ele>247</ele>
        <time>2015-09-10T12:04:08.000Z</time>
      </trkpt>
      <trkpt lat="47.72374" lon="6.06151">
        <ele>247</ele>
        <time>2015-09-10T12:04:16.000Z</time>
      </trkpt>
      <trkpt lat="47.724" lon="6.06161">
        <ele>247</ele>
        <time>2015-09-10T12:04:23.000Z</time>
      </trkpt>
      <trkpt lat="47.72426" lon="6.06178">
        <ele>248</ele>
        <time>2015-09-10T12:04:31.000Z</time>
      </trkpt>
      <trkpt lat="47.72449" lon="6.06195">
        <ele>249</ele>
        <time>2015-09-10T12:04:38.000Z</time>
      </trkpt>
      <trkpt lat="47.72467" lon="6.06205">
        <ele>250</ele>
        <time>2015-09-10T12:04:43.000Z</time>
      </trkpt>
      <trkpt lat="47.72471" lon="6.06207">
        <ele>250</ele>
        <time>2015-09-10T12:04:44.000Z</time>
      </trkpt>
      <trkpt lat="47.72474" lon="6.06209">
        <ele>250</ele>
        <time>2015-09-10T12:04:45.000Z</time>
      </trkpt>
      <trkpt lat="47.72478" lon="6.06211">
        <ele>250</ele>
        <time>2015-09-10T12:04:46.000Z</time>
      </trkpt>
      <trkpt lat="47.72508" lon="6.06231">
        <ele>252</ele>
        <time>2015-09-10T12:04:55.000Z</time>
      </trkpt>
      <trkpt lat="47.72532" lon="6.06247">
        <ele>253</ele>
        <time>2015-09-10T12:05:02.000Z</time>
      </trkpt>
      <trkpt lat="47.72551" lon="6.06262">
        <ele>252</ele>
        <time>2015-09-10T12:05:08.000Z</time>
      </trkpt>
      <trkpt lat="47.72554" lon="6.06265">
        <ele>252</ele>
        <time>2015-09-10T12:05:09.000Z</time>
      </trkpt>
      <trkpt lat="47.72557" lon="6.06267">
        <ele>252</ele>
        <time>2015-09-10T12:05:10.000Z</time>
      </trkpt>
      <trkpt lat="47.7256" lon="6.06269">
        <ele>252</ele>
        <time>2015-09-10T12:05:11.000Z</time>
      </trkpt>
      <trkpt lat="47.72563" lon="6.06272">
        <ele>252</ele>
        <time>2015-09-10T12:05:12.000Z</time>
      </trkpt>
      <trkpt lat="47.72574" lon="6.06281">
        <ele>252</ele>
        <time>2015-09-10T12:05:16.000Z</time>
      </trkpt>
      <trkpt lat="47.72602" lon="6.06304">
        <ele>251</ele>
        <time>2015-09-10T12:05:24.000Z</time>
      </trkpt>
      <trkpt lat="47.72606" lon="6.06308">
        <ele>251</ele>
        <time>2015-09-10T12:05:25.000Z</time>
      </trkpt>
      <trkpt lat="47.7262" lon="6.06324">
        <ele>251</ele>
        <time>2015-09-10T12:05:29.000Z</time>
      </trkpt>
      <trkpt lat="47.72623" lon="6.06327">
        <ele>251</ele>
        <time>2015-09-10T12:05:30.000Z</time>
      </trkpt>
      <trkpt lat="47.72626" lon="6.06331">
        <ele>251</ele>
        <time>2015-09-10T12:05:31.000Z</time>
      </trkpt>
      <trkpt lat="47.7263" lon="6.06335">
        <ele>249</ele>
        <time>2015-09-10T12:05:32.000Z</time>
      </trkpt>
      <trkpt lat="47.72638" lon="6.06345">
        <ele>249</ele>
        <time>2015-09-10T12:05:34.000Z</time>
      </trkpt>
      <trkpt lat="47.72642" lon="6.06351">
        <ele>248</ele>
        <time>2015-09-10T12:05:35.000Z</time>
      </trkpt>
      <trkpt lat="47.72646" lon="6.06356">
        <ele>248</ele>
        <time>2015-09-10T12:05:36.000Z</time>
      </trkpt>
      <trkpt lat="47.7265" lon="6.06361">
        <ele>248</ele>
        <time>2015-09-10T12:05:37.000Z</time>
      </trkpt>
      <trkpt lat="47.72655" lon="6.06365">
        <ele>248</ele>
        <time>2015-09-10T12:05:38.000Z</time>
      </trkpt>
      <trkpt lat="47.72659" lon="6.06369">
        <ele>248</ele>
        <time>2015-09-10T12:05:39.000Z</time>
      </trkpt>
      <trkpt lat="47.72664" lon="6.06372">
        <ele>248</ele>
        <time>2015-09-10T12:05:40.000Z</time>
      </trkpt>
      <trkpt lat="47.72669" lon="6.06375">
        <ele>246</ele>
        <time>2015-09-10T12:05:41.000Z</time>
      </trkpt>
      <trkpt lat="47.72675" lon="6.06378">
        <ele>246</ele>
        <time>2015-09-10T12:05:42.000Z</time>
      </trkpt>
      <trkpt lat="47.7268" lon="6.06381">
        <ele>246</ele>
        <time>2015-09-10T12:05:43.000Z</time>
      </trkpt>
      <trkpt lat="47.72695" lon="6.06389">
        <ele>245</ele>
        <time>2015-09-10T12:05:46.000Z</time>
      </trkpt>
      <trkpt lat="47.727" lon="6.06392">
        <ele>245</ele>
        <time>2015-09-10T12:05:47.000Z</time>
      </trkpt>
      <trkpt lat="47.72705" lon="6.06394">
        <ele>245</ele>
        <time>2015-09-10T12:05:48.000Z</time>
      </trkpt>
      <trkpt lat="47.7271" lon="6.06396">
        <ele>245</ele>
        <time>2015-09-10T12:05:49.000Z</time>
      </trkpt>
      <trkpt lat="47.72715" lon="6.06398">
        <ele>245</ele>
        <time>2015-09-10T12:05:50.000Z</time>
      </trkpt>
      <trkpt lat="47.72724" lon="6.06401">
        <ele>245</ele>
        <time>2015-09-10T12:05:52.000Z</time>
      </trkpt>
      <trkpt lat="47.72729" lon="6.06401">
        <ele>245</ele>
        <time>2015-09-10T12:05:53.000Z</time>
      </trkpt>
      <trkpt lat="47.72734" lon="6.06402">
        <ele>245</ele>
        <time>2015-09-10T12:05:54.000Z</time>
      </trkpt>
      <trkpt lat="47.72738" lon="6.06403">
        <ele>245</ele>
        <time>2015-09-10T12:05:55.000Z</time>
      </trkpt>
      <trkpt lat="47.72742" lon="6.06403">
        <ele>245</ele>
        <time>2015-09-10T12:05:56.000Z</time>
      </trkpt>
      <trkpt lat="47.72747" lon="6.06404">
        <ele>245</ele>
        <time>2015-09-10T12:05:57.000Z</time>
      </trkpt>
      <trkpt lat="47.72753" lon="6.06405">
        <ele>243</ele>
        <time>2015-09-10T12:05:58.000Z</time>
      </trkpt>
      <trkpt lat="47.72758" lon="6.06405">
        <ele>243</ele>
        <time>2015-09-10T12:05:59.000Z</time>
      </trkpt>
      <trkpt lat="47.72765" lon="6.06405">
        <ele>243</ele>
        <time>2015-09-10T12:06:00.000Z</time>
      </trkpt>
      <trkpt lat="47.72772" lon="6.06405">
        <ele>243</ele>
        <time>2015-09-10T12:06:01.000Z</time>
      </trkpt>
      <trkpt lat="47.72778" lon="6.06405">
        <ele>243</ele>
        <time>2015-09-10T12:06:02.000Z</time>
      </trkpt>
      <trkpt lat="47.72784" lon="6.06403">
        <ele>243</ele>
        <time>2015-09-10T12:06:03.000Z</time>
      </trkpt>
      <trkpt lat="47.7279" lon="6.06401">
        <ele>243</ele>
        <time>2015-09-10T12:06:04.000Z</time>
      </trkpt>
      <trkpt lat="47.72797" lon="6.06398">
        <ele>243</ele>
        <time>2015-09-10T12:06:05.000Z</time>
      </trkpt>
      <trkpt lat="47.72803" lon="6.06395">
        <ele>242</ele>
        <time>2015-09-10T12:06:06.000Z</time>
      </trkpt>
      <trkpt lat="47.72808" lon="6.06391">
        <ele>242</ele>
        <time>2015-09-10T12:06:07.000Z</time>
      </trkpt>
      <trkpt lat="47.72812" lon="6.06389">
        <ele>242</ele>
        <time>2015-09-10T12:06:08.000Z</time>
      </trkpt>
      <trkpt lat="47.72814" lon="6.06386">
        <ele>242</ele>
        <time>2015-09-10T12:06:09.000Z</time>
      </trkpt>
      <trkpt lat="47.72816" lon="6.06383">
        <ele>242</ele>
        <time>2015-09-10T12:06:11.000Z</time>
      </trkpt>
      <trkpt lat="47.7281" lon="6.06381">
        <ele>242</ele>
        <time>2015-09-10T12:06:18.000Z</time>
      </trkpt>
      <trkpt lat="47.72806" lon="6.06384">
        <ele>242</ele>
        <time>2015-09-10T12:06:21.000Z</time>
      </trkpt>
      <trkpt lat="47.72806" lon="6.06385">
        <ele>242</ele>
        <time>2015-09-10T12:06:47.000Z</time>
      </trkpt>
      <trkpt lat="47.72807" lon="6.06387">
        <ele>242</ele>
        <time>2015-09-10T12:06:48.000Z</time>
      </trkpt>
      <trkpt lat="47.72807" lon="6.06388">
        <ele>242</ele>
        <time>2015-09-10T12:06:49.000Z</time>
      </trkpt>
      <trkpt lat="47.72812" lon="6.06405">
        <ele>242</ele>
        <time>2015-09-10T12:06:56.000Z</time>
      </trkpt>
      <trkpt lat="47.72816" lon="6.06423">
        <ele>243</ele>
        <time>2015-09-10T12:07:03.000Z</time>
      </trkpt>
      <trkpt lat="47.72822" lon="6.06451">
        <ele>243</ele>
        <time>2015-09-10T12:07:16.000Z</time>
      </trkpt>
      <trkpt lat="47.72823" lon="6.06462">
        <ele>243</ele>
        <time>2015-09-10T12:07:21.000Z</time>
      </trkpt>
      <trkpt lat="47.72823" lon="6.06465">
        <ele>243</ele>
        <time>2015-09-10T12:07:22.000Z</time>
      </trkpt>
      <trkpt lat="47.72823" lon="6.06482">
        <ele>243</ele>
        <time>2015-09-10T12:07:28.000Z</time>
      </trkpt>
      <trkpt lat="47.72822" lon="6.06506">
        <ele>243</ele>
        <time>2015-09-10T12:07:34.000Z</time>
      </trkpt>
      <trkpt lat="47.72822" lon="6.06516">
        <ele>243</ele>
        <time>2015-09-10T12:07:38.000Z</time>
      </trkpt>
      <trkpt lat="47.72824" lon="6.06528">
        <ele>243</ele>
        <time>2015-09-10T12:07:42.000Z</time>
      </trkpt>
      <trkpt lat="47.72827" lon="6.06541">
        <ele>243</ele>
        <time>2015-09-10T12:07:46.000Z</time>
      </trkpt>
      <trkpt lat="47.72828" lon="6.06545">
        <ele>243</ele>
        <time>2015-09-10T12:07:48.000Z</time>
      </trkpt>
      <trkpt lat="47.72828" lon="6.06548">
        <ele>243</ele>
        <time>2015-09-10T12:07:49.000Z</time>
      </trkpt>
      <trkpt lat="47.72829" lon="6.0655">
        <ele>243</ele>
        <time>2015-09-10T12:07:50.000Z</time>
      </trkpt>
      <trkpt lat="47.7283" lon="6.06551">
        <ele>243</ele>
        <time>2015-09-10T12:07:51.000Z</time>
      </trkpt>
      <trkpt lat="47.7283" lon="6.06553">
        <ele>243</ele>
        <time>2015-09-10T12:07:52.000Z</time>
      </trkpt>
      <trkpt lat="47.72831" lon="6.06555">
        <ele>243</ele>
        <time>2015-09-10T12:07:53.000Z</time>
      </trkpt>
      <trkpt lat="47.72834" lon="6.06564">
        <ele>244</ele>
        <time>2015-09-10T12:07:57.000Z</time>
      </trkpt>
      <trkpt lat="47.72834" lon="6.06566">
        <ele>244</ele>
        <time>2015-09-10T12:07:58.000Z</time>
      </trkpt>
      <trkpt lat="47.72835" lon="6.06568">
        <ele>243</ele>
        <time>2015-09-10T12:07:59.000Z</time>
      </trkpt>
      <trkpt lat="47.72836" lon="6.06571">
        <ele>243</ele>
        <time>2015-09-10T12:08:00.000Z</time>
      </trkpt>
      <trkpt lat="47.72836" lon="6.06573">
        <ele>243</ele>
        <time>2015-09-10T12:08:01.000Z</time>
      </trkpt>
      <trkpt lat="47.72837" lon="6.06578">
        <ele>243</ele>
        <time>2015-09-10T12:08:03.000Z</time>
      </trkpt>
      <trkpt lat="47.7284" lon="6.06595">
        <ele>244</ele>
        <time>2015-09-10T12:08:10.000Z</time>
      </trkpt>
      <trkpt lat="47.72843" lon="6.06607">
        <ele>245</ele>
        <time>2015-09-10T12:08:16.000Z</time>
      </trkpt>
      <trkpt lat="47.72844" lon="6.06609">
        <ele>245</ele>
        <time>2015-09-10T12:08:17.000Z</time>
      </trkpt>
      <trkpt lat="47.72845" lon="6.06611">
        <ele>245</ele>
        <time>2015-09-10T12:08:18.000Z</time>
      </trkpt>
      <trkpt lat="47.72847" lon="6.06615">
        <ele>245</ele>
        <time>2015-09-10T12:08:20.000Z</time>
      </trkpt>
      <trkpt lat="47.72848" lon="6.06618">
        <ele>245</ele>
        <time>2015-09-10T12:08:22.000Z</time>
      </trkpt>
      <trkpt lat="47.72852" lon="6.06627">
        <ele>246</ele>
        <time>2015-09-10T12:08:27.000Z</time>
      </trkpt>
      <trkpt lat="47.72856" lon="6.06632">
        <ele>246</ele>
        <time>2015-09-10T12:08:30.000Z</time>
      </trkpt>
      <trkpt lat="47.72857" lon="6.06633">
        <ele>246</ele>
        <time>2015-09-10T12:08:31.000Z</time>
      </trkpt>
      <trkpt lat="47.72865" lon="6.0664">
        <ele>246</ele>
        <time>2015-09-10T12:08:38.000Z</time>
      </trkpt>
      <trkpt lat="47.72866" lon="6.06642">
        <ele>246</ele>
        <time>2015-09-10T12:08:39.000Z</time>
      </trkpt>
      <trkpt lat="47.72867" lon="6.06643">
        <ele>246</ele>
        <time>2015-09-10T12:08:40.000Z</time>
      </trkpt>
      <trkpt lat="47.72868" lon="6.06645">
        <ele>246</ele>
        <time>2015-09-10T12:08:41.000Z</time>
      </trkpt>
      <trkpt lat="47.7287" lon="6.06648">
        <ele>246</ele>
        <time>2015-09-10T12:08:43.000Z</time>
      </trkpt>
      <trkpt lat="47.72879" lon="6.06663">
        <ele>247</ele>
        <time>2015-09-10T12:08:50.000Z</time>
      </trkpt>
      <trkpt lat="47.72881" lon="6.06664">
        <ele>247</ele>
        <time>2015-09-10T12:08:51.000Z</time>
      </trkpt>
      <trkpt lat="47.72883" lon="6.06666">
        <ele>247</ele>
        <time>2015-09-10T12:08:52.000Z</time>
      </trkpt>
      <trkpt lat="47.72885" lon="6.06667">
        <ele>248</ele>
        <time>2015-09-10T12:08:53.000Z</time>
      </trkpt>
      <trkpt lat="47.72887" lon="6.06668">
        <ele>248</ele>
        <time>2015-09-10T12:08:54.000Z</time>
      </trkpt>
      <trkpt lat="47.72889" lon="6.06668">
        <ele>248</ele>
        <time>2015-09-10T12:08:55.000Z</time>
      </trkpt>
      <trkpt lat="47.72891" lon="6.06669">
        <ele>248</ele>
        <time>2015-09-10T12:08:56.000Z</time>
      </trkpt>
      <trkpt lat="47.72904" lon="6.06673">
        <ele>249</ele>
        <time>2015-09-10T12:09:02.000Z</time>
      </trkpt>
      <trkpt lat="47.72906" lon="6.06674">
        <ele>249</ele>
        <time>2015-09-10T12:09:03.000Z</time>
      </trkpt>
      <trkpt lat="47.72909" lon="6.06676">
        <ele>249</ele>
        <time>2015-09-10T12:09:04.000Z</time>
      </trkpt>
      <trkpt lat="47.72911" lon="6.06678">
        <ele>249</ele>
        <time>2015-09-10T12:09:05.000Z</time>
      </trkpt>
      <trkpt lat="47.72914" lon="6.06681">
        <ele>249</ele>
        <time>2015-09-10T12:09:06.000Z</time>
      </trkpt>
      <trkpt lat="47.72921" lon="6.06688">
        <ele>250</ele>
        <time>2015-09-10T12:09:10.000Z</time>
      </trkpt>
      <trkpt lat="47.72931" lon="6.06703">
        <ele>249</ele>
        <time>2015-09-10T12:09:18.000Z</time>
      </trkpt>
      <trkpt lat="47.72945" lon="6.06721">
        <ele>249</ele>
        <time>2015-09-10T12:09:25.000Z</time>
      </trkpt>
      <trkpt lat="47.72956" lon="6.06727">
        <ele>249</ele>
        <time>2015-09-10T12:09:30.000Z</time>
      </trkpt>
      <trkpt lat="47.7297" lon="6.06739">
        <ele>248</ele>
        <time>2015-09-10T12:09:38.000Z</time>
      </trkpt>
      <trkpt lat="47.72983" lon="6.06761">
        <ele>247</ele>
        <time>2015-09-10T12:09:43.000Z</time>
      </trkpt>
      <trkpt lat="47.73" lon="6.06761">
        <ele>247</ele>
        <time>2015-09-10T12:09:47.000Z</time>
      </trkpt>
      <trkpt lat="47.73028" lon="6.06766">
        <ele>247</ele>
        <time>2015-09-10T12:09:53.000Z</time>
      </trkpt>
      <trkpt lat="47.73064" lon="6.06771">
        <ele>247</ele>
        <time>2015-09-10T12:10:01.000Z</time>
      </trkpt>
      <trkpt lat="47.73076" lon="6.06784">
        <ele>247</ele>
        <time>2015-09-10T12:10:05.000Z</time>
      </trkpt>
      <trkpt lat="47.73095" lon="6.0682">
        <ele>250</ele>
        <time>2015-09-10T12:10:13.000Z</time>
      </trkpt>
      <trkpt lat="47.73104" lon="6.06845">
        <ele>250</ele>
        <time>2015-09-10T12:10:18.000Z</time>
      </trkpt>
      <trkpt lat="47.73105" lon="6.06851">
        <ele>251</ele>
        <time>2015-09-10T12:10:19.000Z</time>
      </trkpt>
      <trkpt lat="47.73106" lon="6.06857">
        <ele>251</ele>
        <time>2015-09-10T12:10:20.000Z</time>
      </trkpt>
      <trkpt lat="47.73107" lon="6.06863">
        <ele>251</ele>
        <time>2015-09-10T12:10:21.000Z</time>
      </trkpt>
      <trkpt lat="47.73108" lon="6.06869">
        <ele>251</ele>
        <time>2015-09-10T12:10:22.000Z</time>
      </trkpt>
      <trkpt lat="47.73112" lon="6.06903">
        <ele>251</ele>
        <time>2015-09-10T12:10:28.000Z</time>
      </trkpt>
      <trkpt lat="47.7311" lon="6.06944">
        <ele>251</ele>
        <time>2015-09-10T12:10:36.000Z</time>
      </trkpt>
      <trkpt lat="47.73099" lon="6.06966">
        <ele>251</ele>
        <time>2015-09-10T12:10:41.000Z</time>
      </trkpt>
      <trkpt lat="47.73088" lon="6.06998">
        <ele>251</ele>
        <time>2015-09-10T12:10:48.000Z</time>
      </trkpt>
      <trkpt lat="47.7308" lon="6.07026">
        <ele>251</ele>
        <time>2015-09-10T12:10:55.000Z</time>
      </trkpt>
      <trkpt lat="47.7308" lon="6.07029">
        <ele>251</ele>
        <time>2015-09-10T12:10:56.000Z</time>
      </trkpt>
      <trkpt lat="47.73079" lon="6.07033">
        <ele>251</ele>
        <time>2015-09-10T12:10:57.000Z</time>
      </trkpt>
      <trkpt lat="47.73078" lon="6.07037">
        <ele>251</ele>
        <time>2015-09-10T12:10:58.000Z</time>
      </trkpt>
      <trkpt lat="47.73077" lon="6.07041">
        <ele>251</ele>
        <time>2015-09-10T12:10:59.000Z</time>
      </trkpt>
      <trkpt lat="47.73074" lon="6.07057">
        <ele>251</ele>
        <time>2015-09-10T12:11:03.000Z</time>
      </trkpt>
      <trkpt lat="47.73069" lon="6.07091">
        <ele>252</ele>
        <time>2015-09-10T12:11:11.000Z</time>
      </trkpt>
      <trkpt lat="47.73064" lon="6.07121">
        <ele>252</ele>
        <time>2015-09-10T12:11:17.000Z</time>
      </trkpt>
      <trkpt lat="47.73063" lon="6.07127">
        <ele>252</ele>
        <time>2015-09-10T12:11:18.000Z</time>
      </trkpt>
      <trkpt lat="47.73052" lon="6.07174">
        <ele>254</ele>
        <time>2015-09-10T12:11:26.000Z</time>
      </trkpt>
      <trkpt lat="47.73044" lon="6.07215">
        <ele>255</ele>
        <time>2015-09-10T12:11:32.000Z</time>
      </trkpt>
      <trkpt lat="47.73035" lon="6.07249">
        <ele>256</ele>
        <time>2015-09-10T12:11:38.000Z</time>
      </trkpt>
      <trkpt lat="47.73026" lon="6.07268">
        <ele>259</ele>
        <time>2015-09-10T12:11:43.000Z</time>
      </trkpt>
      <trkpt lat="47.73015" lon="6.07296">
        <ele>259</ele>
        <time>2015-09-10T12:11:50.000Z</time>
      </trkpt>
      <trkpt lat="47.73006" lon="6.07329">
        <ele>260</ele>
        <time>2015-09-10T12:11:57.000Z</time>
      </trkpt>
      <trkpt lat="47.73001" lon="6.07361">
        <ele>261</ele>
        <time>2015-09-10T12:12:03.000Z</time>
      </trkpt>
      <trkpt lat="47.73004" lon="6.07372">
        <ele>262</ele>
        <time>2015-09-10T12:12:05.000Z</time>
      </trkpt>
      <trkpt lat="47.73006" lon="6.07376">
        <ele>262</ele>
        <time>2015-09-10T12:12:06.000Z</time>
      </trkpt>
      <trkpt lat="47.73009" lon="6.0738">
        <ele>262</ele>
        <time>2015-09-10T12:12:07.000Z</time>
      </trkpt>
      <trkpt lat="47.73012" lon="6.07385">
        <ele>262</ele>
        <time>2015-09-10T12:12:08.000Z</time>
      </trkpt>
      <trkpt lat="47.73027" lon="6.0741">
        <ele>262</ele>
        <time>2015-09-10T12:12:14.000Z</time>
      </trkpt>
      <trkpt lat="47.73028" lon="6.07414">
        <ele>262</ele>
        <time>2015-09-10T12:12:15.000Z</time>
      </trkpt>
      <trkpt lat="47.7303" lon="6.07417">
        <ele>263</ele>
        <time>2015-09-10T12:12:16.000Z</time>
      </trkpt>
      <trkpt lat="47.73032" lon="6.07421">
        <ele>263</ele>
        <time>2015-09-10T12:12:17.000Z</time>
      </trkpt>
      <trkpt lat="47.73034" lon="6.07424">
        <ele>263</ele>
        <time>2015-09-10T12:12:18.000Z</time>
      </trkpt>
      <trkpt lat="47.73039" lon="6.07432">
        <ele>263</ele>
        <time>2015-09-10T12:12:21.000Z</time>
      </trkpt>
      <trkpt lat="47.73049" lon="6.07446">
        <ele>264</ele>
        <time>2015-09-10T12:12:27.000Z</time>
      </trkpt>
      <trkpt lat="47.73059" lon="6.07461">
        <ele>264</ele>
        <time>2015-09-10T12:12:33.000Z</time>
      </trkpt>
      <trkpt lat="47.73061" lon="6.07464">
        <ele>264</ele>
        <time>2015-09-10T12:12:34.000Z</time>
      </trkpt>
      <trkpt lat="47.73063" lon="6.07466">
        <ele>264</ele>
        <time>2015-09-10T12:12:35.000Z</time>
      </trkpt>
      <trkpt lat="47.73064" lon="6.07469">
        <ele>264</ele>
        <time>2015-09-10T12:12:36.000Z</time>
      </trkpt>
      <trkpt lat="47.73066" lon="6.07472">
        <ele>264</ele>
        <time>2015-09-10T12:12:37.000Z</time>
      </trkpt>
      <trkpt lat="47.73071" lon="6.07479">
        <ele>264</ele>
        <time>2015-09-10T12:12:40.000Z</time>
      </trkpt>
      <trkpt lat="47.73082" lon="6.07496">
        <ele>264</ele>
        <time>2015-09-10T12:12:46.000Z</time>
      </trkpt>
      <trkpt lat="47.73089" lon="6.07508">
        <ele>264</ele>
        <time>2015-09-10T12:12:51.000Z</time>
      </trkpt>
      <trkpt lat="47.73091" lon="6.07511">
        <ele>264</ele>
        <time>2015-09-10T12:12:52.000Z</time>
      </trkpt>
      <trkpt lat="47.73093" lon="6.07513">
        <ele>264</ele>
        <time>2015-09-10T12:12:53.000Z</time>
      </trkpt>
      <trkpt lat="47.73094" lon="6.07515">
        <ele>264</ele>
        <time>2015-09-10T12:12:54.000Z</time>
      </trkpt>
      <trkpt lat="47.73096" lon="6.07517">
        <ele>264</ele>
        <time>2015-09-10T12:12:55.000Z</time>
      </trkpt>
      <trkpt lat="47.73104" lon="6.07526">
        <ele>264</ele>
        <time>2015-09-10T12:13:00.000Z</time>
      </trkpt>
      <trkpt lat="47.73116" lon="6.0754">
        <ele>264</ele>
        <time>2015-09-10T12:13:06.000Z</time>
      </trkpt>
      <trkpt lat="47.73118" lon="6.07541">
        <ele>264</ele>
        <time>2015-09-10T12:13:07.000Z</time>
      </trkpt>
      <trkpt lat="47.7312" lon="6.07543">
        <ele>264</ele>
        <time>2015-09-10T12:13:08.000Z</time>
      </trkpt>
      <trkpt lat="47.73122" lon="6.07545">
        <ele>264</ele>
        <time>2015-09-10T12:13:09.000Z</time>
      </trkpt>
      <trkpt lat="47.73124" lon="6.07547">
        <ele>264</ele>
        <time>2015-09-10T12:13:10.000Z</time>
      </trkpt>
      <trkpt lat="47.73126" lon="6.07548">
        <ele>264</ele>
        <time>2015-09-10T12:13:11.000Z</time>
      </trkpt>
      <trkpt lat="47.73132" lon="6.07554">
        <ele>264</ele>
        <time>2015-09-10T12:13:14.000Z</time>
      </trkpt>
      <trkpt lat="47.73148" lon="6.07572">
        <ele>264</ele>
        <time>2015-09-10T12:13:22.000Z</time>
      </trkpt>
      <trkpt lat="47.7315" lon="6.07574">
        <ele>264</ele>
        <time>2015-09-10T12:13:23.000Z</time>
      </trkpt>
      <trkpt lat="47.73152" lon="6.07576">
        <ele>264</ele>
        <time>2015-09-10T12:13:24.000Z</time>
      </trkpt>
      <trkpt lat="47.73154" lon="6.07579">
        <ele>264</ele>
        <time>2015-09-10T12:13:25.000Z</time>
      </trkpt>
      <trkpt lat="47.73165" lon="6.07594">
        <ele>266</ele>
        <time>2015-09-10T12:13:30.000Z</time>
      </trkpt>
      <trkpt lat="47.73179" lon="6.07607">
        <ele>265</ele>
        <time>2015-09-10T12:13:37.000Z</time>
      </trkpt>
      <trkpt lat="47.73184" lon="6.07611">
        <ele>265</ele>
        <time>2015-09-10T12:13:39.000Z</time>
      </trkpt>
      <trkpt lat="47.73186" lon="6.07614">
        <ele>265</ele>
        <time>2015-09-10T12:13:40.000Z</time>
      </trkpt>
      <trkpt lat="47.73188" lon="6.07617">
        <ele>265</ele>
        <time>2015-09-10T12:13:41.000Z</time>
      </trkpt>
      <trkpt lat="47.7319" lon="6.0762">
        <ele>266</ele>
        <time>2015-09-10T12:13:42.000Z</time>
      </trkpt>
      <trkpt lat="47.73193" lon="6.07622">
        <ele>266</ele>
        <time>2015-09-10T12:13:43.000Z</time>
      </trkpt>
      <trkpt lat="47.73206" lon="6.07637">
        <ele>266</ele>
        <time>2015-09-10T12:13:49.000Z</time>
      </trkpt>
      <trkpt lat="47.73226" lon="6.0766">
        <ele>265</ele>
        <time>2015-09-10T12:13:58.000Z</time>
      </trkpt>
      <trkpt lat="47.73234" lon="6.07671">
        <ele>266</ele>
        <time>2015-09-10T12:14:03.000Z</time>
      </trkpt>
      <trkpt lat="47.73236" lon="6.07673">
        <ele>266</ele>
        <time>2015-09-10T12:14:04.000Z</time>
      </trkpt>
      <trkpt lat="47.73237" lon="6.07677">
        <ele>266</ele>
        <time>2015-09-10T12:14:05.000Z</time>
      </trkpt>
      <trkpt lat="47.73237" lon="6.0768">
        <ele>266</ele>
        <time>2015-09-10T12:14:06.000Z</time>
      </trkpt>
      <trkpt lat="47.73237" lon="6.07683">
        <ele>266</ele>
        <time>2015-09-10T12:14:07.000Z</time>
      </trkpt>
      <trkpt lat="47.73237" lon="6.07688">
        <ele>266</ele>
        <time>2015-09-10T12:14:09.000Z</time>
      </trkpt>
      <trkpt lat="47.73237" lon="6.07688">
        <ele>266</ele>
        <time>2015-09-10T12:14:10.000Z</time>
      </trkpt>
      <trkpt lat="47.73235" lon="6.0769">
        <ele>266</ele>
        <time>2015-09-10T12:14:52.000Z</time>
      </trkpt>
      <trkpt lat="47.73234" lon="6.07692">
        <ele>266</ele>
        <time>2015-09-10T12:14:53.000Z</time>
      </trkpt>
      <trkpt lat="47.73222" lon="6.07706">
        <ele>267</ele>
        <time>2015-09-10T12:14:58.000Z</time>
      </trkpt>
      <trkpt lat="47.73205" lon="6.07732">
        <ele>268</ele>
        <time>2015-09-10T12:15:06.000Z</time>
      </trkpt>
      <trkpt lat="47.73193" lon="6.07757">
        <ele>267</ele>
        <time>2015-09-10T12:15:11.000Z</time>
      </trkpt>
      <trkpt lat="47.73191" lon="6.07761">
        <ele>267</ele>
        <time>2015-09-10T12:15:12.000Z</time>
      </trkpt>
      <trkpt lat="47.73186" lon="6.07771">
        <ele>267</ele>
        <time>2015-09-10T12:15:14.000Z</time>
      </trkpt>
      <trkpt lat="47.73176" lon="6.07793">
        <ele>266</ele>
        <time>2015-09-10T12:15:18.000Z</time>
      </trkpt>
      <trkpt lat="47.73173" lon="6.07799">
        <ele>265</ele>
        <time>2015-09-10T12:15:19.000Z</time>
      </trkpt>
      <trkpt lat="47.7317" lon="6.07806">
        <ele>265</ele>
        <time>2015-09-10T12:15:20.000Z</time>
      </trkpt>
      <trkpt lat="47.73167" lon="6.07814">
        <ele>265</ele>
        <time>2015-09-10T12:15:21.000Z</time>
      </trkpt>
      <trkpt lat="47.73164" lon="6.07821">
        <ele>264</ele>
        <time>2015-09-10T12:15:22.000Z</time>
      </trkpt>
      <trkpt lat="47.73155" lon="6.07844">
        <ele>262</ele>
        <time>2015-09-10T12:15:25.000Z</time>
      </trkpt>
      <trkpt lat="47.73149" lon="6.07859">
        <ele>261</ele>
        <time>2015-09-10T12:15:27.000Z</time>
      </trkpt>
      <trkpt lat="47.73146" lon="6.07867">
        <ele>261</ele>
        <time>2015-09-10T12:15:28.000Z</time>
      </trkpt>
      <trkpt lat="47.73143" lon="6.07874">
        <ele>260</ele>
        <time>2015-09-10T12:15:29.000Z</time>
      </trkpt>
      <trkpt lat="47.7314" lon="6.07881">
        <ele>260</ele>
        <time>2015-09-10T12:15:30.000Z</time>
      </trkpt>
      <trkpt lat="47.73137" lon="6.07889">
        <ele>260</ele>
        <time>2015-09-10T12:15:31.000Z</time>
      </trkpt>
      <trkpt lat="47.73134" lon="6.07896">
        <ele>260</ele>
        <time>2015-09-10T12:15:32.000Z</time>
      </trkpt>
      <trkpt lat="47.73122" lon="6.07928">
        <ele>259</ele>
        <time>2015-09-10T12:15:38.000Z</time>
      </trkpt>
      <trkpt lat="47.73114" lon="6.07945">
        <ele>259</ele>
        <time>2015-09-10T12:15:43.000Z</time>
      </trkpt>
      <trkpt lat="47.73102" lon="6.07974">
        <ele>259</ele>
        <time>2015-09-10T12:15:50.000Z</time>
      </trkpt>
      <trkpt lat="47.7309" lon="6.08004">
        <ele>259</ele>
        <time>2015-09-10T12:15:57.000Z</time>
      </trkpt>
      <trkpt lat="47.73083" lon="6.08029">
        <ele>259</ele>
        <time>2015-09-10T12:16:03.000Z</time>
      </trkpt>
      <trkpt lat="47.73076" lon="6.08059">
        <ele>259</ele>
        <time>2015-09-10T12:16:11.000Z</time>
      </trkpt>
      <trkpt lat="47.7307" lon="6.08085">
        <ele>259</ele>
        <time>2015-09-10T12:16:18.000Z</time>
      </trkpt>
      <trkpt lat="47.73068" lon="6.08101">
        <ele>260</ele>
        <time>2015-09-10T12:16:22.000Z</time>
      </trkpt>
      <trkpt lat="47.73065" lon="6.08111">
        <ele>260</ele>
        <time>2015-09-10T12:16:25.000Z</time>
      </trkpt>
      <trkpt lat="47.73063" lon="6.08123">
        <ele>260</ele>
        <time>2015-09-10T12:16:28.000Z</time>
      </trkpt>
      <trkpt lat="47.73062" lon="6.08126">
        <ele>260</ele>
        <time>2015-09-10T12:16:29.000Z</time>
      </trkpt>
      <trkpt lat="47.73062" lon="6.0813">
        <ele>260</ele>
        <time>2015-09-10T12:16:30.000Z</time>
      </trkpt>
      <trkpt lat="47.73061" lon="6.08134">
        <ele>260</ele>
        <time>2015-09-10T12:16:31.000Z</time>
      </trkpt>
      <trkpt lat="47.73061" lon="6.08137">
        <ele>260</ele>
        <time>2015-09-10T12:16:32.000Z</time>
      </trkpt>
      <trkpt lat="47.7306" lon="6.08143">
        <ele>260</ele>
        <time>2015-09-10T12:16:34.000Z</time>
      </trkpt>
      <trkpt lat="47.73056" lon="6.08167">
        <ele>262</ele>
        <time>2015-09-10T12:16:41.000Z</time>
      </trkpt>
      <trkpt lat="47.73053" lon="6.08196">
        <ele>263</ele>
        <time>2015-09-10T12:16:49.000Z</time>
      </trkpt>
      <trkpt lat="47.73053" lon="6.08202">
        <ele>263</ele>
        <time>2015-09-10T12:16:51.000Z</time>
      </trkpt>
      <trkpt lat="47.73052" lon="6.08204">
        <ele>263</ele>
        <time>2015-09-10T12:16:52.000Z</time>
      </trkpt>
      <trkpt lat="47.73052" lon="6.08207">
        <ele>263</ele>
        <time>2015-09-10T12:16:53.000Z</time>
      </trkpt>
      <trkpt lat="47.73052" lon="6.0821">
        <ele>263</ele>
        <time>2015-09-10T12:16:54.000Z</time>
      </trkpt>
      <trkpt lat="47.73052" lon="6.08212">
        <ele>263</ele>
        <time>2015-09-10T12:16:55.000Z</time>
      </trkpt>
      <trkpt lat="47.73051" lon="6.08219">
        <ele>263</ele>
        <time>2015-09-10T12:16:57.000Z</time>
      </trkpt>
      <trkpt lat="47.73046" lon="6.0824">
        <ele>264</ele>
        <time>2015-09-10T12:17:03.000Z</time>
      </trkpt>
      <trkpt lat="47.73043" lon="6.08257">
        <ele>265</ele>
        <time>2015-09-10T12:17:08.000Z</time>
      </trkpt>
      <trkpt lat="47.73043" lon="6.0826">
        <ele>266</ele>
        <time>2015-09-10T12:17:09.000Z</time>
      </trkpt>
      <trkpt lat="47.73042" lon="6.08263">
        <ele>266</ele>
        <time>2015-09-10T12:17:10.000Z</time>
      </trkpt>
      <trkpt lat="47.73042" lon="6.08265">
        <ele>266</ele>
        <time>2015-09-10T12:17:11.000Z</time>
      </trkpt>
      <trkpt lat="47.73041" lon="6.08268">
        <ele>266</ele>
        <time>2015-09-10T12:17:12.000Z</time>
      </trkpt>
      <trkpt lat="47.7304" lon="6.08277">
        <ele>266</ele>
        <time>2015-09-10T12:17:15.000Z</time>
      </trkpt>
      <trkpt lat="47.73036" lon="6.08305">
        <ele>266</ele>
        <time>2015-09-10T12:17:23.000Z</time>
      </trkpt>
      <trkpt lat="47.73032" lon="6.08329">
        <ele>266</ele>
        <time>2015-09-10T12:17:29.000Z</time>
      </trkpt>
      <trkpt lat="47.7303" lon="6.08345">
        <ele>267</ele>
        <time>2015-09-10T12:17:33.000Z</time>
      </trkpt>
      <trkpt lat="47.73029" lon="6.08354">
        <ele>267</ele>
        <time>2015-09-10T12:17:35.000Z</time>
      </trkpt>
      <trkpt lat="47.73028" lon="6.08391">
        <ele>267</ele>
        <time>2015-09-10T12:17:42.000Z</time>
      </trkpt>
      <trkpt lat="47.73029" lon="6.08417">
        <ele>268</ele>
        <time>2015-09-10T12:17:46.000Z</time>
      </trkpt>
      <trkpt lat="47.73031" lon="6.08432">
        <ele>268</ele>
        <time>2015-09-10T12:17:48.000Z</time>
      </trkpt>
      <trkpt lat="47.73036" lon="6.08467">
        <ele>268</ele>
        <time>2015-09-10T12:17:53.000Z</time>
      </trkpt>
      <trkpt lat="47.73037" lon="6.08474">
        <ele>269</ele>
        <time>2015-09-10T12:17:54.000Z</time>
      </trkpt>
      <trkpt lat="47.73038" lon="6.08481">
        <ele>269</ele>
        <time>2015-09-10T12:17:55.000Z</time>
      </trkpt>
      <trkpt lat="47.7304" lon="6.08489">
        <ele>269</ele>
        <time>2015-09-10T12:17:56.000Z</time>
      </trkpt>
      <trkpt lat="47.73041" lon="6.08497">
        <ele>269</ele>
        <time>2015-09-10T12:17:57.000Z</time>
      </trkpt>
      <trkpt lat="47.73042" lon="6.08526">
        <ele>271</ele>
        <time>2015-09-10T12:18:01.000Z</time>
      </trkpt>
      <trkpt lat="47.73043" lon="6.08556">
        <ele>272</ele>
        <time>2015-09-10T12:18:07.000Z</time>
      </trkpt>
      <trkpt lat="47.73047" lon="6.0858">
        <ele>272</ele>
        <time>2015-09-10T12:18:13.000Z</time>
      </trkpt>
      <trkpt lat="47.7305" lon="6.08597">
        <ele>272</ele>
        <time>2015-09-10T12:18:18.000Z</time>
      </trkpt>
      <trkpt lat="47.7305" lon="6.08629">
        <ele>271</ele>
        <time>2015-09-10T12:18:25.000Z</time>
      </trkpt>
      <trkpt lat="47.73044" lon="6.08654">
        <ele>271</ele>
        <time>2015-09-10T12:18:30.000Z</time>
      </trkpt>
      <trkpt lat="47.7303" lon="6.08673">
        <ele>267</ele>
        <time>2015-09-10T12:18:34.000Z</time>
      </trkpt>
      <trkpt lat="47.73027" lon="6.08679">
        <ele>267</ele>
        <time>2015-09-10T12:18:35.000Z</time>
      </trkpt>
      <trkpt lat="47.73017" lon="6.08702">
        <ele>266</ele>
        <time>2015-09-10T12:18:40.000Z</time>
      </trkpt>
      <trkpt lat="47.73016" lon="6.08706">
        <ele>266</ele>
        <time>2015-09-10T12:18:41.000Z</time>
      </trkpt>
      <trkpt lat="47.73015" lon="6.08712">
        <ele>266</ele>
        <time>2015-09-10T12:18:42.000Z</time>
      </trkpt>
      <trkpt lat="47.73014" lon="6.08717">
        <ele>265</ele>
        <time>2015-09-10T12:18:43.000Z</time>
      </trkpt>
      <trkpt lat="47.73012" lon="6.08731">
        <ele>265</ele>
        <time>2015-09-10T12:18:45.000Z</time>
      </trkpt>
      <trkpt lat="47.73009" lon="6.08769">
        <ele>262</ele>
        <time>2015-09-10T12:18:51.000Z</time>
      </trkpt>
      <trkpt lat="47.73009" lon="6.08774">
        <ele>261</ele>
        <time>2015-09-10T12:18:52.000Z</time>
      </trkpt>
      <trkpt lat="47.73009" lon="6.0878">
        <ele>261</ele>
        <time>2015-09-10T12:18:53.000Z</time>
      </trkpt>
      <trkpt lat="47.73009" lon="6.08786">
        <ele>261</ele>
        <time>2015-09-10T12:18:54.000Z</time>
      </trkpt>
      <trkpt lat="47.73008" lon="6.08792">
        <ele>261</ele>
        <time>2015-09-10T12:18:55.000Z</time>
      </trkpt>
      <trkpt lat="47.73009" lon="6.08798">
        <ele>260</ele>
        <time>2015-09-10T12:18:56.000Z</time>
      </trkpt>
      <trkpt lat="47.73013" lon="6.08815">
        <ele>260</ele>
        <time>2015-09-10T12:19:00.000Z</time>
      </trkpt>
      <trkpt lat="47.73014" lon="6.08832">
        <ele>260</ele>
        <time>2015-09-10T12:19:04.000Z</time>
      </trkpt>
      <trkpt lat="47.73014" lon="6.08837">
        <ele>259</ele>
        <time>2015-09-10T12:19:05.000Z</time>
      </trkpt>
      <trkpt lat="47.73012" lon="6.08844">
        <ele>259</ele>
        <time>2015-09-10T12:19:06.000Z</time>
      </trkpt>
      <trkpt lat="47.7301" lon="6.08854">
        <ele>259</ele>
        <time>2015-09-10T12:19:07.000Z</time>
      </trkpt>
      <trkpt lat="47.73007" lon="6.08879">
        <ele>259</ele>
        <time>2015-09-10T12:19:10.000Z</time>
      </trkpt>
      <trkpt lat="47.73008" lon="6.08887">
        <ele>259</ele>
        <time>2015-09-10T12:19:11.000Z</time>
      </trkpt>
      <trkpt lat="47.73009" lon="6.08895">
        <ele>259</ele>
        <time>2015-09-10T12:19:12.000Z</time>
      </trkpt>
      <trkpt lat="47.73011" lon="6.08901">
        <ele>259</ele>
        <time>2015-09-10T12:19:13.000Z</time>
      </trkpt>
      <trkpt lat="47.73014" lon="6.08908">
        <ele>259</ele>
        <time>2015-09-10T12:19:14.000Z</time>
      </trkpt>
      <trkpt lat="47.73017" lon="6.08915">
        <ele>259</ele>
        <time>2015-09-10T12:19:15.000Z</time>
      </trkpt>
      <trkpt lat="47.73029" lon="6.08936">
        <ele>260</ele>
        <time>2015-09-10T12:19:19.000Z</time>
      </trkpt>
      <trkpt lat="47.73033" lon="6.08941">
        <ele>260</ele>
        <time>2015-09-10T12:19:20.000Z</time>
      </trkpt>
      <trkpt lat="47.73045" lon="6.08963">
        <ele>260</ele>
        <time>2015-09-10T12:19:25.000Z</time>
      </trkpt>
      <trkpt lat="47.73051" lon="6.08974">
        <ele>260</ele>
        <time>2015-09-10T12:19:28.000Z</time>
      </trkpt>
      <trkpt lat="47.73053" lon="6.08978">
        <ele>260</ele>
        <time>2015-09-10T12:19:29.000Z</time>
      </trkpt>
      <trkpt lat="47.73055" lon="6.08983">
        <ele>260</ele>
        <time>2015-09-10T12:19:30.000Z</time>
      </trkpt>
      <trkpt lat="47.73057" lon="6.08986">
        <ele>260</ele>
        <time>2015-09-10T12:19:31.000Z</time>
      </trkpt>
      <trkpt lat="47.73059" lon="6.0899">
        <ele>260</ele>
        <time>2015-09-10T12:19:32.000Z</time>
      </trkpt>
      <trkpt lat="47.73072" lon="6.09013">
        <ele>260</ele>
        <time>2015-09-10T12:19:39.000Z</time>
      </trkpt>
      <trkpt lat="47.7308" lon="6.09025">
        <ele>260</ele>
        <time>2015-09-10T12:19:43.000Z</time>
      </trkpt>
      <trkpt lat="47.73082" lon="6.09027">
        <ele>260</ele>
        <time>2015-09-10T12:19:44.000Z</time>
      </trkpt>
      <trkpt lat="47.73085" lon="6.0903">
        <ele>260</ele>
        <time>2015-09-10T12:19:45.000Z</time>
      </trkpt>
      <trkpt lat="47.73087" lon="6.09033">
        <ele>260</ele>
        <time>2015-09-10T12:19:46.000Z</time>
      </trkpt>
      <trkpt lat="47.73089" lon="6.09035">
        <ele>260</ele>
        <time>2015-09-10T12:19:47.000Z</time>
      </trkpt>
      <trkpt lat="47.73103" lon="6.09051">
        <ele>259</ele>
        <time>2015-09-10T12:19:53.000Z</time>
      </trkpt>
      <trkpt lat="47.73119" lon="6.09065">
        <ele>259</ele>
        <time>2015-09-10T12:20:00.000Z</time>
      </trkpt>
      <trkpt lat="47.73135" lon="6.09081">
        <ele>259</ele>
        <time>2015-09-10T12:20:06.000Z</time>
      </trkpt>
      <trkpt lat="47.73153" lon="6.09089">
        <ele>257</ele>
        <time>2015-09-10T12:20:12.000Z</time>
      </trkpt>
      <trkpt lat="47.7317" lon="6.09097">
        <ele>257</ele>
        <time>2015-09-10T12:20:16.000Z</time>
      </trkpt>
      <trkpt lat="47.73175" lon="6.09101">
        <ele>256</ele>
        <time>2015-09-10T12:20:17.000Z</time>
      </trkpt>
      <trkpt lat="47.73178" lon="6.09106">
        <ele>256</ele>
        <time>2015-09-10T12:20:18.000Z</time>
      </trkpt>
      <trkpt lat="47.73182" lon="6.09112">
        <ele>256</ele>
        <time>2015-09-10T12:20:19.000Z</time>
      </trkpt>
      <trkpt lat="47.73186" lon="6.09119">
        <ele>256</ele>
        <time>2015-09-10T12:20:20.000Z</time>
      </trkpt>
      <trkpt lat="47.73188" lon="6.09126">
        <ele>255</ele>
        <time>2015-09-10T12:20:21.000Z</time>
      </trkpt>
      <trkpt lat="47.73192" lon="6.09142">
        <ele>255</ele>
        <time>2015-09-10T12:20:23.000Z</time>
      </trkpt>
      <trkpt lat="47.73196" lon="6.09156">
        <ele>255</ele>
        <time>2015-09-10T12:20:25.000Z</time>
      </trkpt>
      <trkpt lat="47.73199" lon="6.09161">
        <ele>255</ele>
        <time>2015-09-10T12:20:26.000Z</time>
      </trkpt>
      <trkpt lat="47.732" lon="6.09165">
        <ele>255</ele>
        <time>2015-09-10T12:20:27.000Z</time>
      </trkpt>
      <trkpt lat="47.73202" lon="6.09167">
        <ele>255</ele>
        <time>2015-09-10T12:20:28.000Z</time>
      </trkpt>
      <trkpt lat="47.73203" lon="6.09169">
        <ele>255</ele>
        <time>2015-09-10T12:20:29.000Z</time>
      </trkpt>
      <trkpt lat="47.73205" lon="6.09171">
        <ele>255</ele>
        <time>2015-09-10T12:20:30.000Z</time>
      </trkpt>
      <trkpt lat="47.73207" lon="6.09171">
        <ele>255</ele>
        <time>2015-09-10T12:20:32.000Z</time>
      </trkpt>
      <trkpt lat="47.7321" lon="6.09176">
        <ele>256</ele>
        <time>2015-09-10T12:21:28.000Z</time>
      </trkpt>
      <trkpt lat="47.73211" lon="6.09177">
        <ele>256</ele>
        <time>2015-09-10T12:21:29.000Z</time>
      </trkpt>
      <trkpt lat="47.73223" lon="6.09185">
        <ele>256</ele>
        <time>2015-09-10T12:21:33.000Z</time>
      </trkpt>
      <trkpt lat="47.73237" lon="6.09192">
        <ele>256</ele>
        <time>2015-09-10T12:21:38.000Z</time>
      </trkpt>
      <trkpt lat="47.73256" lon="6.09197">
        <ele>255</ele>
        <time>2015-09-10T12:21:44.000Z</time>
      </trkpt>
      <trkpt lat="47.7326" lon="6.09198">
        <ele>255</ele>
        <time>2015-09-10T12:21:45.000Z</time>
      </trkpt>
      <trkpt lat="47.73263" lon="6.09199">
        <ele>255</ele>
        <time>2015-09-10T12:21:46.000Z</time>
      </trkpt>
      <trkpt lat="47.73266" lon="6.09201">
        <ele>255</ele>
        <time>2015-09-10T12:21:47.000Z</time>
      </trkpt>
      <trkpt lat="47.7327" lon="6.09202">
        <ele>255</ele>
        <time>2015-09-10T12:21:48.000Z</time>
      </trkpt>
      <trkpt lat="47.73272" lon="6.09204">
        <ele>255</ele>
        <time>2015-09-10T12:21:49.000Z</time>
      </trkpt>
      <trkpt lat="47.73276" lon="6.09206">
        <ele>255</ele>
        <time>2015-09-10T12:21:50.000Z</time>
      </trkpt>
      <trkpt lat="47.73292" lon="6.09215">
        <ele>255</ele>
        <time>2015-09-10T12:21:54.000Z</time>
      </trkpt>
      <trkpt lat="47.733" lon="6.09224">
        <ele>255</ele>
        <time>2015-09-10T12:21:56.000Z</time>
      </trkpt>
      <trkpt lat="47.73316" lon="6.09239">
        <ele>255</ele>
        <time>2015-09-10T12:21:59.000Z</time>
      </trkpt>
      <trkpt lat="47.73321" lon="6.09244">
        <ele>254</ele>
        <time>2015-09-10T12:22:00.000Z</time>
      </trkpt>
      <trkpt lat="47.73326" lon="6.0925">
        <ele>255</ele>
        <time>2015-09-10T12:22:01.000Z</time>
      </trkpt>
      <trkpt lat="47.73332" lon="6.09257">
        <ele>255</ele>
        <time>2015-09-10T12:22:02.000Z</time>
      </trkpt>
      <trkpt lat="47.73337" lon="6.09263">
        <ele>252</ele>
        <time>2015-09-10T12:22:03.000Z</time>
      </trkpt>
      <trkpt lat="47.73342" lon="6.09269">
        <ele>251</ele>
        <time>2015-09-10T12:22:04.000Z</time>
      </trkpt>
      <trkpt lat="47.73348" lon="6.09275">
        <ele>251</ele>
        <time>2015-09-10T12:22:05.000Z</time>
      </trkpt>
      <trkpt lat="47.73354" lon="6.09281">
        <ele>250</ele>
        <time>2015-09-10T12:22:06.000Z</time>
      </trkpt>
      <trkpt lat="47.7336" lon="6.09287">
        <ele>250</ele>
        <time>2015-09-10T12:22:07.000Z</time>
      </trkpt>
      <trkpt lat="47.73366" lon="6.09294">
        <ele>250</ele>
        <time>2015-09-10T12:22:08.000Z</time>
      </trkpt>
      <trkpt lat="47.73372" lon="6.09301">
        <ele>249</ele>
        <time>2015-09-10T12:22:09.000Z</time>
      </trkpt>
      <trkpt lat="47.73378" lon="6.09309">
        <ele>249</ele>
        <time>2015-09-10T12:22:10.000Z</time>
      </trkpt>
      <trkpt lat="47.73384" lon="6.09315">
        <ele>248</ele>
        <time>2015-09-10T12:22:11.000Z</time>
      </trkpt>
      <trkpt lat="47.73389" lon="6.09321">
        <ele>248</ele>
        <time>2015-09-10T12:22:12.000Z</time>
      </trkpt>
      <trkpt lat="47.73394" lon="6.09327">
        <ele>247</ele>
        <time>2015-09-10T12:22:13.000Z</time>
      </trkpt>
      <trkpt lat="47.73399" lon="6.09333">
        <ele>246</ele>
        <time>2015-09-10T12:22:14.000Z</time>
      </trkpt>
      <trkpt lat="47.73404" lon="6.09339">
        <ele>246</ele>
        <time>2015-09-10T12:22:15.000Z</time>
      </trkpt>
      <trkpt lat="47.73409" lon="6.09344">
        <ele>246</ele>
        <time>2015-09-10T12:22:16.000Z</time>
      </trkpt>
      <trkpt lat="47.73414" lon="6.09347">
        <ele>246</ele>
        <time>2015-09-10T12:22:17.000Z</time>
      </trkpt>
      <trkpt lat="47.7342" lon="6.09347">
        <ele>243</ele>
        <time>2015-09-10T12:22:18.000Z</time>
      </trkpt>
      <trkpt lat="47.73427" lon="6.09346">
        <ele>243</ele>
        <time>2015-09-10T12:22:19.000Z</time>
      </trkpt>
      <trkpt lat="47.73434" lon="6.09343">
        <ele>243</ele>
        <time>2015-09-10T12:22:20.000Z</time>
      </trkpt>
      <trkpt lat="47.73441" lon="6.09341">
        <ele>243</ele>
        <time>2015-09-10T12:22:21.000Z</time>
      </trkpt>
      <trkpt lat="47.73449" lon="6.09339">
        <ele>243</ele>
        <time>2015-09-10T12:22:22.000Z</time>
      </trkpt>
      <trkpt lat="47.73457" lon="6.09338">
        <ele>243</ele>
        <time>2015-09-10T12:22:23.000Z</time>
      </trkpt>
      <trkpt lat="47.73466" lon="6.0934">
        <ele>242</ele>
        <time>2015-09-10T12:22:24.000Z</time>
      </trkpt>
      <trkpt lat="47.73473" lon="6.09342">
        <ele>242</ele>
        <time>2015-09-10T12:22:25.000Z</time>
      </trkpt>
      <trkpt lat="47.735" lon="6.09349">
        <ele>244</ele>
        <time>2015-09-10T12:22:29.000Z</time>
      </trkpt>
      <trkpt lat="47.73506" lon="6.09354">
        <ele>245</ele>
        <time>2015-09-10T12:22:30.000Z</time>
      </trkpt>
      <trkpt lat="47.7352" lon="6.09366">
        <ele>246</ele>
        <time>2015-09-10T12:22:33.000Z</time>
      </trkpt>
      <trkpt lat="47.73535" lon="6.09381">
        <ele>247</ele>
        <time>2015-09-10T12:22:38.000Z</time>
      </trkpt>
      <trkpt lat="47.73537" lon="6.09384">
        <ele>247</ele>
        <time>2015-09-10T12:22:39.000Z</time>
      </trkpt>
      <trkpt lat="47.7354" lon="6.09387">
        <ele>247</ele>
        <time>2015-09-10T12:22:40.000Z</time>
      </trkpt>
      <trkpt lat="47.73542" lon="6.0939">
        <ele>247</ele>
        <time>2015-09-10T12:22:41.000Z</time>
      </trkpt>
      <trkpt lat="47.73545" lon="6.09393">
        <ele>248</ele>
        <time>2015-09-10T12:22:42.000Z</time>
      </trkpt>
      <trkpt lat="47.73549" lon="6.09399">
        <ele>248</ele>
        <time>2015-09-10T12:22:44.000Z</time>
      </trkpt>
      <trkpt lat="47.7355" lon="6.09402">
        <ele>248</ele>
        <time>2015-09-10T12:22:45.000Z</time>
      </trkpt>
      <trkpt lat="47.73552" lon="6.09404">
        <ele>248</ele>
        <time>2015-09-10T12:22:46.000Z</time>
      </trkpt>
      <trkpt lat="47.73554" lon="6.09406">
        <ele>248</ele>
        <time>2015-09-10T12:22:47.000Z</time>
      </trkpt>
      <trkpt lat="47.73555" lon="6.09409">
        <ele>248</ele>
        <time>2015-09-10T12:22:48.000Z</time>
      </trkpt>
      <trkpt lat="47.73557" lon="6.09415">
        <ele>249</ele>
        <time>2015-09-10T12:22:51.000Z</time>
      </trkpt>
      <trkpt lat="47.73559" lon="6.09418">
        <ele>250</ele>
        <time>2015-09-10T12:22:52.000Z</time>
      </trkpt>
      <trkpt lat="47.7356" lon="6.0942">
        <ele>250</ele>
        <time>2015-09-10T12:22:53.000Z</time>
      </trkpt>
      <trkpt lat="47.73561" lon="6.09423">
        <ele>250</ele>
        <time>2015-09-10T12:22:54.000Z</time>
      </trkpt>
      <trkpt lat="47.73562" lon="6.09426">
        <ele>250</ele>
        <time>2015-09-10T12:22:55.000Z</time>
      </trkpt>
      <trkpt lat="47.73566" lon="6.09433">
        <ele>250</ele>
        <time>2015-09-10T12:22:58.000Z</time>
      </trkpt>
      <trkpt lat="47.73574" lon="6.09447">
        <ele>250</ele>
        <time>2015-09-10T12:23:03.000Z</time>
      </trkpt>
      <trkpt lat="47.73576" lon="6.09449">
        <ele>250</ele>
        <time>2015-09-10T12:23:04.000Z</time>
      </trkpt>
      <trkpt lat="47.73578" lon="6.09452">
        <ele>250</ele>
        <time>2015-09-10T12:23:05.000Z</time>
      </trkpt>
      <trkpt lat="47.7358" lon="6.09454">
        <ele>250</ele>
        <time>2015-09-10T12:23:06.000Z</time>
      </trkpt>
      <trkpt lat="47.73583" lon="6.09457">
        <ele>250</ele>
        <time>2015-09-10T12:23:07.000Z</time>
      </trkpt>
      <trkpt lat="47.73588" lon="6.09462">
        <ele>253</ele>
        <time>2015-09-10T12:23:09.000Z</time>
      </trkpt>
      <trkpt lat="47.73595" lon="6.0947">
        <ele>253</ele>
        <time>2015-09-10T12:23:13.000Z</time>
      </trkpt>
      <trkpt lat="47.73597" lon="6.09472">
        <ele>253</ele>
        <time>2015-09-10T12:23:14.000Z</time>
      </trkpt>
      <trkpt lat="47.73598" lon="6.09475">
        <ele>253</ele>
        <time>2015-09-10T12:23:15.000Z</time>
      </trkpt>
      <trkpt lat="47.736" lon="6.09477">
        <ele>253</ele>
        <time>2015-09-10T12:23:16.000Z</time>
      </trkpt>
      <trkpt lat="47.73602" lon="6.09479">
        <ele>253</ele>
        <time>2015-09-10T12:23:17.000Z</time>
      </trkpt>
      <trkpt lat="47.73612" lon="6.09495">
        <ele>253</ele>
        <time>2015-09-10T12:23:22.000Z</time>
      </trkpt>
      <trkpt lat="47.73628" lon="6.09525">
        <ele>253</ele>
        <time>2015-09-10T12:23:30.000Z</time>
      </trkpt>
      <trkpt lat="47.73646" lon="6.09555">
        <ele>253</ele>
        <time>2015-09-10T12:23:38.000Z</time>
      </trkpt>
      <trkpt lat="47.73664" lon="6.09588">
        <ele>252</ele>
        <time>2015-09-10T12:23:46.000Z</time>
      </trkpt>
      <trkpt lat="47.73671" lon="6.09601">
        <ele>253</ele>
        <time>2015-09-10T12:23:49.000Z</time>
      </trkpt>
      <trkpt lat="47.73673" lon="6.09605">
        <ele>253</ele>
        <time>2015-09-10T12:23:50.000Z</time>
      </trkpt>
      <trkpt lat="47.73675" lon="6.09609">
        <ele>253</ele>
        <time>2015-09-10T12:23:51.000Z</time>
      </trkpt>
      <trkpt lat="47.73677" lon="6.09613">
        <ele>253</ele>
        <time>2015-09-10T12:23:52.000Z</time>
      </trkpt>
      <trkpt lat="47.73679" lon="6.09617">
        <ele>253</ele>
        <time>2015-09-10T12:23:53.000Z</time>
      </trkpt>
      <trkpt lat="47.73687" lon="6.09634">
        <ele>254</ele>
        <time>2015-09-10T12:23:57.000Z</time>
      </trkpt>
      <trkpt lat="47.737" lon="6.09658">
        <ele>254</ele>
        <time>2015-09-10T12:24:03.000Z</time>
      </trkpt>
      <trkpt lat="47.73706" lon="6.09669">
        <ele>255</ele>
        <time>2015-09-10T12:24:06.000Z</time>
      </trkpt>
      <trkpt lat="47.73708" lon="6.09674">
        <ele>254</ele>
        <time>2015-09-10T12:24:07.000Z</time>
      </trkpt>
      <trkpt lat="47.7371" lon="6.09677">
        <ele>254</ele>
        <time>2015-09-10T12:24:08.000Z</time>
      </trkpt>
      <trkpt lat="47.73713" lon="6.09681">
        <ele>254</ele>
        <time>2015-09-10T12:24:09.000Z</time>
      </trkpt>
      <trkpt lat="47.73715" lon="6.09685">
        <ele>254</ele>
        <time>2015-09-10T12:24:10.000Z</time>
      </trkpt>
      <trkpt lat="47.73732" lon="6.09719">
        <ele>254</ele>
        <time>2015-09-10T12:24:18.000Z</time>
      </trkpt>
      <trkpt lat="47.73746" lon="6.09745">
        <ele>253</ele>
        <time>2015-09-10T12:24:25.000Z</time>
      </trkpt>
      <trkpt lat="47.73755" lon="6.09764">
        <ele>254</ele>
        <time>2015-09-10T12:24:30.000Z</time>
      </trkpt>
      <trkpt lat="47.73757" lon="6.09768">
        <ele>254</ele>
        <time>2015-09-10T12:24:31.000Z</time>
      </trkpt>
      <trkpt lat="47.73759" lon="6.09771">
        <ele>254</ele>
        <time>2015-09-10T12:24:32.000Z</time>
      </trkpt>
      <trkpt lat="47.73761" lon="6.09775">
        <ele>254</ele>
        <time>2015-09-10T12:24:33.000Z</time>
      </trkpt>
      <trkpt lat="47.73763" lon="6.09778">
        <ele>254</ele>
        <time>2015-09-10T12:24:34.000Z</time>
      </trkpt>
      <trkpt lat="47.73765" lon="6.09782">
        <ele>254</ele>
        <time>2015-09-10T12:24:35.000Z</time>
      </trkpt>
      <trkpt lat="47.73782" lon="6.09813">
        <ele>254</ele>
        <time>2015-09-10T12:24:44.000Z</time>
      </trkpt>
      <trkpt lat="47.73801" lon="6.09847">
        <ele>255</ele>
        <time>2015-09-10T12:24:53.000Z</time>
      </trkpt>
      <trkpt lat="47.7381" lon="6.0987">
        <ele>255</ele>
        <time>2015-09-10T12:24:59.000Z</time>
      </trkpt>
      <trkpt lat="47.73808" lon="6.09873">
        <ele>255</ele>
        <time>2015-09-10T12:25:00.000Z</time>
      </trkpt>
      <trkpt lat="47.73806" lon="6.09875">
        <ele>256</ele>
        <time>2015-09-10T12:25:01.000Z</time>
      </trkpt>
      <trkpt lat="47.73804" lon="6.09878">
        <ele>256</ele>
        <time>2015-09-10T12:25:02.000Z</time>
      </trkpt>
      <trkpt lat="47.73801" lon="6.09881">
        <ele>256</ele>
        <time>2015-09-10T12:25:03.000Z</time>
      </trkpt>
      <trkpt lat="47.73799" lon="6.09885">
        <ele>256</ele>
        <time>2015-09-10T12:25:04.000Z</time>
      </trkpt>
      <trkpt lat="47.73797" lon="6.09889">
        <ele>256</ele>
        <time>2015-09-10T12:25:05.000Z</time>
      </trkpt>
      <trkpt lat="47.73789" lon="6.09904">
        <ele>256</ele>
        <time>2015-09-10T12:25:09.000Z</time>
      </trkpt>
      <trkpt lat="47.73779" lon="6.09922">
        <ele>257</ele>
        <time>2015-09-10T12:25:14.000Z</time>
      </trkpt>
      <trkpt lat="47.73778" lon="6.09926">
        <ele>257</ele>
        <time>2015-09-10T12:25:15.000Z</time>
      </trkpt>
      <trkpt lat="47.73776" lon="6.09929">
        <ele>257</ele>
        <time>2015-09-10T12:25:16.000Z</time>
      </trkpt>
      <trkpt lat="47.73775" lon="6.09933">
        <ele>258</ele>
        <time>2015-09-10T12:25:17.000Z</time>
      </trkpt>
      <trkpt lat="47.73762" lon="6.09966">
        <ele>258</ele>
        <time>2015-09-10T12:25:26.000Z</time>
      </trkpt>
      <trkpt lat="47.7376" lon="6.0997">
        <ele>259</ele>
        <time>2015-09-10T12:25:27.000Z</time>
      </trkpt>
      <trkpt lat="47.73759" lon="6.09973">
        <ele>259</ele>
        <time>2015-09-10T12:25:28.000Z</time>
      </trkpt>
      <trkpt lat="47.73758" lon="6.09977">
        <ele>259</ele>
        <time>2015-09-10T12:25:29.000Z</time>
      </trkpt>
      <trkpt lat="47.73756" lon="6.0998">
        <ele>259</ele>
        <time>2015-09-10T12:25:30.000Z</time>
      </trkpt>
      <trkpt lat="47.73747" lon="6.10004">
        <ele>261</ele>
        <time>2015-09-10T12:25:37.000Z</time>
      </trkpt>
      <trkpt lat="47.73746" lon="6.10008">
        <ele>261</ele>
        <time>2015-09-10T12:25:38.000Z</time>
      </trkpt>
      <trkpt lat="47.73745" lon="6.10012">
        <ele>261</ele>
        <time>2015-09-10T12:25:39.000Z</time>
      </trkpt>
      <trkpt lat="47.73744" lon="6.10015">
        <ele>261</ele>
        <time>2015-09-10T12:25:40.000Z</time>
      </trkpt>
      <trkpt lat="47.73742" lon="6.10019">
        <ele>261</ele>
        <time>2015-09-10T12:25:41.000Z</time>
      </trkpt>
      <trkpt lat="47.73736" lon="6.10033">
        <ele>261</ele>
        <time>2015-09-10T12:25:45.000Z</time>
      </trkpt>
      <trkpt lat="47.73735" lon="6.10036">
        <ele>261</ele>
        <time>2015-09-10T12:25:46.000Z</time>
      </trkpt>
      <trkpt lat="47.73734" lon="6.1004">
        <ele>261</ele>
        <time>2015-09-10T12:25:47.000Z</time>
      </trkpt>
      <trkpt lat="47.73733" lon="6.10043">
        <ele>262</ele>
        <time>2015-09-10T12:25:48.000Z</time>
      </trkpt>
      <trkpt lat="47.73731" lon="6.10046">
        <ele>262</ele>
        <time>2015-09-10T12:25:49.000Z</time>
      </trkpt>
      <trkpt lat="47.73716" lon="6.10081">
        <ele>262</ele>
        <time>2015-09-10T12:25:59.000Z</time>
      </trkpt>
      <trkpt lat="47.737" lon="6.10118">
        <ele>263</ele>
        <time>2015-09-10T12:26:08.000Z</time>
      </trkpt>
      <trkpt lat="47.73695" lon="6.1013">
        <ele>263</ele>
        <time>2015-09-10T12:26:11.000Z</time>
      </trkpt>
      <trkpt lat="47.73693" lon="6.10134">
        <ele>263</ele>
        <time>2015-09-10T12:26:12.000Z</time>
      </trkpt>
      <trkpt lat="47.73691" lon="6.10138">
        <ele>263</ele>
        <time>2015-09-10T12:26:13.000Z</time>
      </trkpt>
      <trkpt lat="47.73689" lon="6.10142">
        <ele>263</ele>
        <time>2015-09-10T12:26:14.000Z</time>
      </trkpt>
      <trkpt lat="47.73687" lon="6.10146">
        <ele>263</ele>
        <time>2015-09-10T12:26:15.000Z</time>
      </trkpt>
      <trkpt lat="47.73685" lon="6.1015">
        <ele>263</ele>
        <time>2015-09-10T12:26:16.000Z</time>
      </trkpt>
      <trkpt lat="47.73673" lon="6.10175">
        <ele>267</ele>
        <time>2015-09-10T12:26:23.000Z</time>
      </trkpt>
      <trkpt lat="47.73663" lon="6.10183">
        <ele>269</ele>
        <time>2015-09-10T12:26:28.000Z</time>
      </trkpt>
      <trkpt lat="47.73662" lon="6.10184">
        <ele>269</ele>
        <time>2015-09-10T12:26:29.000Z</time>
      </trkpt>
      <trkpt lat="47.73653" lon="6.10185">
        <ele>270</ele>
        <time>2015-09-10T12:26:33.000Z</time>
      </trkpt>
      <trkpt lat="47.73653" lon="6.10188">
        <ele>270</ele>
        <time>2015-09-10T12:26:34.000Z</time>
      </trkpt>
      <trkpt lat="47.73652" lon="6.10191">
        <ele>270</ele>
        <time>2015-09-10T12:26:35.000Z</time>
      </trkpt>
      <trkpt lat="47.73656" lon="6.10194">
        <ele>271</ele>
        <time>2015-09-10T12:26:36.000Z</time>
      </trkpt>
      <trkpt lat="47.73658" lon="6.10197">
        <ele>271</ele>
        <time>2015-09-10T12:26:37.000Z</time>
      </trkpt>
      <trkpt lat="47.73657" lon="6.10206">
        <ele>272</ele>
        <time>2015-09-10T12:26:39.000Z</time>
      </trkpt>
      <trkpt lat="47.73655" lon="6.10209">
        <ele>273</ele>
        <time>2015-09-10T12:26:40.000Z</time>
      </trkpt>
      <trkpt lat="47.73648" lon="6.10223">
        <ele>274</ele>
        <time>2015-09-10T12:26:45.000Z</time>
      </trkpt>
      <trkpt lat="47.73647" lon="6.10225">
        <ele>274</ele>
        <time>2015-09-10T12:26:46.000Z</time>
      </trkpt>
      <trkpt lat="47.73645" lon="6.10226">
        <ele>274</ele>
        <time>2015-09-10T12:26:47.000Z</time>
      </trkpt>
      <trkpt lat="47.73644" lon="6.10228">
        <ele>275</ele>
        <time>2015-09-10T12:26:48.000Z</time>
      </trkpt>
      <trkpt lat="47.73642" lon="6.1023">
        <ele>275</ele>
        <time>2015-09-10T12:26:49.000Z</time>
      </trkpt>
      <trkpt lat="47.73636" lon="6.1024">
        <ele>275</ele>
        <time>2015-09-10T12:26:54.000Z</time>
      </trkpt>
      <trkpt lat="47.73635" lon="6.10242">
        <ele>275</ele>
        <time>2015-09-10T12:26:55.000Z</time>
      </trkpt>
      <trkpt lat="47.73633" lon="6.10245">
        <ele>276</ele>
        <time>2015-09-10T12:26:56.000Z</time>
      </trkpt>
      <trkpt lat="47.73632" lon="6.10247">
        <ele>276</ele>
        <time>2015-09-10T12:26:57.000Z</time>
      </trkpt>
      <trkpt lat="47.73631" lon="6.10249">
        <ele>276</ele>
        <time>2015-09-10T12:26:58.000Z</time>
      </trkpt>
      <trkpt lat="47.7363" lon="6.10252">
        <ele>286</ele>
        <time>2015-09-10T12:26:59.000Z</time>
      </trkpt>
      <trkpt lat="47.73622" lon="6.10263">
        <ele>287</ele>
        <time>2015-09-10T12:27:05.000Z</time>
      </trkpt>
      <trkpt lat="47.73621" lon="6.10264">
        <ele>287</ele>
        <time>2015-09-10T12:27:06.000Z</time>
      </trkpt>
      <trkpt lat="47.73619" lon="6.10266">
        <ele>287</ele>
        <time>2015-09-10T12:27:07.000Z</time>
      </trkpt>
      <trkpt lat="47.73618" lon="6.10268">
        <ele>287</ele>
        <time>2015-09-10T12:27:08.000Z</time>
      </trkpt>
      <trkpt lat="47.73616" lon="6.1027">
        <ele>287</ele>
        <time>2015-09-10T12:27:09.000Z</time>
      </trkpt>
      <trkpt lat="47.73614" lon="6.10271">
        <ele>287</ele>
        <time>2015-09-10T12:27:10.000Z</time>
      </trkpt>
      <trkpt lat="47.7361" lon="6.10276">
        <ele>288</ele>
        <time>2015-09-10T12:27:13.000Z</time>
      </trkpt>
      <trkpt lat="47.73604" lon="6.10281">
        <ele>288</ele>
        <time>2015-09-10T12:27:17.000Z</time>
      </trkpt>
      <trkpt lat="47.73603" lon="6.10282">
        <ele>288</ele>
        <time>2015-09-10T12:27:18.000Z</time>
      </trkpt>
      <trkpt lat="47.73601" lon="6.10283">
        <ele>288</ele>
        <time>2015-09-10T12:27:19.000Z</time>
      </trkpt>
      <trkpt lat="47.736" lon="6.10284">
        <ele>289</ele>
        <time>2015-09-10T12:27:20.000Z</time>
      </trkpt>
      <trkpt lat="47.73596" lon="6.10285">
        <ele>289</ele>
        <time>2015-09-10T12:27:22.000Z</time>
      </trkpt>
      <trkpt lat="47.73586" lon="6.1029">
        <ele>290</ele>
        <time>2015-09-10T12:27:29.000Z</time>
      </trkpt>
      <trkpt lat="47.73584" lon="6.1029">
        <ele>290</ele>
        <time>2015-09-10T12:27:30.000Z</time>
      </trkpt>
      <trkpt lat="47.73583" lon="6.10291">
        <ele>292</ele>
        <time>2015-09-10T12:27:31.000Z</time>
      </trkpt>
      <trkpt lat="47.73582" lon="6.10292">
        <ele>292</ele>
        <time>2015-09-10T12:27:32.000Z</time>
      </trkpt>
      <trkpt lat="47.73579" lon="6.10292">
        <ele>292</ele>
        <time>2015-09-10T12:27:34.000Z</time>
      </trkpt>
      <trkpt lat="47.73574" lon="6.10293">
        <ele>292</ele>
        <time>2015-09-10T12:27:37.000Z</time>
      </trkpt>
      <trkpt lat="47.73571" lon="6.10294">
        <ele>292</ele>
        <time>2015-09-10T12:27:39.000Z</time>
      </trkpt>
      <trkpt lat="47.73567" lon="6.10295">
        <ele>292</ele>
        <time>2015-09-10T12:27:42.000Z</time>
      </trkpt>
      <trkpt lat="47.73565" lon="6.10296">
        <ele>292</ele>
        <time>2015-09-10T12:27:43.000Z</time>
      </trkpt>
      <trkpt lat="47.73564" lon="6.10296">
        <ele>292</ele>
        <time>2015-09-10T12:27:44.000Z</time>
      </trkpt>
      <trkpt lat="47.73562" lon="6.10296">
        <ele>292</ele>
        <time>2015-09-10T12:27:45.000Z</time>
      </trkpt>
      <trkpt lat="47.7356" lon="6.10296">
        <ele>292</ele>
        <time>2015-09-10T12:27:46.000Z</time>
      </trkpt>
      <trkpt lat="47.73553" lon="6.10298">
        <ele>292</ele>
        <time>2015-09-10T12:27:50.000Z</time>
      </trkpt>
      <trkpt lat="47.7355" lon="6.10298">
        <ele>292</ele>
        <time>2015-09-10T12:27:52.000Z</time>
      </trkpt>
      <trkpt lat="47.73548" lon="6.10298">
        <ele>293</ele>
        <time>2015-09-10T12:27:53.000Z</time>
      </trkpt>
      <trkpt lat="47.73535" lon="6.10299">
        <ele>293</ele>
        <time>2015-09-10T12:28:00.000Z</time>
      </trkpt>
      <trkpt lat="47.73525" lon="6.10302">
        <ele>293</ele>
        <time>2015-09-10T12:28:06.000Z</time>
      </trkpt>
      <trkpt lat="47.73523" lon="6.10303">
        <ele>293</ele>
        <time>2015-09-10T12:28:07.000Z</time>
      </trkpt>
      <trkpt lat="47.73521" lon="6.10304">
        <ele>293</ele>
        <time>2015-09-10T12:28:08.000Z</time>
      </trkpt>
      <trkpt lat="47.7352" lon="6.10306">
        <ele>294</ele>
        <time>2015-09-10T12:28:09.000Z</time>
      </trkpt>
      <trkpt lat="47.73506" lon="6.10317">
        <ele>295</ele>
        <time>2015-09-10T12:28:19.000Z</time>
      </trkpt>
      <trkpt lat="47.73501" lon="6.10325">
        <ele>297</ele>
        <time>2015-09-10T12:28:24.000Z</time>
      </trkpt>
      <trkpt lat="47.735" lon="6.10327">
        <ele>298</ele>
        <time>2015-09-10T12:28:25.000Z</time>
      </trkpt>
      <trkpt lat="47.735" lon="6.1033">
        <ele>298</ele>
        <time>2015-09-10T12:28:26.000Z</time>
      </trkpt>
      <trkpt lat="47.735" lon="6.10332">
        <ele>299</ele>
        <time>2015-09-10T12:28:27.000Z</time>
      </trkpt>
      <trkpt lat="47.735" lon="6.10335">
        <ele>299</ele>
        <time>2015-09-10T12:28:28.000Z</time>
      </trkpt>
      <trkpt lat="47.73499" lon="6.10346">
        <ele>300</ele>
        <time>2015-09-10T12:28:32.000Z</time>
      </trkpt>
      <trkpt lat="47.73498" lon="6.1035">
        <ele>300</ele>
        <time>2015-09-10T12:28:34.000Z</time>
      </trkpt>
      <trkpt lat="47.73498" lon="6.10358">
        <ele>301</ele>
        <time>2015-09-10T12:28:37.000Z</time>
      </trkpt>
      <trkpt lat="47.73498" lon="6.1036">
        <ele>301</ele>
        <time>2015-09-10T12:28:38.000Z</time>
      </trkpt>
      <trkpt lat="47.73499" lon="6.10362">
        <ele>301</ele>
        <time>2015-09-10T12:28:39.000Z</time>
      </trkpt>
      <trkpt lat="47.73499" lon="6.10364">
        <ele>301</ele>
        <time>2015-09-10T12:28:40.000Z</time>
      </trkpt>
      <trkpt lat="47.735" lon="6.10367">
        <ele>301</ele>
        <time>2015-09-10T12:28:41.000Z</time>
      </trkpt>
      <trkpt lat="47.73503" lon="6.10379">
        <ele>303</ele>
        <time>2015-09-10T12:28:46.000Z</time>
      </trkpt>
      <trkpt lat="47.73504" lon="6.10387">
        <ele>304</ele>
        <time>2015-09-10T12:28:50.000Z</time>
      </trkpt>
      <trkpt lat="47.73504" lon="6.10389">
        <ele>304</ele>
        <time>2015-09-10T12:28:51.000Z</time>
      </trkpt>
      <trkpt lat="47.73504" lon="6.10391">
        <ele>304</ele>
        <time>2015-09-10T12:28:52.000Z</time>
      </trkpt>
      <trkpt lat="47.73505" lon="6.10393">
        <ele>304</ele>
        <time>2015-09-10T12:28:53.000Z</time>
      </trkpt>
      <trkpt lat="47.73506" lon="6.10404">
        <ele>305</ele>
        <time>2015-09-10T12:28:58.000Z</time>
      </trkpt>
      <trkpt lat="47.73507" lon="6.10406">
        <ele>305</ele>
        <time>2015-09-10T12:28:59.000Z</time>
      </trkpt>
      <trkpt lat="47.7351" lon="6.10417">
        <ele>308</ele>
        <time>2015-09-10T12:29:03.000Z</time>
      </trkpt>
      <trkpt lat="47.73511" lon="6.1042">
        <ele>308</ele>
        <time>2015-09-10T12:29:04.000Z</time>
      </trkpt>
      <trkpt lat="47.73511" lon="6.10423">
        <ele>308</ele>
        <time>2015-09-10T12:29:05.000Z</time>
      </trkpt>
      <trkpt lat="47.73512" lon="6.10426">
        <ele>308</ele>
        <time>2015-09-10T12:29:06.000Z</time>
      </trkpt>
      <trkpt lat="47.73512" lon="6.10428">
        <ele>308</ele>
        <time>2015-09-10T12:29:07.000Z</time>
      </trkpt>
      <trkpt lat="47.73512" lon="6.1043">
        <ele>308</ele>
        <time>2015-09-10T12:29:08.000Z</time>
      </trkpt>
      <trkpt lat="47.73513" lon="6.10437">
        <ele>309</ele>
        <time>2015-09-10T12:29:11.000Z</time>
      </trkpt>
      <trkpt lat="47.73517" lon="6.10453">
        <ele>310</ele>
        <time>2015-09-10T12:29:19.000Z</time>
      </trkpt>
      <trkpt lat="47.73518" lon="6.10456">
        <ele>310</ele>
        <time>2015-09-10T12:29:20.000Z</time>
      </trkpt>
      <trkpt lat="47.73518" lon="6.10458">
        <ele>310</ele>
        <time>2015-09-10T12:29:21.000Z</time>
      </trkpt>
      <trkpt lat="47.73518" lon="6.1046">
        <ele>310</ele>
        <time>2015-09-10T12:29:22.000Z</time>
      </trkpt>
      <trkpt lat="47.73519" lon="6.10463">
        <ele>310</ele>
        <time>2015-09-10T12:29:23.000Z</time>
      </trkpt>
      <trkpt lat="47.7352" lon="6.10472">
        <ele>310</ele>
        <time>2015-09-10T12:29:27.000Z</time>
      </trkpt>
      <trkpt lat="47.73521" lon="6.10488">
        <ele>311</ele>
        <time>2015-09-10T12:29:34.000Z</time>
      </trkpt>
      <trkpt lat="47.73521" lon="6.1049">
        <ele>311</ele>
        <time>2015-09-10T12:29:35.000Z</time>
      </trkpt>
      <trkpt lat="47.7352" lon="6.10495">
        <ele>311</ele>
        <time>2015-09-10T12:29:38.000Z</time>
      </trkpt>
      <trkpt lat="47.73515" lon="6.10509">
        <ele>314</ele>
        <time>2015-09-10T12:29:46.000Z</time>
      </trkpt>
      <trkpt lat="47.73512" lon="6.10514">
        <ele>314</ele>
        <time>2015-09-10T12:29:49.000Z</time>
      </trkpt>
      <trkpt lat="47.7351" lon="6.10522">
        <ele>314</ele>
        <time>2015-09-10T12:29:54.000Z</time>
      </trkpt>
      <trkpt lat="47.7351" lon="6.10525">
        <ele>314</ele>
        <time>2015-09-10T12:29:55.000Z</time>
      </trkpt>
      <trkpt lat="47.73506" lon="6.10537">
        <ele>315</ele>
        <time>2015-09-10T12:30:00.000Z</time>
      </trkpt>
      <trkpt lat="47.73505" lon="6.1054">
        <ele>315</ele>
        <time>2015-09-10T12:30:01.000Z</time>
      </trkpt>
      <trkpt lat="47.73501" lon="6.10556">
        <ele>316</ele>
        <time>2015-09-10T12:30:06.000Z</time>
      </trkpt>
      <trkpt lat="47.73501" lon="6.10559">
        <ele>316</ele>
        <time>2015-09-10T12:30:07.000Z</time>
      </trkpt>
      <trkpt lat="47.735" lon="6.10563">
        <ele>315</ele>
        <time>2015-09-10T12:30:08.000Z</time>
      </trkpt>
      <trkpt lat="47.73499" lon="6.10566">
        <ele>315</ele>
        <time>2015-09-10T12:30:09.000Z</time>
      </trkpt>
      <trkpt lat="47.73499" lon="6.10569">
        <ele>315</ele>
        <time>2015-09-10T12:30:10.000Z</time>
      </trkpt>
      <trkpt lat="47.73496" lon="6.10587">
        <ele>317</ele>
        <time>2015-09-10T12:30:16.000Z</time>
      </trkpt>
      <trkpt lat="47.73491" lon="6.10608">
        <ele>317</ele>
        <time>2015-09-10T12:30:22.000Z</time>
      </trkpt>
      <trkpt lat="47.73488" lon="6.10629">
        <ele>317</ele>
        <time>2015-09-10T12:30:28.000Z</time>
      </trkpt>
      <trkpt lat="47.73487" lon="6.10632">
        <ele>317</ele>
        <time>2015-09-10T12:30:29.000Z</time>
      </trkpt>
      <trkpt lat="47.73487" lon="6.10634">
        <ele>317</ele>
        <time>2015-09-10T12:30:30.000Z</time>
      </trkpt>
      <trkpt lat="47.73485" lon="6.10637">
        <ele>317</ele>
        <time>2015-09-10T12:30:31.000Z</time>
      </trkpt>
      <trkpt lat="47.73484" lon="6.1064">
        <ele>317</ele>
        <time>2015-09-10T12:30:32.000Z</time>
      </trkpt>
      <trkpt lat="47.7348" lon="6.1065">
        <ele>317</ele>
        <time>2015-09-10T12:30:35.000Z</time>
      </trkpt>
      <trkpt lat="47.73475" lon="6.10673">
        <ele>318</ele>
        <time>2015-09-10T12:30:40.000Z</time>
      </trkpt>
      <trkpt lat="47.73467" lon="6.10701">
        <ele>318</ele>
        <time>2015-09-10T12:30:46.000Z</time>
      </trkpt>
      <trkpt lat="47.7346" lon="6.10727">
        <ele>318</ele>
        <time>2015-09-10T12:30:52.000Z</time>
      </trkpt>
      <trkpt lat="47.73456" lon="6.10748">
        <ele>318</ele>
        <time>2015-09-10T12:30:57.000Z</time>
      </trkpt>
      <trkpt lat="47.73452" lon="6.1077">
        <ele>319</ele>
        <time>2015-09-10T12:31:03.000Z</time>
      </trkpt>
      <trkpt lat="47.73451" lon="6.10772">
        <ele>319</ele>
        <time>2015-09-10T12:31:04.000Z</time>
      </trkpt>
      <trkpt lat="47.7345" lon="6.10776">
        <ele>319</ele>
        <time>2015-09-10T12:31:05.000Z</time>
      </trkpt>
      <trkpt lat="47.73449" lon="6.10779">
        <ele>319</ele>
        <time>2015-09-10T12:31:06.000Z</time>
      </trkpt>
      <trkpt lat="47.73448" lon="6.10782">
        <ele>319</ele>
        <time>2015-09-10T12:31:07.000Z</time>
      </trkpt>
      <trkpt lat="47.73446" lon="6.10791">
        <ele>319</ele>
        <time>2015-09-10T12:31:10.000Z</time>
      </trkpt>
      <trkpt lat="47.73439" lon="6.10814">
        <ele>319</ele>
        <time>2015-09-10T12:31:18.000Z</time>
      </trkpt>
      <trkpt lat="47.73439" lon="6.10817">
        <ele>319</ele>
        <time>2015-09-10T12:31:19.000Z</time>
      </trkpt>
      <trkpt lat="47.73438" lon="6.10819">
        <ele>319</ele>
        <time>2015-09-10T12:31:20.000Z</time>
      </trkpt>
      <trkpt lat="47.73437" lon="6.10822">
        <ele>319</ele>
        <time>2015-09-10T12:31:21.000Z</time>
      </trkpt>
      <trkpt lat="47.73436" lon="6.10824">
        <ele>319</ele>
        <time>2015-09-10T12:31:22.000Z</time>
      </trkpt>
      <trkpt lat="47.73436" lon="6.10826">
        <ele>319</ele>
        <time>2015-09-10T12:31:23.000Z</time>
      </trkpt>
      <trkpt lat="47.73437" lon="6.10832">
        <ele>319</ele>
        <time>2015-09-10T12:32:29.000Z</time>
      </trkpt>
      <trkpt lat="47.7344" lon="6.10839">
        <ele>320</ele>
        <time>2015-09-10T12:32:32.000Z</time>
      </trkpt>
      <trkpt lat="47.73455" lon="6.10849">
        <ele>320</ele>
        <time>2015-09-10T12:32:38.000Z</time>
      </trkpt>
      <trkpt lat="47.73464" lon="6.10856">
        <ele>320</ele>
        <time>2015-09-10T12:32:41.000Z</time>
      </trkpt>
      <trkpt lat="47.73467" lon="6.10857">
        <ele>320</ele>
        <time>2015-09-10T12:32:42.000Z</time>
      </trkpt>
      <trkpt lat="47.73471" lon="6.10859">
        <ele>320</ele>
        <time>2015-09-10T12:32:43.000Z</time>
      </trkpt>
      <trkpt lat="47.73474" lon="6.10862">
        <ele>320</ele>
        <time>2015-09-10T12:32:44.000Z</time>
      </trkpt>
      <trkpt lat="47.73479" lon="6.10865">
        <ele>320</ele>
        <time>2015-09-10T12:32:45.000Z</time>
      </trkpt>
      <trkpt lat="47.73506" lon="6.10884">
        <ele>322</ele>
        <time>2015-09-10T12:32:52.000Z</time>
      </trkpt>
      <trkpt lat="47.73529" lon="6.10896">
        <ele>322</ele>
        <time>2015-09-10T12:32:59.000Z</time>
      </trkpt>
      <trkpt lat="47.73532" lon="6.10897">
        <ele>322</ele>
        <time>2015-09-10T12:33:00.000Z</time>
      </trkpt>
      <trkpt lat="47.73535" lon="6.10899">
        <ele>322</ele>
        <time>2015-09-10T12:33:01.000Z</time>
      </trkpt>
      <trkpt lat="47.73538" lon="6.109">
        <ele>322</ele>
        <time>2015-09-10T12:33:02.000Z</time>
      </trkpt>
      <trkpt lat="47.73541" lon="6.10901">
        <ele>322</ele>
        <time>2015-09-10T12:33:03.000Z</time>
      </trkpt>
      <trkpt lat="47.73554" lon="6.10908">
        <ele>323</ele>
        <time>2015-09-10T12:33:07.000Z</time>
      </trkpt>
      <trkpt lat="47.73573" lon="6.10918">
        <ele>324</ele>
        <time>2015-09-10T12:33:13.000Z</time>
      </trkpt>
      <trkpt lat="47.73585" lon="6.10924">
        <ele>324</ele>
        <time>2015-09-10T12:33:17.000Z</time>
      </trkpt>
      <trkpt lat="47.73595" lon="6.10928">
        <ele>325</ele>
        <time>2015-09-10T12:33:20.000Z</time>
      </trkpt>
      <trkpt lat="47.73606" lon="6.10934">
        <ele>325</ele>
        <time>2015-09-10T12:33:23.000Z</time>
      </trkpt>
      <trkpt lat="47.7361" lon="6.10936">
        <ele>325</ele>
        <time>2015-09-10T12:33:24.000Z</time>
      </trkpt>
      <trkpt lat="47.73614" lon="6.10939">
        <ele>325</ele>
        <time>2015-09-10T12:33:25.000Z</time>
      </trkpt>
      <trkpt lat="47.73618" lon="6.10941">
        <ele>325</ele>
        <time>2015-09-10T12:33:26.000Z</time>
      </trkpt>
      <trkpt lat="47.73622" lon="6.10943">
        <ele>326</ele>
        <time>2015-09-10T12:33:27.000Z</time>
      </trkpt>
      <trkpt lat="47.73625" lon="6.10946">
        <ele>326</ele>
        <time>2015-09-10T12:33:28.000Z</time>
      </trkpt>
      <trkpt lat="47.73639" lon="6.10969">
        <ele>326</ele>
        <time>2015-09-10T12:33:33.000Z</time>
      </trkpt>
      <trkpt lat="47.73638" lon="6.10995">
        <ele>326</ele>
        <time>2015-09-10T12:33:39.000Z</time>
      </trkpt>
      <trkpt lat="47.73637" lon="6.10999">
        <ele>326</ele>
        <time>2015-09-10T12:33:40.000Z</time>
      </trkpt>
      <trkpt lat="47.73637" lon="6.11002">
        <ele>327</ele>
        <time>2015-09-10T12:33:41.000Z</time>
      </trkpt>
      <trkpt lat="47.73636" lon="6.11006">
        <ele>328</ele>
        <time>2015-09-10T12:33:42.000Z</time>
      </trkpt>
      <trkpt lat="47.73635" lon="6.11009">
        <ele>328</ele>
        <time>2015-09-10T12:33:43.000Z</time>
      </trkpt>
      <trkpt lat="47.73634" lon="6.11012">
        <ele>328</ele>
        <time>2015-09-10T12:33:44.000Z</time>
      </trkpt>
      <trkpt lat="47.73633" lon="6.11017">
        <ele>328</ele>
        <time>2015-09-10T12:33:45.000Z</time>
      </trkpt>
      <trkpt lat="47.73628" lon="6.1104">
        <ele>328</ele>
        <time>2015-09-10T12:33:50.000Z</time>
      </trkpt>
      <trkpt lat="47.73622" lon="6.11076">
        <ele>328</ele>
        <time>2015-09-10T12:33:56.000Z</time>
      </trkpt>
      <trkpt lat="47.73618" lon="6.11096">
        <ele>327</ele>
        <time>2015-09-10T12:33:59.000Z</time>
      </trkpt>
      <trkpt lat="47.73611" lon="6.11118">
        <ele>327</ele>
        <time>2015-09-10T12:34:02.000Z</time>
      </trkpt>
      <trkpt lat="47.73606" lon="6.11134">
        <ele>326</ele>
        <time>2015-09-10T12:34:04.000Z</time>
      </trkpt>
      <trkpt lat="47.73604" lon="6.11142">
        <ele>326</ele>
        <time>2015-09-10T12:34:05.000Z</time>
      </trkpt>
      <trkpt lat="47.73602" lon="6.1115">
        <ele>326</ele>
        <time>2015-09-10T12:34:06.000Z</time>
      </trkpt>
      <trkpt lat="47.736" lon="6.11158">
        <ele>325</ele>
        <time>2015-09-10T12:34:07.000Z</time>
      </trkpt>
      <trkpt lat="47.73598" lon="6.11167">
        <ele>325</ele>
        <time>2015-09-10T12:34:08.000Z</time>
      </trkpt>
      <trkpt lat="47.73593" lon="6.11194">
        <ele>325</ele>
        <time>2015-09-10T12:34:11.000Z</time>
      </trkpt>
      <trkpt lat="47.7359" lon="6.11204">
        <ele>325</ele>
        <time>2015-09-10T12:34:12.000Z</time>
      </trkpt>
      <trkpt lat="47.73587" lon="6.11213">
        <ele>325</ele>
        <time>2015-09-10T12:34:13.000Z</time>
      </trkpt>
      <trkpt lat="47.73584" lon="6.11223">
        <ele>325</ele>
        <time>2015-09-10T12:34:14.000Z</time>
      </trkpt>
      <trkpt lat="47.73581" lon="6.11232">
        <ele>323</ele>
        <time>2015-09-10T12:34:15.000Z</time>
      </trkpt>
      <trkpt lat="47.7358" lon="6.1124">
        <ele>323</ele>
        <time>2015-09-10T12:34:16.000Z</time>
      </trkpt>
      <trkpt lat="47.73578" lon="6.11247">
        <ele>323</ele>
        <time>2015-09-10T12:34:17.000Z</time>
      </trkpt>
      <trkpt lat="47.73577" lon="6.11254">
        <ele>324</ele>
        <time>2015-09-10T12:34:18.000Z</time>
      </trkpt>
      <trkpt lat="47.73576" lon="6.11261">
        <ele>325</ele>
        <time>2015-09-10T12:34:19.000Z</time>
      </trkpt>
      <trkpt lat="47.73575" lon="6.11267">
        <ele>325</ele>
        <time>2015-09-10T12:34:20.000Z</time>
      </trkpt>
      <trkpt lat="47.73574" lon="6.11274">
        <ele>325</ele>
        <time>2015-09-10T12:34:22.000Z</time>
      </trkpt>
      <trkpt lat="47.73573" lon="6.11278">
        <ele>325</ele>
        <time>2015-09-10T12:34:23.000Z</time>
      </trkpt>
      <trkpt lat="47.73574" lon="6.11281">
        <ele>325</ele>
        <time>2015-09-10T12:34:24.000Z</time>
      </trkpt>
      <trkpt lat="47.73573" lon="6.11285">
        <ele>326</ele>
        <time>2015-09-10T12:34:25.000Z</time>
      </trkpt>
      <trkpt lat="47.73572" lon="6.11288">
        <ele>326</ele>
        <time>2015-09-10T12:34:26.000Z</time>
      </trkpt>
      <trkpt lat="47.73571" lon="6.1129">
        <ele>326</ele>
        <time>2015-09-10T12:34:27.000Z</time>
      </trkpt>
      <trkpt lat="47.73568" lon="6.11299">
        <ele>326</ele>
        <time>2015-09-10T12:34:30.000Z</time>
      </trkpt>
      <trkpt lat="47.73566" lon="6.11302">
        <ele>326</ele>
        <time>2015-09-10T12:34:31.000Z</time>
      </trkpt>
      <trkpt lat="47.73565" lon="6.11305">
        <ele>326</ele>
        <time>2015-09-10T12:34:32.000Z</time>
      </trkpt>
      <trkpt lat="47.73564" lon="6.11308">
        <ele>326</ele>
        <time>2015-09-10T12:34:33.000Z</time>
      </trkpt>
      <trkpt lat="47.73562" lon="6.11312">
        <ele>327</ele>
        <time>2015-09-10T12:34:34.000Z</time>
      </trkpt>
      <trkpt lat="47.73559" lon="6.11331">
        <ele>327</ele>
        <time>2015-09-10T12:34:39.000Z</time>
      </trkpt>
      <trkpt lat="47.73559" lon="6.11334">
        <ele>330</ele>
        <time>2015-09-10T12:34:40.000Z</time>
      </trkpt>
      <trkpt lat="47.73558" lon="6.11338">
        <ele>330</ele>
        <time>2015-09-10T12:34:41.000Z</time>
      </trkpt>
      <trkpt lat="47.73558" lon="6.11341">
        <ele>330</ele>
        <time>2015-09-10T12:34:42.000Z</time>
      </trkpt>
      <trkpt lat="47.73558" lon="6.11343">
        <ele>330</ele>
        <time>2015-09-10T12:34:43.000Z</time>
      </trkpt>
      <trkpt lat="47.73557" lon="6.11345">
        <ele>330</ele>
        <time>2015-09-10T12:34:44.000Z</time>
      </trkpt>
      <trkpt lat="47.73557" lon="6.1135">
        <ele>330</ele>
        <time>2015-09-10T12:34:46.000Z</time>
      </trkpt>
      <trkpt lat="47.73556" lon="6.11353">
        <ele>330</ele>
        <time>2015-09-10T12:34:47.000Z</time>
      </trkpt>
      <trkpt lat="47.73555" lon="6.1136">
        <ele>331</ele>
        <time>2015-09-10T12:34:49.000Z</time>
      </trkpt>
      <trkpt lat="47.73555" lon="6.11363">
        <ele>331</ele>
        <time>2015-09-10T12:34:50.000Z</time>
      </trkpt>
      <trkpt lat="47.73554" lon="6.11366">
        <ele>331</ele>
        <time>2015-09-10T12:34:51.000Z</time>
      </trkpt>
      <trkpt lat="47.73554" lon="6.11369">
        <ele>331</ele>
        <time>2015-09-10T12:34:52.000Z</time>
      </trkpt>
      <trkpt lat="47.73553" lon="6.11372">
        <ele>331</ele>
        <time>2015-09-10T12:34:53.000Z</time>
      </trkpt>
      <trkpt lat="47.73552" lon="6.11379">
        <ele>331</ele>
        <time>2015-09-10T12:34:55.000Z</time>
      </trkpt>
      <trkpt lat="47.73549" lon="6.11388">
        <ele>331</ele>
        <time>2015-09-10T12:34:58.000Z</time>
      </trkpt>
      <trkpt lat="47.73547" lon="6.11396">
        <ele>332</ele>
        <time>2015-09-10T12:35:00.000Z</time>
      </trkpt>
      <trkpt lat="47.73546" lon="6.114">
        <ele>332</ele>
        <time>2015-09-10T12:35:01.000Z</time>
      </trkpt>
      <trkpt lat="47.73546" lon="6.11403">
        <ele>332</ele>
        <time>2015-09-10T12:35:02.000Z</time>
      </trkpt>
      <trkpt lat="47.73545" lon="6.11406">
        <ele>332</ele>
        <time>2015-09-10T12:35:03.000Z</time>
      </trkpt>
      <trkpt lat="47.73545" lon="6.11409">
        <ele>332</ele>
        <time>2015-09-10T12:35:04.000Z</time>
      </trkpt>
      <trkpt lat="47.73544" lon="6.11412">
        <ele>332</ele>
        <time>2015-09-10T12:35:05.000Z</time>
      </trkpt>
      <trkpt lat="47.73542" lon="6.1142">
        <ele>335</ele>
        <time>2015-09-10T12:35:08.000Z</time>
      </trkpt>
      <trkpt lat="47.73542" lon="6.11422">
        <ele>335</ele>
        <time>2015-09-10T12:35:09.000Z</time>
      </trkpt>
      <trkpt lat="47.73539" lon="6.11433">
        <ele>335</ele>
        <time>2015-09-10T12:35:13.000Z</time>
      </trkpt>
      <trkpt lat="47.73538" lon="6.11442">
        <ele>335</ele>
        <time>2015-09-10T12:35:16.000Z</time>
      </trkpt>
      <trkpt lat="47.73537" lon="6.11445">
        <ele>335</ele>
        <time>2015-09-10T12:35:17.000Z</time>
      </trkpt>
      <trkpt lat="47.73536" lon="6.11448">
        <ele>335</ele>
        <time>2015-09-10T12:35:18.000Z</time>
      </trkpt>
      <trkpt lat="47.7353" lon="6.11466">
        <ele>336</ele>
        <time>2015-09-10T12:35:23.000Z</time>
      </trkpt>
      <trkpt lat="47.73527" lon="6.11474">
        <ele>336</ele>
        <time>2015-09-10T12:35:26.000Z</time>
      </trkpt>
      <trkpt lat="47.73526" lon="6.11477">
        <ele>336</ele>
        <time>2015-09-10T12:35:27.000Z</time>
      </trkpt>
      <trkpt lat="47.73526" lon="6.11479">
        <ele>336</ele>
        <time>2015-09-10T12:35:28.000Z</time>
      </trkpt>
      <trkpt lat="47.73525" lon="6.11482">
        <ele>336</ele>
        <time>2015-09-10T12:35:29.000Z</time>
      </trkpt>
      <trkpt lat="47.73525" lon="6.11485">
        <ele>336</ele>
        <time>2015-09-10T12:35:30.000Z</time>
      </trkpt>
      <trkpt lat="47.7352" lon="6.11516">
        <ele>339</ele>
        <time>2015-09-10T12:35:44.000Z</time>
      </trkpt>
      <trkpt lat="47.73521" lon="6.11518">
        <ele>339</ele>
        <time>2015-09-10T12:35:45.000Z</time>
      </trkpt>
      <trkpt lat="47.73522" lon="6.1152">
        <ele>339</ele>
        <time>2015-09-10T12:35:46.000Z</time>
      </trkpt>
      <trkpt lat="47.73523" lon="6.11522">
        <ele>339</ele>
        <time>2015-09-10T12:35:47.000Z</time>
      </trkpt>
      <trkpt lat="47.73524" lon="6.11523">
        <ele>339</ele>
        <time>2015-09-10T12:35:48.000Z</time>
      </trkpt>
      <trkpt lat="47.73537" lon="6.11532">
        <ele>339</ele>
        <time>2015-09-10T12:35:55.000Z</time>
      </trkpt>
      <trkpt lat="47.73539" lon="6.11533">
        <ele>339</ele>
        <time>2015-09-10T12:35:56.000Z</time>
      </trkpt>
      <trkpt lat="47.73541" lon="6.11534">
        <ele>339</ele>
        <time>2015-09-10T12:35:57.000Z</time>
      </trkpt>
      <trkpt lat="47.73547" lon="6.11539">
        <ele>339</ele>
        <time>2015-09-10T12:36:00.000Z</time>
      </trkpt>
      <trkpt lat="47.7355" lon="6.11541">
        <ele>339</ele>
        <time>2015-09-10T12:36:01.000Z</time>
      </trkpt>
      <trkpt lat="47.73552" lon="6.11543">
        <ele>339</ele>
        <time>2015-09-10T12:36:02.000Z</time>
      </trkpt>
      <trkpt lat="47.73553" lon="6.11544">
        <ele>339</ele>
        <time>2015-09-10T12:36:03.000Z</time>
      </trkpt>
      <trkpt lat="47.73555" lon="6.11545">
        <ele>339</ele>
        <time>2015-09-10T12:36:04.000Z</time>
      </trkpt>
      <trkpt lat="47.73569" lon="6.11555">
        <ele>340</ele>
        <time>2015-09-10T12:36:09.000Z</time>
      </trkpt>
      <trkpt lat="47.73585" lon="6.11563">
        <ele>340</ele>
        <time>2015-09-10T12:36:15.000Z</time>
      </trkpt>
      <trkpt lat="47.73593" lon="6.11566">
        <ele>340</ele>
        <time>2015-09-10T12:36:18.000Z</time>
      </trkpt>
      <trkpt lat="47.73596" lon="6.11566">
        <ele>340</ele>
        <time>2015-09-10T12:36:19.000Z</time>
      </trkpt>
      <trkpt lat="47.73599" lon="6.11567">
        <ele>340</ele>
        <time>2015-09-10T12:36:20.000Z</time>
      </trkpt>
      <trkpt lat="47.73601" lon="6.11569">
        <ele>340</ele>
        <time>2015-09-10T12:36:21.000Z</time>
      </trkpt>
      <trkpt lat="47.73604" lon="6.1157">
        <ele>340</ele>
        <time>2015-09-10T12:36:22.000Z</time>
      </trkpt>
      <trkpt lat="47.73621" lon="6.11581">
        <ele>340</ele>
        <time>2015-09-10T12:36:30.000Z</time>
      </trkpt>
      <trkpt lat="47.7363" lon="6.11585">
        <ele>340</ele>
        <time>2015-09-10T12:36:34.000Z</time>
      </trkpt>
      <trkpt lat="47.73633" lon="6.11586">
        <ele>340</ele>
        <time>2015-09-10T12:36:35.000Z</time>
      </trkpt>
      <trkpt lat="47.73636" lon="6.11589">
        <ele>340</ele>
        <time>2015-09-10T12:36:36.000Z</time>
      </trkpt>
      <trkpt lat="47.73639" lon="6.11591">
        <ele>340</ele>
        <time>2015-09-10T12:36:37.000Z</time>
      </trkpt>
      <trkpt lat="47.73641" lon="6.11593">
        <ele>340</ele>
        <time>2015-09-10T12:36:38.000Z</time>
      </trkpt>
      <trkpt lat="47.73654" lon="6.11598">
        <ele>340</ele>
        <time>2015-09-10T12:36:43.000Z</time>
      </trkpt>
      <trkpt lat="47.73676" lon="6.11607">
        <ele>341</ele>
        <time>2015-09-10T12:36:50.000Z</time>
      </trkpt>
      <trkpt lat="47.73691" lon="6.11616">
        <ele>341</ele>
        <time>2015-09-10T12:36:56.000Z</time>
      </trkpt>
      <trkpt lat="47.73697" lon="6.11619">
        <ele>342</ele>
        <time>2015-09-10T12:36:58.000Z</time>
      </trkpt>
      <trkpt lat="47.73699" lon="6.11621">
        <ele>342</ele>
        <time>2015-09-10T12:36:59.000Z</time>
      </trkpt>
      <trkpt lat="47.73701" lon="6.11623">
        <ele>342</ele>
        <time>2015-09-10T12:37:00.000Z</time>
      </trkpt>
      <trkpt lat="47.73703" lon="6.11627">
        <ele>342</ele>
        <time>2015-09-10T12:37:01.000Z</time>
      </trkpt>
      <trkpt lat="47.73704" lon="6.1163">
        <ele>342</ele>
        <time>2015-09-10T12:37:02.000Z</time>
      </trkpt>
      <trkpt lat="47.73705" lon="6.11643">
        <ele>342</ele>
        <time>2015-09-10T12:37:06.000Z</time>
      </trkpt>
      <trkpt lat="47.73705" lon="6.1165">
        <ele>342</ele>
        <time>2015-09-10T12:37:08.000Z</time>
      </trkpt>
      <trkpt lat="47.73703" lon="6.11669">
        <ele>343</ele>
        <time>2015-09-10T12:37:12.000Z</time>
      </trkpt>
      <trkpt lat="47.73703" lon="6.11673">
        <ele>343</ele>
        <time>2015-09-10T12:37:13.000Z</time>
      </trkpt>
      <trkpt lat="47.73703" lon="6.11678">
        <ele>343</ele>
        <time>2015-09-10T12:37:14.000Z</time>
      </trkpt>
      <trkpt lat="47.73702" lon="6.11682">
        <ele>343</ele>
        <time>2015-09-10T12:37:15.000Z</time>
      </trkpt>
      <trkpt lat="47.737" lon="6.1169">
        <ele>343</ele>
        <time>2015-09-10T12:37:17.000Z</time>
      </trkpt>
      <trkpt lat="47.73698" lon="6.11698">
        <ele>343</ele>
        <time>2015-09-10T12:37:19.000Z</time>
      </trkpt>
      <trkpt lat="47.73695" lon="6.11716">
        <ele>343</ele>
        <time>2015-09-10T12:37:23.000Z</time>
      </trkpt>
      <trkpt lat="47.73693" lon="6.1172">
        <ele>344</ele>
        <time>2015-09-10T12:37:24.000Z</time>
      </trkpt>
      <trkpt lat="47.73692" lon="6.11724">
        <ele>344</ele>
        <time>2015-09-10T12:37:25.000Z</time>
      </trkpt>
      <trkpt lat="47.73691" lon="6.11728">
        <ele>344</ele>
        <time>2015-09-10T12:37:26.000Z</time>
      </trkpt>
      <trkpt lat="47.7369" lon="6.11732">
        <ele>344</ele>
        <time>2015-09-10T12:37:27.000Z</time>
      </trkpt>
      <trkpt lat="47.73681" lon="6.11768">
        <ele>344</ele>
        <time>2015-09-10T12:37:35.000Z</time>
      </trkpt>
      <trkpt lat="47.73672" lon="6.11808">
        <ele>343</ele>
        <time>2015-09-10T12:37:43.000Z</time>
      </trkpt>
      <trkpt lat="47.73662" lon="6.11855">
        <ele>340</ele>
        <time>2015-09-10T12:37:51.000Z</time>
      </trkpt>
      <trkpt lat="47.73651" lon="6.11895">
        <ele>338</ele>
        <time>2015-09-10T12:37:56.000Z</time>
      </trkpt>
      <trkpt lat="47.73648" lon="6.11904">
        <ele>337</ele>
        <time>2015-09-10T12:37:57.000Z</time>
      </trkpt>
      <trkpt lat="47.73646" lon="6.11914">
        <ele>337</ele>
        <time>2015-09-10T12:37:58.000Z</time>
      </trkpt>
      <trkpt lat="47.73643" lon="6.11924">
        <ele>334</ele>
        <time>2015-09-10T12:37:59.000Z</time>
      </trkpt>
      <trkpt lat="47.73641" lon="6.11934">
        <ele>334</ele>
        <time>2015-09-10T12:38:00.000Z</time>
      </trkpt>
      <trkpt lat="47.73638" lon="6.11945">
        <ele>334</ele>
        <time>2015-09-10T12:38:01.000Z</time>
      </trkpt>
      <trkpt lat="47.73635" lon="6.11956">
        <ele>334</ele>
        <time>2015-09-10T12:38:02.000Z</time>
      </trkpt>
      <trkpt lat="47.73632" lon="6.11968">
        <ele>334</ele>
        <time>2015-09-10T12:38:03.000Z</time>
      </trkpt>
      <trkpt lat="47.73629" lon="6.1198">
        <ele>333</ele>
        <time>2015-09-10T12:38:04.000Z</time>
      </trkpt>
      <trkpt lat="47.73625" lon="6.11994">
        <ele>333</ele>
        <time>2015-09-10T12:38:05.000Z</time>
      </trkpt>
      <trkpt lat="47.73622" lon="6.12007">
        <ele>331</ele>
        <time>2015-09-10T12:38:06.000Z</time>
      </trkpt>
      <trkpt lat="47.73619" lon="6.1202">
        <ele>331</ele>
        <time>2015-09-10T12:38:07.000Z</time>
      </trkpt>
      <trkpt lat="47.73614" lon="6.12033">
        <ele>331</ele>
        <time>2015-09-10T12:38:08.000Z</time>
      </trkpt>
      <trkpt lat="47.73608" lon="6.12044">
        <ele>331</ele>
        <time>2015-09-10T12:38:09.000Z</time>
      </trkpt>
      <trkpt lat="47.73602" lon="6.12056">
        <ele>331</ele>
        <time>2015-09-10T12:38:10.000Z</time>
      </trkpt>
      <trkpt lat="47.73597" lon="6.12065">
        <ele>331</ele>
        <time>2015-09-10T12:38:11.000Z</time>
      </trkpt>
      <trkpt lat="47.73585" lon="6.1209">
        <ele>330</ele>
        <time>2015-09-10T12:38:14.000Z</time>
      </trkpt>
      <trkpt lat="47.7357" lon="6.12116">
        <ele>331</ele>
        <time>2015-09-10T12:38:18.000Z</time>
      </trkpt>
      <trkpt lat="47.73566" lon="6.12122">
        <ele>331</ele>
        <time>2015-09-10T12:38:19.000Z</time>
      </trkpt>
      <trkpt lat="47.73563" lon="6.12128">
        <ele>331</ele>
        <time>2015-09-10T12:38:20.000Z</time>
      </trkpt>
      <trkpt lat="47.73557" lon="6.1214">
        <ele>332</ele>
        <time>2015-09-10T12:38:22.000Z</time>
      </trkpt>
      <trkpt lat="47.73553" lon="6.12152">
        <ele>332</ele>
        <time>2015-09-10T12:38:24.000Z</time>
      </trkpt>
      <trkpt lat="47.7354" lon="6.12179">
        <ele>333</ele>
        <time>2015-09-10T12:38:29.000Z</time>
      </trkpt>
      <trkpt lat="47.73538" lon="6.12184">
        <ele>333</ele>
        <time>2015-09-10T12:38:30.000Z</time>
      </trkpt>
      <trkpt lat="47.73536" lon="6.12188">
        <ele>333</ele>
        <time>2015-09-10T12:38:31.000Z</time>
      </trkpt>
      <trkpt lat="47.73535" lon="6.12193">
        <ele>333</ele>
        <time>2015-09-10T12:38:32.000Z</time>
      </trkpt>
      <trkpt lat="47.73533" lon="6.12197">
        <ele>333</ele>
        <time>2015-09-10T12:38:33.000Z</time>
      </trkpt>
      <trkpt lat="47.7353" lon="6.12202">
        <ele>333</ele>
        <time>2015-09-10T12:38:34.000Z</time>
      </trkpt>
      <trkpt lat="47.73517" lon="6.12231">
        <ele>333</ele>
        <time>2015-09-10T12:38:40.000Z</time>
      </trkpt>
      <trkpt lat="47.73505" lon="6.12259">
        <ele>334</ele>
        <time>2015-09-10T12:38:45.000Z</time>
      </trkpt>
      <trkpt lat="47.73491" lon="6.12289">
        <ele>334</ele>
        <time>2015-09-10T12:38:50.000Z</time>
      </trkpt>
      <trkpt lat="47.73486" lon="6.12304">
        <ele>334</ele>
        <time>2015-09-10T12:38:52.000Z</time>
      </trkpt>
      <trkpt lat="47.73483" lon="6.12313">
        <ele>334</ele>
        <time>2015-09-10T12:38:53.000Z</time>
      </trkpt>
      <trkpt lat="47.73474" lon="6.12329">
        <ele>335</ele>
        <time>2015-09-10T12:38:55.000Z</time>
      </trkpt>
      <trkpt lat="47.7347" lon="6.12334">
        <ele>338</ele>
        <time>2015-09-10T12:38:56.000Z</time>
      </trkpt>
      <trkpt lat="47.73465" lon="6.12338">
        <ele>338</ele>
        <time>2015-09-10T12:38:57.000Z</time>
      </trkpt>
      <trkpt lat="47.7346" lon="6.12341">
        <ele>338</ele>
        <time>2015-09-10T12:38:58.000Z</time>
      </trkpt>
      <trkpt lat="47.73455" lon="6.12344">
        <ele>338</ele>
        <time>2015-09-10T12:38:59.000Z</time>
      </trkpt>
      <trkpt lat="47.73451" lon="6.12347">
        <ele>339</ele>
        <time>2015-09-10T12:39:00.000Z</time>
      </trkpt>
      <trkpt lat="47.73412" lon="6.12365">
        <ele>339</ele>
        <time>2015-09-10T12:39:08.000Z</time>
      </trkpt>
      <trkpt lat="47.73402" lon="6.12369">
        <ele>340</ele>
        <time>2015-09-10T12:39:10.000Z</time>
      </trkpt>
      <trkpt lat="47.73392" lon="6.12371">
        <ele>340</ele>
        <time>2015-09-10T12:39:12.000Z</time>
      </trkpt>
      <trkpt lat="47.73387" lon="6.12373">
        <ele>340</ele>
        <time>2015-09-10T12:39:13.000Z</time>
      </trkpt>
      <trkpt lat="47.73382" lon="6.12374">
        <ele>340</ele>
        <time>2015-09-10T12:39:14.000Z</time>
      </trkpt>
      <trkpt lat="47.73376" lon="6.12376">
        <ele>340</ele>
        <time>2015-09-10T12:39:15.000Z</time>
      </trkpt>
      <trkpt lat="47.73371" lon="6.12377">
        <ele>340</ele>
        <time>2015-09-10T12:39:16.000Z</time>
      </trkpt>
      <trkpt lat="47.73366" lon="6.12379">
        <ele>340</ele>
        <time>2015-09-10T12:39:17.000Z</time>
      </trkpt>
      <trkpt lat="47.73361" lon="6.12381">
        <ele>340</ele>
        <time>2015-09-10T12:39:18.000Z</time>
      </trkpt>
      <trkpt lat="47.7333" lon="6.12398">
        <ele>340</ele>
        <time>2015-09-10T12:39:24.000Z</time>
      </trkpt>
      <trkpt lat="47.7332" lon="6.12415">
        <ele>340</ele>
        <time>2015-09-10T12:39:27.000Z</time>
      </trkpt>
      <trkpt lat="47.73316" lon="6.12441">
        <ele>341</ele>
        <time>2015-09-10T12:39:31.000Z</time>
      </trkpt>
      <trkpt lat="47.73316" lon="6.12455">
        <ele>341</ele>
        <time>2015-09-10T12:39:33.000Z</time>
      </trkpt>
      <trkpt lat="47.73319" lon="6.1248">
        <ele>341</ele>
        <time>2015-09-10T12:39:36.000Z</time>
      </trkpt>
      <trkpt lat="47.73319" lon="6.12488">
        <ele>341</ele>
        <time>2015-09-10T12:39:37.000Z</time>
      </trkpt>
      <trkpt lat="47.73322" lon="6.12534">
        <ele>341</ele>
        <time>2015-09-10T12:39:42.000Z</time>
      </trkpt>
      <trkpt lat="47.73322" lon="6.12552">
        <ele>342</ele>
        <time>2015-09-10T12:39:44.000Z</time>
      </trkpt>
      <trkpt lat="47.73322" lon="6.12579">
        <ele>342</ele>
        <time>2015-09-10T12:39:47.000Z</time>
      </trkpt>
      <trkpt lat="47.73322" lon="6.12611">
        <ele>342</ele>
        <time>2015-09-10T12:39:51.000Z</time>
      </trkpt>
      <trkpt lat="47.73323" lon="6.12627">
        <ele>343</ele>
        <time>2015-09-10T12:39:53.000Z</time>
      </trkpt>
      <trkpt lat="47.73324" lon="6.12649">
        <ele>343</ele>
        <time>2015-09-10T12:39:56.000Z</time>
      </trkpt>
      <trkpt lat="47.73324" lon="6.12661">
        <ele>343</ele>
        <time>2015-09-10T12:39:58.000Z</time>
      </trkpt>
      <trkpt lat="47.73327" lon="6.12694">
        <ele>343</ele>
        <time>2015-09-10T12:40:03.000Z</time>
      </trkpt>
      <trkpt lat="47.73326" lon="6.12721">
        <ele>342</ele>
        <time>2015-09-10T12:40:07.000Z</time>
      </trkpt>
      <trkpt lat="47.73328" lon="6.12762">
        <ele>341</ele>
        <time>2015-09-10T12:40:12.000Z</time>
      </trkpt>
      <trkpt lat="47.7333" lon="6.12794">
        <ele>339</ele>
        <time>2015-09-10T12:40:16.000Z</time>
      </trkpt>
      <trkpt lat="47.73331" lon="6.12803">
        <ele>339</ele>
        <time>2015-09-10T12:40:17.000Z</time>
      </trkpt>
      <trkpt lat="47.73334" lon="6.12836">
        <ele>339</ele>
        <time>2015-09-10T12:40:21.000Z</time>
      </trkpt>
      <trkpt lat="47.73336" lon="6.1286">
        <ele>341</ele>
        <time>2015-09-10T12:40:24.000Z</time>
      </trkpt>
      <trkpt lat="47.73336" lon="6.12876">
        <ele>341</ele>
        <time>2015-09-10T12:40:26.000Z</time>
      </trkpt>
      <trkpt lat="47.73336" lon="6.12884">
        <ele>341</ele>
        <time>2015-09-10T12:40:27.000Z</time>
      </trkpt>
      <trkpt lat="47.73336" lon="6.12892">
        <ele>341</ele>
        <time>2015-09-10T12:40:28.000Z</time>
      </trkpt>
      <trkpt lat="47.73336" lon="6.129">
        <ele>341</ele>
        <time>2015-09-10T12:40:29.000Z</time>
      </trkpt>
      <trkpt lat="47.73336" lon="6.12908">
        <ele>341</ele>
        <time>2015-09-10T12:40:30.000Z</time>
      </trkpt>
      <trkpt lat="47.73336" lon="6.12917">
        <ele>340</ele>
        <time>2015-09-10T12:40:31.000Z</time>
      </trkpt>
      <trkpt lat="47.73337" lon="6.12935">
        <ele>342</ele>
        <time>2015-09-10T12:40:33.000Z</time>
      </trkpt>
      <trkpt lat="47.73338" lon="6.12965">
        <ele>343</ele>
        <time>2015-09-10T12:40:37.000Z</time>
      </trkpt>
      <trkpt lat="47.73338" lon="6.12972">
        <ele>343</ele>
        <time>2015-09-10T12:40:38.000Z</time>
      </trkpt>
      <trkpt lat="47.73338" lon="6.12978">
        <ele>343</ele>
        <time>2015-09-10T12:40:39.000Z</time>
      </trkpt>
      <trkpt lat="47.73338" lon="6.12985">
        <ele>343</ele>
        <time>2015-09-10T12:40:40.000Z</time>
      </trkpt>
      <trkpt lat="47.73337" lon="6.12991">
        <ele>342</ele>
        <time>2015-09-10T12:40:41.000Z</time>
      </trkpt>
      <trkpt lat="47.73334" lon="6.13008">
        <ele>343</ele>
        <time>2015-09-10T12:40:44.000Z</time>
      </trkpt>
      <trkpt lat="47.73332" lon="6.13012">
        <ele>343</ele>
        <time>2015-09-10T12:40:45.000Z</time>
      </trkpt>
      <trkpt lat="47.73329" lon="6.13014">
        <ele>343</ele>
        <time>2015-09-10T12:40:46.000Z</time>
      </trkpt>
      <trkpt lat="47.73326" lon="6.13015">
        <ele>343</ele>
        <time>2015-09-10T12:40:47.000Z</time>
      </trkpt>
      <trkpt lat="47.73323" lon="6.13015">
        <ele>343</ele>
        <time>2015-09-10T12:40:48.000Z</time>
      </trkpt>
      <trkpt lat="47.73319" lon="6.13014">
        <ele>344</ele>
        <time>2015-09-10T12:40:49.000Z</time>
      </trkpt>
      <trkpt lat="47.73316" lon="6.13013">
        <ele>344</ele>
        <time>2015-09-10T12:40:50.000Z</time>
      </trkpt>
      <trkpt lat="47.73298" lon="6.13008">
        <ele>344</ele>
        <time>2015-09-10T12:40:55.000Z</time>
      </trkpt>
      <trkpt lat="47.73297" lon="6.13009">
        <ele>344</ele>
        <time>2015-09-10T12:40:56.000Z</time>
      </trkpt>
      <trkpt lat="47.73296" lon="6.1301">
        <ele>344</ele>
        <time>2015-09-10T12:40:57.000Z</time>
      </trkpt>
      <trkpt lat="47.73299" lon="6.13011">
        <ele>344</ele>
        <time>2015-09-10T12:41:00.000Z</time>
      </trkpt>
      <trkpt lat="47.73313" lon="6.13015">
        <ele>344</ele>
        <time>2015-09-10T12:41:05.000Z</time>
      </trkpt>
      <trkpt lat="47.73338" lon="6.13032">
        <ele>346</ele>
        <time>2015-09-10T12:41:11.000Z</time>
      </trkpt>
      <trkpt lat="47.73357" lon="6.13046">
        <ele>347</ele>
        <time>2015-09-10T12:41:17.000Z</time>
      </trkpt>
      <trkpt lat="47.73367" lon="6.13054">
        <ele>347</ele>
        <time>2015-09-10T12:41:20.000Z</time>
      </trkpt>
      <trkpt lat="47.7337" lon="6.13056">
        <ele>347</ele>
        <time>2015-09-10T12:41:21.000Z</time>
      </trkpt>
      <trkpt lat="47.73372" lon="6.13058">
        <ele>347</ele>
        <time>2015-09-10T12:41:22.000Z</time>
      </trkpt>
      <trkpt lat="47.73376" lon="6.1306">
        <ele>348</ele>
        <time>2015-09-10T12:41:23.000Z</time>
      </trkpt>
      <trkpt lat="47.73393" lon="6.13071">
        <ele>348</ele>
        <time>2015-09-10T12:41:30.000Z</time>
      </trkpt>
      <trkpt lat="47.73396" lon="6.13073">
        <ele>348</ele>
        <time>2015-09-10T12:41:31.000Z</time>
      </trkpt>
      <trkpt lat="47.73398" lon="6.13075">
        <ele>348</ele>
        <time>2015-09-10T12:41:32.000Z</time>
      </trkpt>
      <trkpt lat="47.73401" lon="6.13077">
        <ele>349</ele>
        <time>2015-09-10T12:41:33.000Z</time>
      </trkpt>
      <trkpt lat="47.73403" lon="6.13079">
        <ele>349</ele>
        <time>2015-09-10T12:41:34.000Z</time>
      </trkpt>
      <trkpt lat="47.73414" lon="6.13087">
        <ele>350</ele>
        <time>2015-09-10T12:41:38.000Z</time>
      </trkpt>
      <trkpt lat="47.7344" lon="6.13102">
        <ele>352</ele>
        <time>2015-09-10T12:41:46.000Z</time>
      </trkpt>
      <trkpt lat="47.73443" lon="6.13103">
        <ele>352</ele>
        <time>2015-09-10T12:41:47.000Z</time>
      </trkpt>
      <trkpt lat="47.73446" lon="6.13104">
        <ele>352</ele>
        <time>2015-09-10T12:41:48.000Z</time>
      </trkpt>
      <trkpt lat="47.7345" lon="6.13104">
        <ele>352</ele>
        <time>2015-09-10T12:41:49.000Z</time>
      </trkpt>
      <trkpt lat="47.73463" lon="6.13109">
        <ele>352</ele>
        <time>2015-09-10T12:41:53.000Z</time>
      </trkpt>
      <trkpt lat="47.73491" lon="6.13115">
        <ele>352</ele>
        <time>2015-09-10T12:42:01.000Z</time>
      </trkpt>
      <trkpt lat="47.73494" lon="6.13116">
        <ele>352</ele>
        <time>2015-09-10T12:42:02.000Z</time>
      </trkpt>
      <trkpt lat="47.73497" lon="6.13116">
        <ele>352</ele>
        <time>2015-09-10T12:42:03.000Z</time>
      </trkpt>
      <trkpt lat="47.735" lon="6.13117">
        <ele>353</ele>
        <time>2015-09-10T12:42:04.000Z</time>
      </trkpt>
      <trkpt lat="47.73503" lon="6.13118">
        <ele>353</ele>
        <time>2015-09-10T12:42:05.000Z</time>
      </trkpt>
      <trkpt lat="47.73506" lon="6.13119">
        <ele>353</ele>
        <time>2015-09-10T12:42:06.000Z</time>
      </trkpt>
      <trkpt lat="47.73512" lon="6.13119">
        <ele>353</ele>
        <time>2015-09-10T12:42:08.000Z</time>
      </trkpt>
      <trkpt lat="47.7353" lon="6.13125">
        <ele>353</ele>
        <time>2015-09-10T12:42:14.000Z</time>
      </trkpt>
      <trkpt lat="47.73549" lon="6.13136">
        <ele>354</ele>
        <time>2015-09-10T12:42:20.000Z</time>
      </trkpt>
      <trkpt lat="47.73552" lon="6.13137">
        <ele>354</ele>
        <time>2015-09-10T12:42:21.000Z</time>
      </trkpt>
      <trkpt lat="47.73555" lon="6.13139">
        <ele>354</ele>
        <time>2015-09-10T12:42:22.000Z</time>
      </trkpt>
      <trkpt lat="47.73558" lon="6.1314">
        <ele>354</ele>
        <time>2015-09-10T12:42:23.000Z</time>
      </trkpt>
      <trkpt lat="47.73561" lon="6.13141">
        <ele>354</ele>
        <time>2015-09-10T12:42:24.000Z</time>
      </trkpt>
      <trkpt lat="47.73572" lon="6.13147">
        <ele>355</ele>
        <time>2015-09-10T12:42:28.000Z</time>
      </trkpt>
      <trkpt lat="47.73596" lon="6.13159">
        <ele>356</ele>
        <time>2015-09-10T12:42:36.000Z</time>
      </trkpt>
      <trkpt lat="47.73599" lon="6.13161">
        <ele>356</ele>
        <time>2015-09-10T12:42:37.000Z</time>
      </trkpt>
      <trkpt lat="47.73602" lon="6.13163">
        <ele>356</ele>
        <time>2015-09-10T12:42:38.000Z</time>
      </trkpt>
      <trkpt lat="47.73604" lon="6.13165">
        <ele>356</ele>
        <time>2015-09-10T12:42:39.000Z</time>
      </trkpt>
      <trkpt lat="47.73607" lon="6.13167">
        <ele>357</ele>
        <time>2015-09-10T12:42:40.000Z</time>
      </trkpt>
      <trkpt lat="47.73609" lon="6.1317">
        <ele>357</ele>
        <time>2015-09-10T12:42:41.000Z</time>
      </trkpt>
      <trkpt lat="47.73615" lon="6.13174">
        <ele>357</ele>
        <time>2015-09-10T12:42:43.000Z</time>
      </trkpt>
      <trkpt lat="47.73631" lon="6.13189">
        <ele>358</ele>
        <time>2015-09-10T12:42:50.000Z</time>
      </trkpt>
      <trkpt lat="47.73634" lon="6.13191">
        <ele>358</ele>
        <time>2015-09-10T12:42:51.000Z</time>
      </trkpt>
      <trkpt lat="47.73636" lon="6.13193">
        <ele>358</ele>
        <time>2015-09-10T12:42:52.000Z</time>
      </trkpt>
      <trkpt lat="47.73639" lon="6.13194">
        <ele>358</ele>
        <time>2015-09-10T12:42:53.000Z</time>
      </trkpt>
      <trkpt lat="47.73641" lon="6.13197">
        <ele>358</ele>
        <time>2015-09-10T12:42:54.000Z</time>
      </trkpt>
      <trkpt lat="47.73644" lon="6.13199">
        <ele>358</ele>
        <time>2015-09-10T12:42:55.000Z</time>
      </trkpt>
      <trkpt lat="47.7365" lon="6.13205">
        <ele>358</ele>
        <time>2015-09-10T12:42:57.000Z</time>
      </trkpt>
      <trkpt lat="47.73662" lon="6.13217">
        <ele>358</ele>
        <time>2015-09-10T12:43:02.000Z</time>
      </trkpt>
      <trkpt lat="47.73665" lon="6.1322">
        <ele>358</ele>
        <time>2015-09-10T12:43:03.000Z</time>
      </trkpt>
      <trkpt lat="47.73667" lon="6.13222">
        <ele>359</ele>
        <time>2015-09-10T12:43:04.000Z</time>
      </trkpt>
      <trkpt lat="47.7367" lon="6.13225">
        <ele>359</ele>
        <time>2015-09-10T12:43:05.000Z</time>
      </trkpt>
      <trkpt lat="47.73672" lon="6.13227">
        <ele>359</ele>
        <time>2015-09-10T12:43:06.000Z</time>
      </trkpt>
      <trkpt lat="47.73675" lon="6.13229">
        <ele>359</ele>
        <time>2015-09-10T12:43:07.000Z</time>
      </trkpt>
      <trkpt lat="47.73679" lon="6.13234">
        <ele>359</ele>
        <time>2015-09-10T12:43:09.000Z</time>
      </trkpt>
      <trkpt lat="47.73693" lon="6.1325">
        <ele>359</ele>
        <time>2015-09-10T12:43:15.000Z</time>
      </trkpt>
      <trkpt lat="47.737" lon="6.13258">
        <ele>361</ele>
        <time>2015-09-10T12:43:18.000Z</time>
      </trkpt>
      <trkpt lat="47.73702" lon="6.13261">
        <ele>361</ele>
        <time>2015-09-10T12:43:19.000Z</time>
      </trkpt>
      <trkpt lat="47.73705" lon="6.13263">
        <ele>362</ele>
        <time>2015-09-10T12:43:20.000Z</time>
      </trkpt>
      <trkpt lat="47.73708" lon="6.13266">
        <ele>362</ele>
        <time>2015-09-10T12:43:21.000Z</time>
      </trkpt>
      <trkpt lat="47.7371" lon="6.13269">
        <ele>362</ele>
        <time>2015-09-10T12:43:22.000Z</time>
      </trkpt>
      <trkpt lat="47.73714" lon="6.13283">
        <ele>362</ele>
        <time>2015-09-10T12:43:26.000Z</time>
      </trkpt>
      <trkpt lat="47.7371" lon="6.133">
        <ele>362</ele>
        <time>2015-09-10T12:43:30.000Z</time>
      </trkpt>
      <trkpt lat="47.73709" lon="6.13305">
        <ele>363</ele>
        <time>2015-09-10T12:43:31.000Z</time>
      </trkpt>
      <trkpt lat="47.73699" lon="6.1332">
        <ele>363</ele>
        <time>2015-09-10T12:43:36.000Z</time>
      </trkpt>
      <trkpt lat="47.73697" lon="6.13322">
        <ele>363</ele>
        <time>2015-09-10T12:43:37.000Z</time>
      </trkpt>
      <trkpt lat="47.73694" lon="6.13324">
        <ele>364</ele>
        <time>2015-09-10T12:43:38.000Z</time>
      </trkpt>
      <trkpt lat="47.73691" lon="6.13324">
        <ele>364</ele>
        <time>2015-09-10T12:43:39.000Z</time>
      </trkpt>
      <trkpt lat="47.73688" lon="6.13325">
        <ele>364</ele>
        <time>2015-09-10T12:43:40.000Z</time>
      </trkpt>
      <trkpt lat="47.73679" lon="6.13327">
        <ele>365</ele>
        <time>2015-09-10T12:43:43.000Z</time>
      </trkpt>
      <trkpt lat="47.73658" lon="6.13334">
        <ele>368</ele>
        <time>2015-09-10T12:43:51.000Z</time>
      </trkpt>
      <trkpt lat="47.73639" lon="6.13338">
        <ele>369</ele>
        <time>2015-09-10T12:43:58.000Z</time>
      </trkpt>
      <trkpt lat="47.73623" lon="6.13341">
        <ele>369</ele>
        <time>2015-09-10T12:44:03.000Z</time>
      </trkpt>
      <trkpt lat="47.7362" lon="6.1334">
        <ele>369</ele>
        <time>2015-09-10T12:44:04.000Z</time>
      </trkpt>
      <trkpt lat="47.73617" lon="6.1334">
        <ele>369</ele>
        <time>2015-09-10T12:44:05.000Z</time>
      </trkpt>
      <trkpt lat="47.73614" lon="6.13341">
        <ele>369</ele>
        <time>2015-09-10T12:44:06.000Z</time>
      </trkpt>
      <trkpt lat="47.73611" lon="6.13341">
        <ele>369</ele>
        <time>2015-09-10T12:44:07.000Z</time>
      </trkpt>
      <trkpt lat="47.73603" lon="6.13342">
        <ele>369</ele>
        <time>2015-09-10T12:44:10.000Z</time>
      </trkpt>
      <trkpt lat="47.73589" lon="6.13347">
        <ele>369</ele>
        <time>2015-09-10T12:44:15.000Z</time>
      </trkpt>
      <trkpt lat="47.73584" lon="6.13348">
        <ele>369</ele>
        <time>2015-09-10T12:44:17.000Z</time>
      </trkpt>
      <trkpt lat="47.73582" lon="6.13348">
        <ele>369</ele>
        <time>2015-09-10T12:44:18.000Z</time>
      </trkpt>
      <trkpt lat="47.73578" lon="6.1335">
        <ele>369</ele>
        <time>2015-09-10T12:44:19.000Z</time>
      </trkpt>
      <trkpt lat="47.73575" lon="6.13351">
        <ele>370</ele>
        <time>2015-09-10T12:44:20.000Z</time>
      </trkpt>
      <trkpt lat="47.73573" lon="6.13351">
        <ele>370</ele>
        <time>2015-09-10T12:44:21.000Z</time>
      </trkpt>
      <trkpt lat="47.73555" lon="6.13358">
        <ele>370</ele>
        <time>2015-09-10T12:44:27.000Z</time>
      </trkpt>
      <trkpt lat="47.73544" lon="6.13363">
        <ele>370</ele>
        <time>2015-09-10T12:44:32.000Z</time>
      </trkpt>
      <trkpt lat="47.73542" lon="6.13364">
        <ele>370</ele>
        <time>2015-09-10T12:44:33.000Z</time>
      </trkpt>
      <trkpt lat="47.7354" lon="6.13365">
        <ele>370</ele>
        <time>2015-09-10T12:44:34.000Z</time>
      </trkpt>
      <trkpt lat="47.73538" lon="6.13367">
        <ele>371</ele>
        <time>2015-09-10T12:44:35.000Z</time>
      </trkpt>
      <trkpt lat="47.73536" lon="6.13368">
        <ele>371</ele>
        <time>2015-09-10T12:44:36.000Z</time>
      </trkpt>
      <trkpt lat="47.73527" lon="6.13373">
        <ele>371</ele>
        <time>2015-09-10T12:44:40.000Z</time>
      </trkpt>
      <trkpt lat="47.73509" lon="6.13383">
        <ele>371</ele>
        <time>2015-09-10T12:44:47.000Z</time>
      </trkpt>
      <trkpt lat="47.73507" lon="6.13385">
        <ele>371</ele>
        <time>2015-09-10T12:44:48.000Z</time>
      </trkpt>
      <trkpt lat="47.73504" lon="6.13386">
        <ele>371</ele>
        <time>2015-09-10T12:44:49.000Z</time>
      </trkpt>
      <trkpt lat="47.73502" lon="6.13387">
        <ele>371</ele>
        <time>2015-09-10T12:44:50.000Z</time>
      </trkpt>
      <trkpt lat="47.735" lon="6.13388">
        <ele>372</ele>
        <time>2015-09-10T12:44:51.000Z</time>
      </trkpt>
      <trkpt lat="47.73495" lon="6.13389">
        <ele>372</ele>
        <time>2015-09-10T12:44:53.000Z</time>
      </trkpt>
      <trkpt lat="47.73486" lon="6.13395">
        <ele>373</ele>
        <time>2015-09-10T12:44:58.000Z</time>
      </trkpt>
      <trkpt lat="47.73483" lon="6.13397">
        <ele>373</ele>
        <time>2015-09-10T12:45:00.000Z</time>
      </trkpt>
      <trkpt lat="47.73481" lon="6.13399">
        <ele>373</ele>
        <time>2015-09-10T12:45:01.000Z</time>
      </trkpt>
      <trkpt lat="47.73479" lon="6.134">
        <ele>373</ele>
        <time>2015-09-10T12:45:02.000Z</time>
      </trkpt>
      <trkpt lat="47.73476" lon="6.134">
        <ele>373</ele>
        <time>2015-09-10T12:45:03.000Z</time>
      </trkpt>
      <trkpt lat="47.73474" lon="6.13401">
        <ele>373</ele>
        <time>2015-09-10T12:45:04.000Z</time>
      </trkpt>
      <trkpt lat="47.73469" lon="6.13404">
        <ele>373</ele>
        <time>2015-09-10T12:45:06.000Z</time>
      </trkpt>
      <trkpt lat="47.73451" lon="6.13414">
        <ele>373</ele>
        <time>2015-09-10T12:45:13.000Z</time>
      </trkpt>
      <trkpt lat="47.73441" lon="6.1342">
        <ele>376</ele>
        <time>2015-09-10T12:45:17.000Z</time>
      </trkpt>
      <trkpt lat="47.73439" lon="6.13421">
        <ele>376</ele>
        <time>2015-09-10T12:45:18.000Z</time>
      </trkpt>
      <trkpt lat="47.73437" lon="6.13421">
        <ele>376</ele>
        <time>2015-09-10T12:45:19.000Z</time>
      </trkpt>
      <trkpt lat="47.73435" lon="6.13422">
        <ele>376</ele>
        <time>2015-09-10T12:45:20.000Z</time>
      </trkpt>
      <trkpt lat="47.73433" lon="6.13423">
        <ele>376</ele>
        <time>2015-09-10T12:45:21.000Z</time>
      </trkpt>
      <trkpt lat="47.73427" lon="6.13426">
        <ele>376</ele>
        <time>2015-09-10T12:45:24.000Z</time>
      </trkpt>
      <trkpt lat="47.73413" lon="6.13432">
        <ele>376</ele>
        <time>2015-09-10T12:45:30.000Z</time>
      </trkpt>
      <trkpt lat="47.73397" lon="6.13437">
        <ele>376</ele>
        <time>2015-09-10T12:45:35.000Z</time>
      </trkpt>
      <trkpt lat="47.73376" lon="6.13443">
        <ele>376</ele>
        <time>2015-09-10T12:45:42.000Z</time>
      </trkpt>
      <trkpt lat="47.73357" lon="6.13454">
        <ele>376</ele>
        <time>2015-09-10T12:45:47.000Z</time>
      </trkpt>
      <trkpt lat="47.73336" lon="6.13473">
        <ele>376</ele>
        <time>2015-09-10T12:45:53.000Z</time>
      </trkpt>
      <trkpt lat="47.73333" lon="6.13476">
        <ele>374</ele>
        <time>2015-09-10T12:45:54.000Z</time>
      </trkpt>
      <trkpt lat="47.7333" lon="6.13479">
        <ele>374</ele>
        <time>2015-09-10T12:45:55.000Z</time>
      </trkpt>
      <trkpt lat="47.73327" lon="6.13483">
        <ele>374</ele>
        <time>2015-09-10T12:45:56.000Z</time>
      </trkpt>
      <trkpt lat="47.73324" lon="6.13486">
        <ele>374</ele>
        <time>2015-09-10T12:45:57.000Z</time>
      </trkpt>
      <trkpt lat="47.73321" lon="6.13489">
        <ele>374</ele>
        <time>2015-09-10T12:45:58.000Z</time>
      </trkpt>
      <trkpt lat="47.73315" lon="6.13495">
        <ele>374</ele>
        <time>2015-09-10T12:46:00.000Z</time>
      </trkpt>
      <trkpt lat="47.73296" lon="6.13514">
        <ele>375</ele>
        <time>2015-09-10T12:46:07.000Z</time>
      </trkpt>
      <trkpt lat="47.73278" lon="6.13533">
        <ele>375</ele>
        <time>2015-09-10T12:46:15.000Z</time>
      </trkpt>
      <trkpt lat="47.73274" lon="6.13538">
        <ele>375</ele>
        <time>2015-09-10T12:46:19.000Z</time>
      </trkpt>
      <trkpt lat="47.7327" lon="6.13542">
        <ele>375</ele>
        <time>2015-09-10T12:47:20.000Z</time>
      </trkpt>
      <trkpt lat="47.73258" lon="6.13552">
        <ele>375</ele>
        <time>2015-09-10T12:47:25.000Z</time>
      </trkpt>
      <trkpt lat="47.73236" lon="6.13577">
        <ele>373</ele>
        <time>2015-09-10T12:47:31.000Z</time>
      </trkpt>
      <trkpt lat="47.73221" lon="6.13594">
        <ele>371</ele>
        <time>2015-09-10T12:47:34.000Z</time>
      </trkpt>
      <trkpt lat="47.73216" lon="6.13599">
        <ele>371</ele>
        <time>2015-09-10T12:47:35.000Z</time>
      </trkpt>
      <trkpt lat="47.7321" lon="6.13603">
        <ele>371</ele>
        <time>2015-09-10T12:47:36.000Z</time>
      </trkpt>
      <trkpt lat="47.73205" lon="6.13609">
        <ele>370</ele>
        <time>2015-09-10T12:47:37.000Z</time>
      </trkpt>
      <trkpt lat="47.73187" lon="6.13626">
        <ele>370</ele>
        <time>2015-09-10T12:47:40.000Z</time>
      </trkpt>
      <trkpt lat="47.73181" lon="6.1363">
        <ele>369</ele>
        <time>2015-09-10T12:47:41.000Z</time>
      </trkpt>
      <trkpt lat="47.73174" lon="6.13636">
        <ele>369</ele>
        <time>2015-09-10T12:47:42.000Z</time>
      </trkpt>
      <trkpt lat="47.73167" lon="6.13642">
        <ele>369</ele>
        <time>2015-09-10T12:47:43.000Z</time>
      </trkpt>
      <trkpt lat="47.7316" lon="6.13648">
        <ele>364</ele>
        <time>2015-09-10T12:47:44.000Z</time>
      </trkpt>
      <trkpt lat="47.73153" lon="6.13655">
        <ele>364</ele>
        <time>2015-09-10T12:47:45.000Z</time>
      </trkpt>
      <trkpt lat="47.73145" lon="6.13662">
        <ele>364</ele>
        <time>2015-09-10T12:47:46.000Z</time>
      </trkpt>
      <trkpt lat="47.73137" lon="6.13668">
        <ele>364</ele>
        <time>2015-09-10T12:47:47.000Z</time>
      </trkpt>
      <trkpt lat="47.73129" lon="6.13675">
        <ele>363</ele>
        <time>2015-09-10T12:47:48.000Z</time>
      </trkpt>
      <trkpt lat="47.73121" lon="6.13681">
        <ele>363</ele>
        <time>2015-09-10T12:47:49.000Z</time>
      </trkpt>
      <trkpt lat="47.73114" lon="6.13686">
        <ele>362</ele>
        <time>2015-09-10T12:47:50.000Z</time>
      </trkpt>
      <trkpt lat="47.73106" lon="6.13692">
        <ele>362</ele>
        <time>2015-09-10T12:47:51.000Z</time>
      </trkpt>
      <trkpt lat="47.73099" lon="6.13697">
        <ele>362</ele>
        <time>2015-09-10T12:47:52.000Z</time>
      </trkpt>
      <trkpt lat="47.73092" lon="6.13701">
        <ele>362</ele>
        <time>2015-09-10T12:47:53.000Z</time>
      </trkpt>
      <trkpt lat="47.73086" lon="6.13706">
        <ele>362</ele>
        <time>2015-09-10T12:47:54.000Z</time>
      </trkpt>
      <trkpt lat="47.73073" lon="6.13715">
        <ele>357</ele>
        <time>2015-09-10T12:47:56.000Z</time>
      </trkpt>
      <trkpt lat="47.73046" lon="6.13735">
        <ele>357</ele>
        <time>2015-09-10T12:48:00.000Z</time>
      </trkpt>
      <trkpt lat="47.7302" lon="6.13749">
        <ele>356</ele>
        <time>2015-09-10T12:48:04.000Z</time>
      </trkpt>
      <trkpt lat="47.73008" lon="6.13753">
        <ele>356</ele>
        <time>2015-09-10T12:48:06.000Z</time>
      </trkpt>
      <trkpt lat="47.72964" lon="6.13759">
        <ele>360</ele>
        <time>2015-09-10T12:48:13.000Z</time>
      </trkpt>
      <trkpt lat="47.72935" lon="6.13763">
        <ele>362</ele>
        <time>2015-09-10T12:48:19.000Z</time>
      </trkpt>
      <trkpt lat="47.72933" lon="6.13761">
        <ele>362</ele>
        <time>2015-09-10T12:48:20.000Z</time>
      </trkpt>
      <trkpt lat="47.72931" lon="6.13755">
        <ele>363</ele>
        <time>2015-09-10T12:48:22.000Z</time>
      </trkpt>
      <trkpt lat="47.72919" lon="6.13738">
        <ele>361</ele>
        <time>2015-09-10T12:48:26.000Z</time>
      </trkpt>
      <trkpt lat="47.72893" lon="6.13706">
        <ele>363</ele>
        <time>2015-09-10T12:48:32.000Z</time>
      </trkpt>
      <trkpt lat="47.72859" lon="6.13666">
        <ele>359</ele>
        <time>2015-09-10T12:48:39.000Z</time>
      </trkpt>
      <trkpt lat="47.72824" lon="6.13625">
        <ele>360</ele>
        <time>2015-09-10T12:48:46.000Z</time>
      </trkpt>
      <trkpt lat="47.72802" lon="6.13599">
        <ele>359</ele>
        <time>2015-09-10T12:48:50.000Z</time>
      </trkpt>
      <trkpt lat="47.72797" lon="6.13594">
        <ele>359</ele>
        <time>2015-09-10T12:48:51.000Z</time>
      </trkpt>
      <trkpt lat="47.72792" lon="6.13588">
        <ele>359</ele>
        <time>2015-09-10T12:48:52.000Z</time>
      </trkpt>
      <trkpt lat="47.72787" lon="6.13582">
        <ele>353</ele>
        <time>2015-09-10T12:48:53.000Z</time>
      </trkpt>
      <trkpt lat="47.72783" lon="6.13577">
        <ele>353</ele>
        <time>2015-09-10T12:48:54.000Z</time>
      </trkpt>
      <trkpt lat="47.72761" lon="6.1355">
        <ele>352</ele>
        <time>2015-09-10T12:48:59.000Z</time>
      </trkpt>
      <trkpt lat="47.72756" lon="6.13544">
        <ele>352</ele>
        <time>2015-09-10T12:49:00.000Z</time>
      </trkpt>
      <trkpt lat="47.72747" lon="6.13533">
        <ele>355</ele>
        <time>2015-09-10T12:49:02.000Z</time>
      </trkpt>
      <trkpt lat="47.72741" lon="6.13527">
        <ele>354</ele>
        <time>2015-09-10T12:49:03.000Z</time>
      </trkpt>
      <trkpt lat="47.72736" lon="6.13521">
        <ele>354</ele>
        <time>2015-09-10T12:49:04.000Z</time>
      </trkpt>
      <trkpt lat="47.72732" lon="6.13516">
        <ele>353</ele>
        <time>2015-09-10T12:49:05.000Z</time>
      </trkpt>
      <trkpt lat="47.72726" lon="6.13511">
        <ele>354</ele>
        <time>2015-09-10T12:49:06.000Z</time>
      </trkpt>
      <trkpt lat="47.72703" lon="6.13482">
        <ele>348</ele>
        <time>2015-09-10T12:49:11.000Z</time>
      </trkpt>
      <trkpt lat="47.72698" lon="6.13477">
        <ele>348</ele>
        <time>2015-09-10T12:49:12.000Z</time>
      </trkpt>
      <trkpt lat="47.72693" lon="6.13471">
        <ele>348</ele>
        <time>2015-09-10T12:49:13.000Z</time>
      </trkpt>
      <trkpt lat="47.72688" lon="6.13466">
        <ele>348</ele>
        <time>2015-09-10T12:49:14.000Z</time>
      </trkpt>
      <trkpt lat="47.72684" lon="6.1346">
        <ele>347</ele>
        <time>2015-09-10T12:49:15.000Z</time>
      </trkpt>
      <trkpt lat="47.7268" lon="6.13454">
        <ele>347</ele>
        <time>2015-09-10T12:49:16.000Z</time>
      </trkpt>
      <trkpt lat="47.72675" lon="6.1345">
        <ele>347</ele>
        <time>2015-09-10T12:49:17.000Z</time>
      </trkpt>
      <trkpt lat="47.72658" lon="6.13442">
        <ele>353</ele>
        <time>2015-09-10T12:49:20.000Z</time>
      </trkpt>
      <trkpt lat="47.72641" lon="6.13441">
        <ele>354</ele>
        <time>2015-09-10T12:49:23.000Z</time>
      </trkpt>
      <trkpt lat="47.72625" lon="6.1344">
        <ele>356</ele>
        <time>2015-09-10T12:49:26.000Z</time>
      </trkpt>
      <trkpt lat="47.7261" lon="6.13439">
        <ele>357</ele>
        <time>2015-09-10T12:49:29.000Z</time>
      </trkpt>
      <trkpt lat="47.72594" lon="6.13439">
        <ele>358</ele>
        <time>2015-09-10T12:49:32.000Z</time>
      </trkpt>
      <trkpt lat="47.72585" lon="6.13438">
        <ele>358</ele>
        <time>2015-09-10T12:49:34.000Z</time>
      </trkpt>
      <trkpt lat="47.7257" lon="6.13438">
        <ele>361</ele>
        <time>2015-09-10T12:49:37.000Z</time>
      </trkpt>
      <trkpt lat="47.72542" lon="6.13439">
        <ele>362</ele>
        <time>2015-09-10T12:49:42.000Z</time>
      </trkpt>
      <trkpt lat="47.72537" lon="6.13439">
        <ele>362</ele>
        <time>2015-09-10T12:49:43.000Z</time>
      </trkpt>
      <trkpt lat="47.72532" lon="6.13439">
        <ele>362</ele>
        <time>2015-09-10T12:49:44.000Z</time>
      </trkpt>
      <trkpt lat="47.72527" lon="6.13439">
        <ele>362</ele>
        <time>2015-09-10T12:49:45.000Z</time>
      </trkpt>
      <trkpt lat="47.72521" lon="6.13439">
        <ele>362</ele>
        <time>2015-09-10T12:49:46.000Z</time>
      </trkpt>
      <trkpt lat="47.72511" lon="6.13438">
        <ele>361</ele>
        <time>2015-09-10T12:49:48.000Z</time>
      </trkpt>
      <trkpt lat="47.72496" lon="6.13436">
        <ele>361</ele>
        <time>2015-09-10T12:49:51.000Z</time>
      </trkpt>
      <trkpt lat="47.72481" lon="6.13436">
        <ele>362</ele>
        <time>2015-09-10T12:49:54.000Z</time>
      </trkpt>
      <trkpt lat="47.72467" lon="6.13437">
        <ele>362</ele>
        <time>2015-09-10T12:49:57.000Z</time>
      </trkpt>
      <trkpt lat="47.72462" lon="6.13437">
        <ele>362</ele>
        <time>2015-09-10T12:49:58.000Z</time>
      </trkpt>
      <trkpt lat="47.72457" lon="6.13436">
        <ele>362</ele>
        <time>2015-09-10T12:49:59.000Z</time>
      </trkpt>
      <trkpt lat="47.72453" lon="6.13436">
        <ele>362</ele>
        <time>2015-09-10T12:50:00.000Z</time>
      </trkpt>
      <trkpt lat="47.72449" lon="6.13436">
        <ele>362</ele>
        <time>2015-09-10T12:50:01.000Z</time>
      </trkpt>
      <trkpt lat="47.7242" lon="6.13435">
        <ele>362</ele>
        <time>2015-09-10T12:50:07.000Z</time>
      </trkpt>
      <trkpt lat="47.72389" lon="6.13433">
        <ele>361</ele>
        <time>2015-09-10T12:50:13.000Z</time>
      </trkpt>
      <trkpt lat="47.72354" lon="6.13433">
        <ele>360</ele>
        <time>2015-09-10T12:50:19.000Z</time>
      </trkpt>
      <trkpt lat="47.72347" lon="6.13433">
        <ele>360</ele>
        <time>2015-09-10T12:50:20.000Z</time>
      </trkpt>
      <trkpt lat="47.72339" lon="6.13432">
        <ele>360</ele>
        <time>2015-09-10T12:50:21.000Z</time>
      </trkpt>
      <trkpt lat="47.72331" lon="6.13432">
        <ele>357</ele>
        <time>2015-09-10T12:50:22.000Z</time>
      </trkpt>
      <trkpt lat="47.72324" lon="6.13431">
        <ele>357</ele>
        <time>2015-09-10T12:50:23.000Z</time>
      </trkpt>
      <trkpt lat="47.72316" lon="6.13431">
        <ele>357</ele>
        <time>2015-09-10T12:50:24.000Z</time>
      </trkpt>
      <trkpt lat="47.72308" lon="6.13431">
        <ele>356</ele>
        <time>2015-09-10T12:50:25.000Z</time>
      </trkpt>
      <trkpt lat="47.723" lon="6.1343">
        <ele>356</ele>
        <time>2015-09-10T12:50:26.000Z</time>
      </trkpt>
      <trkpt lat="47.72293" lon="6.13431">
        <ele>355</ele>
        <time>2015-09-10T12:50:27.000Z</time>
      </trkpt>
      <trkpt lat="47.72285" lon="6.13431">
        <ele>355</ele>
        <time>2015-09-10T12:50:28.000Z</time>
      </trkpt>
      <trkpt lat="47.72277" lon="6.13432">
        <ele>354</ele>
        <time>2015-09-10T12:50:29.000Z</time>
      </trkpt>
      <trkpt lat="47.72269" lon="6.13432">
        <ele>353</ele>
        <time>2015-09-10T12:50:30.000Z</time>
      </trkpt>
      <trkpt lat="47.72261" lon="6.13431">
        <ele>352</ele>
        <time>2015-09-10T12:50:31.000Z</time>
      </trkpt>
      <trkpt lat="47.72252" lon="6.13431">
        <ele>352</ele>
        <time>2015-09-10T12:50:32.000Z</time>
      </trkpt>
      <trkpt lat="47.72244" lon="6.1343">
        <ele>349</ele>
        <time>2015-09-10T12:50:33.000Z</time>
      </trkpt>
      <trkpt lat="47.72234" lon="6.1343">
        <ele>349</ele>
        <time>2015-09-10T12:50:34.000Z</time>
      </trkpt>
      <trkpt lat="47.72225" lon="6.1343">
        <ele>349</ele>
        <time>2015-09-10T12:50:35.000Z</time>
      </trkpt>
      <trkpt lat="47.72215" lon="6.1343">
        <ele>349</ele>
        <time>2015-09-10T12:50:36.000Z</time>
      </trkpt>
      <trkpt lat="47.72205" lon="6.1343">
        <ele>349</ele>
        <time>2015-09-10T12:50:37.000Z</time>
      </trkpt>
      <trkpt lat="47.72196" lon="6.1343">
        <ele>349</ele>
        <time>2015-09-10T12:50:38.000Z</time>
      </trkpt>
      <trkpt lat="47.72186" lon="6.1343">
        <ele>348</ele>
        <time>2015-09-10T12:50:39.000Z</time>
      </trkpt>
      <trkpt lat="47.72177" lon="6.13429">
        <ele>347</ele>
        <time>2015-09-10T12:50:40.000Z</time>
      </trkpt>
      <trkpt lat="47.72168" lon="6.13429">
        <ele>346</ele>
        <time>2015-09-10T12:50:41.000Z</time>
      </trkpt>
      <trkpt lat="47.72158" lon="6.13429">
        <ele>346</ele>
        <time>2015-09-10T12:50:42.000Z</time>
      </trkpt>
      <trkpt lat="47.72141" lon="6.13429">
        <ele>347</ele>
        <time>2015-09-10T12:50:44.000Z</time>
      </trkpt>
      <trkpt lat="47.72132" lon="6.13428">
        <ele>348</ele>
        <time>2015-09-10T12:50:45.000Z</time>
      </trkpt>
      <trkpt lat="47.72123" lon="6.13427">
        <ele>348</ele>
        <time>2015-09-10T12:50:46.000Z</time>
      </trkpt>
      <trkpt lat="47.72115" lon="6.13426">
        <ele>348</ele>
        <time>2015-09-10T12:50:47.000Z</time>
      </trkpt>
      <trkpt lat="47.72107" lon="6.13425">
        <ele>348</ele>
        <time>2015-09-10T12:50:48.000Z</time>
      </trkpt>
      <trkpt lat="47.72092" lon="6.13426">
        <ele>347</ele>
        <time>2015-09-10T12:50:50.000Z</time>
      </trkpt>
      <trkpt lat="47.72077" lon="6.13428">
        <ele>348</ele>
        <time>2015-09-10T12:50:52.000Z</time>
      </trkpt>
      <trkpt lat="47.72037" lon="6.13427">
        <ele>349</ele>
        <time>2015-09-10T12:50:58.000Z</time>
      </trkpt>
      <trkpt lat="47.71998" lon="6.13426">
        <ele>348</ele>
        <time>2015-09-10T12:51:04.000Z</time>
      </trkpt>
      <trkpt lat="47.71965" lon="6.13424">
        <ele>350</ele>
        <time>2015-09-10T12:51:10.000Z</time>
      </trkpt>
      <trkpt lat="47.71954" lon="6.13424">
        <ele>351</ele>
        <time>2015-09-10T12:51:12.000Z</time>
      </trkpt>
      <trkpt lat="47.7194" lon="6.13422">
        <ele>351</ele>
        <time>2015-09-10T12:51:15.000Z</time>
      </trkpt>
      <trkpt lat="47.71931" lon="6.13422">
        <ele>351</ele>
        <time>2015-09-10T12:51:17.000Z</time>
      </trkpt>
      <trkpt lat="47.71926" lon="6.13422">
        <ele>351</ele>
        <time>2015-09-10T12:51:18.000Z</time>
      </trkpt>
      <trkpt lat="47.7192" lon="6.13422">
        <ele>350</ele>
        <time>2015-09-10T12:51:19.000Z</time>
      </trkpt>
      <trkpt lat="47.71916" lon="6.13422">
        <ele>350</ele>
        <time>2015-09-10T12:51:20.000Z</time>
      </trkpt>
      <trkpt lat="47.71911" lon="6.13422">
        <ele>350</ele>
        <time>2015-09-10T12:51:21.000Z</time>
      </trkpt>
      <trkpt lat="47.71872" lon="6.13424">
        <ele>350</ele>
        <time>2015-09-10T12:51:29.000Z</time>
      </trkpt>
      <trkpt lat="47.71844" lon="6.13423">
        <ele>348</ele>
        <time>2015-09-10T12:51:35.000Z</time>
      </trkpt>
      <trkpt lat="47.7184" lon="6.13423">
        <ele>348</ele>
        <time>2015-09-10T12:51:36.000Z</time>
      </trkpt>
      <trkpt lat="47.71832" lon="6.13422">
        <ele>346</ele>
        <time>2015-09-10T12:51:38.000Z</time>
      </trkpt>
      <trkpt lat="47.71828" lon="6.13422">
        <ele>346</ele>
        <time>2015-09-10T12:51:39.000Z</time>
      </trkpt>
      <trkpt lat="47.71824" lon="6.13421">
        <ele>346</ele>
        <time>2015-09-10T12:51:40.000Z</time>
      </trkpt>
      <trkpt lat="47.71821" lon="6.13422">
        <ele>346</ele>
        <time>2015-09-10T12:51:41.000Z</time>
      </trkpt>
      <trkpt lat="47.71817" lon="6.13422">
        <ele>346</ele>
        <time>2015-09-10T12:51:42.000Z</time>
      </trkpt>
      <trkpt lat="47.71796" lon="6.13425">
        <ele>346</ele>
        <time>2015-09-10T12:51:47.000Z</time>
      </trkpt>
      <trkpt lat="47.71792" lon="6.13427">
        <ele>346</ele>
        <time>2015-09-10T12:51:48.000Z</time>
      </trkpt>
      <trkpt lat="47.71784" lon="6.13434">
        <ele>346</ele>
        <time>2015-09-10T12:51:50.000Z</time>
      </trkpt>
      <trkpt lat="47.71779" lon="6.13445">
        <ele>346</ele>
        <time>2015-09-10T12:51:52.000Z</time>
      </trkpt>
      <trkpt lat="47.71773" lon="6.13454">
        <ele>347</ele>
        <time>2015-09-10T12:51:54.000Z</time>
      </trkpt>
      <trkpt lat="47.7176" lon="6.13463">
        <ele>347</ele>
        <time>2015-09-10T12:51:57.000Z</time>
      </trkpt>
      <trkpt lat="47.71734" lon="6.13464">
        <ele>343</ele>
        <time>2015-09-10T12:52:01.000Z</time>
      </trkpt>
      <trkpt lat="47.71705" lon="6.13463">
        <ele>342</ele>
        <time>2015-09-10T12:52:05.000Z</time>
      </trkpt>
      <trkpt lat="47.71697" lon="6.13464">
        <ele>342</ele>
        <time>2015-09-10T12:52:06.000Z</time>
      </trkpt>
      <trkpt lat="47.7169" lon="6.13465">
        <ele>342</ele>
        <time>2015-09-10T12:52:07.000Z</time>
      </trkpt>
      <trkpt lat="47.71682" lon="6.13465">
        <ele>341</ele>
        <time>2015-09-10T12:52:08.000Z</time>
      </trkpt>
      <trkpt lat="47.71674" lon="6.13465">
        <ele>341</ele>
        <time>2015-09-10T12:52:09.000Z</time>
      </trkpt>
      <trkpt lat="47.71658" lon="6.13465">
        <ele>339</ele>
        <time>2015-09-10T12:52:11.000Z</time>
      </trkpt>
      <trkpt lat="47.7165" lon="6.13465">
        <ele>339</ele>
        <time>2015-09-10T12:52:12.000Z</time>
      </trkpt>
      <trkpt lat="47.71642" lon="6.13466">
        <ele>339</ele>
        <time>2015-09-10T12:52:13.000Z</time>
      </trkpt>
      <trkpt lat="47.71634" lon="6.13468">
        <ele>339</ele>
        <time>2015-09-10T12:52:14.000Z</time>
      </trkpt>
      <trkpt lat="47.71626" lon="6.13471">
        <ele>339</ele>
        <time>2015-09-10T12:52:15.000Z</time>
      </trkpt>
      <trkpt lat="47.71606" lon="6.13488">
        <ele>339</ele>
        <time>2015-09-10T12:52:18.000Z</time>
      </trkpt>
      <trkpt lat="47.716" lon="6.13494">
        <ele>339</ele>
        <time>2015-09-10T12:52:19.000Z</time>
      </trkpt>
      <trkpt lat="47.71573" lon="6.13523">
        <ele>335</ele>
        <time>2015-09-10T12:52:24.000Z</time>
      </trkpt>
      <trkpt lat="47.71548" lon="6.13546">
        <ele>334</ele>
        <time>2015-09-10T12:52:28.000Z</time>
      </trkpt>
      <trkpt lat="47.71541" lon="6.13552">
        <ele>334</ele>
        <time>2015-09-10T12:52:29.000Z</time>
      </trkpt>
      <trkpt lat="47.71534" lon="6.13558">
        <ele>334</ele>
        <time>2015-09-10T12:52:30.000Z</time>
      </trkpt>
      <trkpt lat="47.71528" lon="6.13564">
        <ele>334</ele>
        <time>2015-09-10T12:52:31.000Z</time>
      </trkpt>
      <trkpt lat="47.71493" lon="6.13599">
        <ele>331</ele>
        <time>2015-09-10T12:52:37.000Z</time>
      </trkpt>
      <trkpt lat="47.71472" lon="6.13619">
        <ele>331</ele>
        <time>2015-09-10T12:52:41.000Z</time>
      </trkpt>
      <trkpt lat="47.71466" lon="6.13622">
        <ele>331</ele>
        <time>2015-09-10T12:52:42.000Z</time>
      </trkpt>
      <trkpt lat="47.71449" lon="6.1362">
        <ele>332</ele>
        <time>2015-09-10T12:52:45.000Z</time>
      </trkpt>
      <trkpt lat="47.71438" lon="6.13614">
        <ele>332</ele>
        <time>2015-09-10T12:52:47.000Z</time>
      </trkpt>
      <trkpt lat="47.71433" lon="6.1361">
        <ele>333</ele>
        <time>2015-09-10T12:52:48.000Z</time>
      </trkpt>
      <trkpt lat="47.71425" lon="6.13601">
        <ele>334</ele>
        <time>2015-09-10T12:52:50.000Z</time>
      </trkpt>
      <trkpt lat="47.71416" lon="6.13593">
        <ele>338</ele>
        <time>2015-09-10T12:52:52.000Z</time>
      </trkpt>
      <trkpt lat="47.71412" lon="6.13588">
        <ele>338</ele>
        <time>2015-09-10T12:52:53.000Z</time>
      </trkpt>
      <trkpt lat="47.71405" lon="6.13578">
        <ele>338</ele>
        <time>2015-09-10T12:52:55.000Z</time>
      </trkpt>
      <trkpt lat="47.71392" lon="6.13566">
        <ele>339</ele>
        <time>2015-09-10T12:52:58.000Z</time>
      </trkpt>
      <trkpt lat="47.71388" lon="6.13561">
        <ele>340</ele>
        <time>2015-09-10T12:52:59.000Z</time>
      </trkpt>
      <trkpt lat="47.71383" lon="6.13558">
        <ele>340</ele>
        <time>2015-09-10T12:53:00.000Z</time>
      </trkpt>
      <trkpt lat="47.71378" lon="6.13555">
        <ele>340</ele>
        <time>2015-09-10T12:53:01.000Z</time>
      </trkpt>
      <trkpt lat="47.71373" lon="6.13552">
        <ele>340</ele>
        <time>2015-09-10T12:53:02.000Z</time>
      </trkpt>
      <trkpt lat="47.71357" lon="6.1355">
        <ele>340</ele>
        <time>2015-09-10T12:53:05.000Z</time>
      </trkpt>
      <trkpt lat="47.71352" lon="6.1355">
        <ele>341</ele>
        <time>2015-09-10T12:53:06.000Z</time>
      </trkpt>
      <trkpt lat="47.71311" lon="6.13549">
        <ele>340</ele>
        <time>2015-09-10T12:53:13.000Z</time>
      </trkpt>
      <trkpt lat="47.71292" lon="6.1355">
        <ele>340</ele>
        <time>2015-09-10T12:53:18.000Z</time>
      </trkpt>
      <trkpt lat="47.71289" lon="6.13547">
        <ele>340</ele>
        <time>2015-09-10T12:53:21.000Z</time>
      </trkpt>
      <trkpt lat="47.71288" lon="6.13544">
        <ele>340</ele>
        <time>2015-09-10T12:53:22.000Z</time>
      </trkpt>
      <trkpt lat="47.71288" lon="6.13541">
        <ele>339</ele>
        <time>2015-09-10T12:53:23.000Z</time>
      </trkpt>
      <trkpt lat="47.71288" lon="6.13535">
        <ele>339</ele>
        <time>2015-09-10T12:53:24.000Z</time>
      </trkpt>
      <trkpt lat="47.71288" lon="6.13529">
        <ele>339</ele>
        <time>2015-09-10T12:53:25.000Z</time>
      </trkpt>
      <trkpt lat="47.71288" lon="6.13522">
        <ele>339</ele>
        <time>2015-09-10T12:53:26.000Z</time>
      </trkpt>
      <trkpt lat="47.71292" lon="6.13487">
        <ele>336</ele>
        <time>2015-09-10T12:53:32.000Z</time>
      </trkpt>
      <trkpt lat="47.71295" lon="6.13454">
        <ele>336</ele>
        <time>2015-09-10T12:53:38.000Z</time>
      </trkpt>
      <trkpt lat="47.71297" lon="6.13409">
        <ele>334</ele>
        <time>2015-09-10T12:53:45.000Z</time>
      </trkpt>
      <trkpt lat="47.71297" lon="6.13402">
        <ele>334</ele>
        <time>2015-09-10T12:53:46.000Z</time>
      </trkpt>
      <trkpt lat="47.71298" lon="6.13395">
        <ele>334</ele>
        <time>2015-09-10T12:53:47.000Z</time>
      </trkpt>
      <trkpt lat="47.71298" lon="6.13389">
        <ele>334</ele>
        <time>2015-09-10T12:53:48.000Z</time>
      </trkpt>
      <trkpt lat="47.71298" lon="6.13384">
        <ele>334</ele>
        <time>2015-09-10T12:53:49.000Z</time>
      </trkpt>
      <trkpt lat="47.71298" lon="6.13374">
        <ele>334</ele>
        <time>2015-09-10T12:53:51.000Z</time>
      </trkpt>
      <trkpt lat="47.71297" lon="6.13344">
        <ele>334</ele>
        <time>2015-09-10T12:53:56.000Z</time>
      </trkpt>
      <trkpt lat="47.71297" lon="6.13312">
        <ele>336</ele>
        <time>2015-09-10T12:54:03.000Z</time>
      </trkpt>
      <trkpt lat="47.71298" lon="6.13294">
        <ele>336</ele>
        <time>2015-09-10T12:54:08.000Z</time>
      </trkpt>
      <trkpt lat="47.71294" lon="6.13265">
        <ele>336</ele>
        <time>2015-09-10T12:54:14.000Z</time>
      </trkpt>
      <trkpt lat="47.71294" lon="6.1326">
        <ele>336</ele>
        <time>2015-09-10T12:54:15.000Z</time>
      </trkpt>
      <trkpt lat="47.71294" lon="6.13256">
        <ele>336</ele>
        <time>2015-09-10T12:54:16.000Z</time>
      </trkpt>
      <trkpt lat="47.71295" lon="6.13254">
        <ele>336</ele>
        <time>2015-09-10T12:54:17.000Z</time>
      </trkpt>
      <trkpt lat="47.71296" lon="6.1325">
        <ele>337</ele>
        <time>2015-09-10T12:54:18.000Z</time>
      </trkpt>
      <trkpt lat="47.71299" lon="6.13242">
        <ele>340</ele>
        <time>2015-09-10T12:54:21.000Z</time>
      </trkpt>
      <trkpt lat="47.71303" lon="6.13223">
        <ele>341</ele>
        <time>2015-09-10T12:54:29.000Z</time>
      </trkpt>
      <trkpt lat="47.71304" lon="6.13215">
        <ele>341</ele>
        <time>2015-09-10T12:54:31.000Z</time>
      </trkpt>
      <trkpt lat="47.71304" lon="6.13211">
        <ele>342</ele>
        <time>2015-09-10T12:54:32.000Z</time>
      </trkpt>
      <trkpt lat="47.71304" lon="6.13209">
        <ele>342</ele>
        <time>2015-09-10T12:54:33.000Z</time>
      </trkpt>
      <trkpt lat="47.71304" lon="6.132">
        <ele>342</ele>
        <time>2015-09-10T12:54:36.000Z</time>
      </trkpt>
      <trkpt lat="47.71304" lon="6.13196">
        <ele>342</ele>
        <time>2015-09-10T12:54:37.000Z</time>
      </trkpt>
      <trkpt lat="47.71307" lon="6.1317">
        <ele>343</ele>
        <time>2015-09-10T12:54:44.000Z</time>
      </trkpt>
      <trkpt lat="47.71308" lon="6.13163">
        <ele>346</ele>
        <time>2015-09-10T12:54:46.000Z</time>
      </trkpt>
      <trkpt lat="47.71309" lon="6.1316">
        <ele>346</ele>
        <time>2015-09-10T12:54:47.000Z</time>
      </trkpt>
      <trkpt lat="47.71309" lon="6.13156">
        <ele>346</ele>
        <time>2015-09-10T12:54:48.000Z</time>
      </trkpt>
      <trkpt lat="47.71309" lon="6.13153">
        <ele>347</ele>
        <time>2015-09-10T12:54:49.000Z</time>
      </trkpt>
      <trkpt lat="47.71309" lon="6.1315">
        <ele>347</ele>
        <time>2015-09-10T12:54:50.000Z</time>
      </trkpt>
      <trkpt lat="47.71309" lon="6.13136">
        <ele>347</ele>
        <time>2015-09-10T12:54:54.000Z</time>
      </trkpt>
      <trkpt lat="47.71311" lon="6.13111">
        <ele>348</ele>
        <time>2015-09-10T12:55:00.000Z</time>
      </trkpt>
      <trkpt lat="47.7131" lon="6.13107">
        <ele>348</ele>
        <time>2015-09-10T12:55:01.000Z</time>
      </trkpt>
      <trkpt lat="47.71309" lon="6.13102">
        <ele>348</ele>
        <time>2015-09-10T12:55:02.000Z</time>
      </trkpt>
      <trkpt lat="47.71307" lon="6.13098">
        <ele>348</ele>
        <time>2015-09-10T12:55:03.000Z</time>
      </trkpt>
      <trkpt lat="47.71306" lon="6.13094">
        <ele>348</ele>
        <time>2015-09-10T12:55:04.000Z</time>
      </trkpt>
      <trkpt lat="47.71304" lon="6.13073">
        <ele>349</ele>
        <time>2015-09-10T12:55:10.000Z</time>
      </trkpt>
      <trkpt lat="47.71303" lon="6.13065">
        <ele>349</ele>
        <time>2015-09-10T12:55:12.000Z</time>
      </trkpt>
      <trkpt lat="47.71303" lon="6.13051">
        <ele>349</ele>
        <time>2015-09-10T12:55:15.000Z</time>
      </trkpt>
      <trkpt lat="47.71301" lon="6.1302">
        <ele>348</ele>
        <time>2015-09-10T12:55:21.000Z</time>
      </trkpt>
      <trkpt lat="47.71295" lon="6.12978">
        <ele>348</ele>
        <time>2015-09-10T12:55:27.000Z</time>
      </trkpt>
      <trkpt lat="47.71292" lon="6.12963">
        <ele>348</ele>
        <time>2015-09-10T12:55:30.000Z</time>
      </trkpt>
      <trkpt lat="47.71289" lon="6.12954">
        <ele>349</ele>
        <time>2015-09-10T12:55:32.000Z</time>
      </trkpt>
      <trkpt lat="47.71285" lon="6.12949">
        <ele>349</ele>
        <time>2015-09-10T12:55:33.000Z</time>
      </trkpt>
      <trkpt lat="47.71268" lon="6.12947">
        <ele>349</ele>
        <time>2015-09-10T12:55:38.000Z</time>
      </trkpt>
      <trkpt lat="47.71245" lon="6.12954">
        <ele>351</ele>
        <time>2015-09-10T12:55:44.000Z</time>
      </trkpt>
      <trkpt lat="47.71223" lon="6.12963">
        <ele>352</ele>
        <time>2015-09-10T12:55:50.000Z</time>
      </trkpt>
      <trkpt lat="47.71207" lon="6.12974">
        <ele>352</ele>
        <time>2015-09-10T12:55:56.000Z</time>
      </trkpt>
      <trkpt lat="47.71204" lon="6.12975">
        <ele>352</ele>
        <time>2015-09-10T12:55:57.000Z</time>
      </trkpt>
      <trkpt lat="47.71192" lon="6.12977">
        <ele>353</ele>
        <time>2015-09-10T12:56:00.000Z</time>
      </trkpt>
      <trkpt lat="47.71189" lon="6.1298">
        <ele>353</ele>
        <time>2015-09-10T12:56:01.000Z</time>
      </trkpt>
      <trkpt lat="47.71177" lon="6.1299">
        <ele>354</ele>
        <time>2015-09-10T12:56:04.000Z</time>
      </trkpt>
      <trkpt lat="47.71172" lon="6.12992">
        <ele>354</ele>
        <time>2015-09-10T12:56:05.000Z</time>
      </trkpt>
      <trkpt lat="47.71162" lon="6.13002">
        <ele>355</ele>
        <time>2015-09-10T12:56:07.000Z</time>
      </trkpt>
      <trkpt lat="47.71151" lon="6.13009">
        <ele>355</ele>
        <time>2015-09-10T12:56:09.000Z</time>
      </trkpt>
      <trkpt lat="47.71128" lon="6.13026">
        <ele>354</ele>
        <time>2015-09-10T12:56:14.000Z</time>
      </trkpt>
      <trkpt lat="47.71118" lon="6.13035">
        <ele>354</ele>
        <time>2015-09-10T12:56:16.000Z</time>
      </trkpt>
      <trkpt lat="47.71104" lon="6.13049">
        <ele>354</ele>
        <time>2015-09-10T12:56:19.000Z</time>
      </trkpt>
      <trkpt lat="47.71094" lon="6.13056">
        <ele>353</ele>
        <time>2015-09-10T12:56:21.000Z</time>
      </trkpt>
      <trkpt lat="47.7108" lon="6.13068">
        <ele>353</ele>
        <time>2015-09-10T12:56:24.000Z</time>
      </trkpt>
      <trkpt lat="47.71065" lon="6.13074">
        <ele>353</ele>
        <time>2015-09-10T12:56:27.000Z</time>
      </trkpt>
      <trkpt lat="47.7106" lon="6.13076">
        <ele>353</ele>
        <time>2015-09-10T12:56:28.000Z</time>
      </trkpt>
      <trkpt lat="47.71055" lon="6.13077">
        <ele>353</ele>
        <time>2015-09-10T12:56:29.000Z</time>
      </trkpt>
      <trkpt lat="47.7105" lon="6.13079">
        <ele>353</ele>
        <time>2015-09-10T12:56:30.000Z</time>
      </trkpt>
      <trkpt lat="47.71045" lon="6.1308">
        <ele>352</ele>
        <time>2015-09-10T12:56:31.000Z</time>
      </trkpt>
      <trkpt lat="47.71032" lon="6.13082">
        <ele>352</ele>
        <time>2015-09-10T12:56:33.000Z</time>
      </trkpt>
      <trkpt lat="47.7102" lon="6.13083">
        <ele>352</ele>
        <time>2015-09-10T12:56:35.000Z</time>
      </trkpt>
      <trkpt lat="47.71014" lon="6.13085">
        <ele>350</ele>
        <time>2015-09-10T12:56:36.000Z</time>
      </trkpt>
      <trkpt lat="47.71007" lon="6.13087">
        <ele>350</ele>
        <time>2015-09-10T12:56:37.000Z</time>
      </trkpt>
      <trkpt lat="47.71001" lon="6.13089">
        <ele>350</ele>
        <time>2015-09-10T12:56:38.000Z</time>
      </trkpt>
      <trkpt lat="47.70994" lon="6.13091">
        <ele>350</ele>
        <time>2015-09-10T12:56:39.000Z</time>
      </trkpt>
      <trkpt lat="47.70988" lon="6.13093">
        <ele>350</ele>
        <time>2015-09-10T12:56:40.000Z</time>
      </trkpt>
      <trkpt lat="47.70961" lon="6.13103">
        <ele>349</ele>
        <time>2015-09-10T12:56:45.000Z</time>
      </trkpt>
      <trkpt lat="47.70936" lon="6.13111">
        <ele>349</ele>
        <time>2015-09-10T12:56:50.000Z</time>
      </trkpt>
      <trkpt lat="47.7093" lon="6.13111">
        <ele>349</ele>
        <time>2015-09-10T12:56:51.000Z</time>
      </trkpt>
      <trkpt lat="47.70911" lon="6.1311">
        <ele>349</ele>
        <time>2015-09-10T12:56:54.000Z</time>
      </trkpt>
      <trkpt lat="47.70894" lon="6.13112">
        <ele>349</ele>
        <time>2015-09-10T12:56:57.000Z</time>
      </trkpt>
      <trkpt lat="47.70888" lon="6.13113">
        <ele>349</ele>
        <time>2015-09-10T12:56:58.000Z</time>
      </trkpt>
      <trkpt lat="47.70883" lon="6.13113">
        <ele>348</ele>
        <time>2015-09-10T12:56:59.000Z</time>
      </trkpt>
      <trkpt lat="47.70878" lon="6.13114">
        <ele>348</ele>
        <time>2015-09-10T12:57:00.000Z</time>
      </trkpt>
      <trkpt lat="47.70873" lon="6.13116">
        <ele>348</ele>
        <time>2015-09-10T12:57:01.000Z</time>
      </trkpt>
      <trkpt lat="47.70867" lon="6.13118">
        <ele>348</ele>
        <time>2015-09-10T12:57:02.000Z</time>
      </trkpt>
      <trkpt lat="47.70861" lon="6.1312">
        <ele>348</ele>
        <time>2015-09-10T12:57:03.000Z</time>
      </trkpt>
      <trkpt lat="47.70856" lon="6.13122">
        <ele>348</ele>
        <time>2015-09-10T12:57:04.000Z</time>
      </trkpt>
      <trkpt lat="47.70849" lon="6.13123">
        <ele>348</ele>
        <time>2015-09-10T12:57:05.000Z</time>
      </trkpt>
      <trkpt lat="47.70816" lon="6.13126">
        <ele>346</ele>
        <time>2015-09-10T12:57:10.000Z</time>
      </trkpt>
      <trkpt lat="47.70791" lon="6.13126">
        <ele>346</ele>
        <time>2015-09-10T12:57:15.000Z</time>
      </trkpt>
      <trkpt lat="47.70774" lon="6.13127">
        <ele>346</ele>
        <time>2015-09-10T12:57:18.000Z</time>
      </trkpt>
      <trkpt lat="47.70768" lon="6.13126">
        <ele>346</ele>
        <time>2015-09-10T12:57:19.000Z</time>
      </trkpt>
      <trkpt lat="47.70762" lon="6.13126">
        <ele>346</ele>
        <time>2015-09-10T12:57:20.000Z</time>
      </trkpt>
      <trkpt lat="47.70756" lon="6.13126">
        <ele>346</ele>
        <time>2015-09-10T12:57:21.000Z</time>
      </trkpt>
      <trkpt lat="47.7075" lon="6.13128">
        <ele>344</ele>
        <time>2015-09-10T12:57:22.000Z</time>
      </trkpt>
      <trkpt lat="47.70744" lon="6.13128">
        <ele>344</ele>
        <time>2015-09-10T12:57:23.000Z</time>
      </trkpt>
      <trkpt lat="47.70731" lon="6.13128">
        <ele>344</ele>
        <time>2015-09-10T12:57:25.000Z</time>
      </trkpt>
      <trkpt lat="47.70706" lon="6.13129">
        <ele>343</ele>
        <time>2015-09-10T12:57:30.000Z</time>
      </trkpt>
      <trkpt lat="47.70684" lon="6.13129">
        <ele>343</ele>
        <time>2015-09-10T12:57:34.000Z</time>
      </trkpt>
      <trkpt lat="47.70679" lon="6.13128">
        <ele>343</ele>
        <time>2015-09-10T12:57:35.000Z</time>
      </trkpt>
      <trkpt lat="47.70675" lon="6.13127">
        <ele>343</ele>
        <time>2015-09-10T12:57:36.000Z</time>
      </trkpt>
      <trkpt lat="47.70669" lon="6.13127">
        <ele>343</ele>
        <time>2015-09-10T12:57:37.000Z</time>
      </trkpt>
      <trkpt lat="47.70665" lon="6.13128">
        <ele>342</ele>
        <time>2015-09-10T12:57:38.000Z</time>
      </trkpt>
      <trkpt lat="47.70652" lon="6.13129">
        <ele>342</ele>
        <time>2015-09-10T12:57:41.000Z</time>
      </trkpt>
      <trkpt lat="47.70647" lon="6.1313">
        <ele>342</ele>
        <time>2015-09-10T12:57:42.000Z</time>
      </trkpt>
      <trkpt lat="47.70633" lon="6.13136">
        <ele>341</ele>
        <time>2015-09-10T12:57:45.000Z</time>
      </trkpt>
      <trkpt lat="47.70629" lon="6.13137">
        <ele>341</ele>
        <time>2015-09-10T12:57:46.000Z</time>
      </trkpt>
      <trkpt lat="47.70618" lon="6.13141">
        <ele>341</ele>
        <time>2015-09-10T12:57:48.000Z</time>
      </trkpt>
      <trkpt lat="47.70612" lon="6.13142">
        <ele>341</ele>
        <time>2015-09-10T12:57:49.000Z</time>
      </trkpt>
      <trkpt lat="47.70605" lon="6.13142">
        <ele>341</ele>
        <time>2015-09-10T12:57:50.000Z</time>
      </trkpt>
      <trkpt lat="47.706" lon="6.13141">
        <ele>341</ele>
        <time>2015-09-10T12:57:51.000Z</time>
      </trkpt>
      <trkpt lat="47.70588" lon="6.1314">
        <ele>341</ele>
        <time>2015-09-10T12:57:53.000Z</time>
      </trkpt>
      <trkpt lat="47.70576" lon="6.1314">
        <ele>340</ele>
        <time>2015-09-10T12:57:55.000Z</time>
      </trkpt>
      <trkpt lat="47.70554" lon="6.13138">
        <ele>340</ele>
        <time>2015-09-10T12:57:59.000Z</time>
      </trkpt>
      <trkpt lat="47.70542" lon="6.13138">
        <ele>339</ele>
        <time>2015-09-10T12:58:01.000Z</time>
      </trkpt>
      <trkpt lat="47.70536" lon="6.13137">
        <ele>339</ele>
        <time>2015-09-10T12:58:02.000Z</time>
      </trkpt>
      <trkpt lat="47.7053" lon="6.13135">
        <ele>339</ele>
        <time>2015-09-10T12:58:03.000Z</time>
      </trkpt>
      <trkpt lat="47.70524" lon="6.13133">
        <ele>339</ele>
        <time>2015-09-10T12:58:04.000Z</time>
      </trkpt>
      <trkpt lat="47.70518" lon="6.13131">
        <ele>339</ele>
        <time>2015-09-10T12:58:05.000Z</time>
      </trkpt>
      <trkpt lat="47.70511" lon="6.13129">
        <ele>339</ele>
        <time>2015-09-10T12:58:06.000Z</time>
      </trkpt>
      <trkpt lat="47.70486" lon="6.13126">
        <ele>337</ele>
        <time>2015-09-10T12:58:10.000Z</time>
      </trkpt>
      <trkpt lat="47.70481" lon="6.13126">
        <ele>336</ele>
        <time>2015-09-10T12:58:11.000Z</time>
      </trkpt>
      <trkpt lat="47.70475" lon="6.13127">
        <ele>336</ele>
        <time>2015-09-10T12:58:12.000Z</time>
      </trkpt>
      <trkpt lat="47.70468" lon="6.13128">
        <ele>336</ele>
        <time>2015-09-10T12:58:13.000Z</time>
      </trkpt>
      <trkpt lat="47.70463" lon="6.13129">
        <ele>336</ele>
        <time>2015-09-10T12:58:14.000Z</time>
      </trkpt>
      <trkpt lat="47.70457" lon="6.13129">
        <ele>336</ele>
        <time>2015-09-10T12:58:15.000Z</time>
      </trkpt>
      <trkpt lat="47.70452" lon="6.1313">
        <ele>336</ele>
        <time>2015-09-10T12:58:16.000Z</time>
      </trkpt>
      <trkpt lat="47.70425" lon="6.13131">
        <ele>335</ele>
        <time>2015-09-10T12:58:20.000Z</time>
      </trkpt>
      <trkpt lat="47.70418" lon="6.13131">
        <ele>335</ele>
        <time>2015-09-10T12:58:21.000Z</time>
      </trkpt>
      <trkpt lat="47.70413" lon="6.13132">
        <ele>334</ele>
        <time>2015-09-10T12:58:22.000Z</time>
      </trkpt>
      <trkpt lat="47.70406" lon="6.13133">
        <ele>334</ele>
        <time>2015-09-10T12:58:23.000Z</time>
      </trkpt>
      <trkpt lat="47.70401" lon="6.13134">
        <ele>334</ele>
        <time>2015-09-10T12:58:24.000Z</time>
      </trkpt>
      <trkpt lat="47.70395" lon="6.13136">
        <ele>334</ele>
        <time>2015-09-10T12:58:25.000Z</time>
      </trkpt>
      <trkpt lat="47.70389" lon="6.13138">
        <ele>334</ele>
        <time>2015-09-10T12:58:26.000Z</time>
      </trkpt>
      <trkpt lat="47.70359" lon="6.13146">
        <ele>334</ele>
        <time>2015-09-10T12:58:31.000Z</time>
      </trkpt>
      <trkpt lat="47.70354" lon="6.1315">
        <ele>334</ele>
        <time>2015-09-10T12:58:32.000Z</time>
      </trkpt>
      <trkpt lat="47.70339" lon="6.13158">
        <ele>334</ele>
        <time>2015-09-10T12:58:35.000Z</time>
      </trkpt>
      <trkpt lat="47.70334" lon="6.13159">
        <ele>334</ele>
        <time>2015-09-10T12:58:36.000Z</time>
      </trkpt>
      <trkpt lat="47.70328" lon="6.1316">
        <ele>333</ele>
        <time>2015-09-10T12:58:37.000Z</time>
      </trkpt>
      <trkpt lat="47.7032" lon="6.13159">
        <ele>333</ele>
        <time>2015-09-10T12:58:38.000Z</time>
      </trkpt>
      <trkpt lat="47.70313" lon="6.13159">
        <ele>333</ele>
        <time>2015-09-10T12:58:39.000Z</time>
      </trkpt>
      <trkpt lat="47.70305" lon="6.1316">
        <ele>333</ele>
        <time>2015-09-10T12:58:40.000Z</time>
      </trkpt>
      <trkpt lat="47.70298" lon="6.13161">
        <ele>332</ele>
        <time>2015-09-10T12:58:41.000Z</time>
      </trkpt>
      <trkpt lat="47.70293" lon="6.13162">
        <ele>332</ele>
        <time>2015-09-10T12:58:42.000Z</time>
      </trkpt>
      <trkpt lat="47.7029" lon="6.13164">
        <ele>332</ele>
        <time>2015-09-10T12:58:43.000Z</time>
      </trkpt>
      <trkpt lat="47.70288" lon="6.13167">
        <ele>332</ele>
        <time>2015-09-10T12:58:44.000Z</time>
      </trkpt>
      <trkpt lat="47.70286" lon="6.13169">
        <ele>331</ele>
        <time>2015-09-10T12:58:45.000Z</time>
      </trkpt>
      <trkpt lat="47.7027" lon="6.13178">
        <ele>331</ele>
        <time>2015-09-10T12:58:51.000Z</time>
      </trkpt>
      <trkpt lat="47.70251" lon="6.13185">
        <ele>330</ele>
        <time>2015-09-10T12:58:55.000Z</time>
      </trkpt>
      <trkpt lat="47.70247" lon="6.13189">
        <ele>327</ele>
        <time>2015-09-10T12:58:56.000Z</time>
      </trkpt>
      <trkpt lat="47.70242" lon="6.13192">
        <ele>327</ele>
        <time>2015-09-10T12:58:57.000Z</time>
      </trkpt>
      <trkpt lat="47.70236" lon="6.13197">
        <ele>326</ele>
        <time>2015-09-10T12:58:58.000Z</time>
      </trkpt>
      <trkpt lat="47.70231" lon="6.13201">
        <ele>326</ele>
        <time>2015-09-10T12:58:59.000Z</time>
      </trkpt>
      <trkpt lat="47.70215" lon="6.13214">
        <ele>325</ele>
        <time>2015-09-10T12:59:02.000Z</time>
      </trkpt>
      <trkpt lat="47.70209" lon="6.13218">
        <ele>325</ele>
        <time>2015-09-10T12:59:03.000Z</time>
      </trkpt>
      <trkpt lat="47.70203" lon="6.13223">
        <ele>325</ele>
        <time>2015-09-10T12:59:04.000Z</time>
      </trkpt>
      <trkpt lat="47.70197" lon="6.13229">
        <ele>324</ele>
        <time>2015-09-10T12:59:05.000Z</time>
      </trkpt>
      <trkpt lat="47.70192" lon="6.13234">
        <ele>324</ele>
        <time>2015-09-10T12:59:06.000Z</time>
      </trkpt>
      <trkpt lat="47.70188" lon="6.13239">
        <ele>324</ele>
        <time>2015-09-10T12:59:07.000Z</time>
      </trkpt>
      <trkpt lat="47.70183" lon="6.13244">
        <ele>323</ele>
        <time>2015-09-10T12:59:08.000Z</time>
      </trkpt>
      <trkpt lat="47.70178" lon="6.13249">
        <ele>323</ele>
        <time>2015-09-10T12:59:09.000Z</time>
      </trkpt>
      <trkpt lat="47.70172" lon="6.13253">
        <ele>323</ele>
        <time>2015-09-10T12:59:10.000Z</time>
      </trkpt>
      <trkpt lat="47.70167" lon="6.13255">
        <ele>321</ele>
        <time>2015-09-10T12:59:11.000Z</time>
      </trkpt>
      <trkpt lat="47.70161" lon="6.13258">
        <ele>321</ele>
        <time>2015-09-10T12:59:12.000Z</time>
      </trkpt>
      <trkpt lat="47.70154" lon="6.13258">
        <ele>320</ele>
        <time>2015-09-10T12:59:13.000Z</time>
      </trkpt>
      <trkpt lat="47.70147" lon="6.13257">
        <ele>319</ele>
        <time>2015-09-10T12:59:14.000Z</time>
      </trkpt>
      <trkpt lat="47.70142" lon="6.13255">
        <ele>319</ele>
        <time>2015-09-10T12:59:15.000Z</time>
      </trkpt>
      <trkpt lat="47.70138" lon="6.13252">
        <ele>318</ele>
        <time>2015-09-10T12:59:16.000Z</time>
      </trkpt>
      <trkpt lat="47.70135" lon="6.1325">
        <ele>317</ele>
        <time>2015-09-10T12:59:17.000Z</time>
      </trkpt>
      <trkpt lat="47.70132" lon="6.13248">
        <ele>316</ele>
        <time>2015-09-10T12:59:18.000Z</time>
      </trkpt>
      <trkpt lat="47.70129" lon="6.13245">
        <ele>316</ele>
        <time>2015-09-10T12:59:19.000Z</time>
      </trkpt>
      <trkpt lat="47.7011" lon="6.13238">
        <ele>314</ele>
        <time>2015-09-10T12:59:24.000Z</time>
      </trkpt>
      <trkpt lat="47.70082" lon="6.13241">
        <ele>311</ele>
        <time>2015-09-10T12:59:30.000Z</time>
      </trkpt>
      <trkpt lat="47.70068" lon="6.13241">
        <ele>310</ele>
        <time>2015-09-10T12:59:33.000Z</time>
      </trkpt>
      <trkpt lat="47.70064" lon="6.1324">
        <ele>310</ele>
        <time>2015-09-10T12:59:34.000Z</time>
      </trkpt>
      <trkpt lat="47.7006" lon="6.13239">
        <ele>310</ele>
        <time>2015-09-10T12:59:35.000Z</time>
      </trkpt>
      <trkpt lat="47.70055" lon="6.13239">
        <ele>310</ele>
        <time>2015-09-10T12:59:36.000Z</time>
      </trkpt>
      <trkpt lat="47.70051" lon="6.13237">
        <ele>310</ele>
        <time>2015-09-10T12:59:37.000Z</time>
      </trkpt>
      <trkpt lat="47.70046" lon="6.13235">
        <ele>310</ele>
        <time>2015-09-10T12:59:38.000Z</time>
      </trkpt>
      <trkpt lat="47.70029" lon="6.1323">
        <ele>310</ele>
        <time>2015-09-10T12:59:42.000Z</time>
      </trkpt>
      <trkpt lat="47.7002" lon="6.13229">
        <ele>310</ele>
        <time>2015-09-10T12:59:44.000Z</time>
      </trkpt>
      <trkpt lat="47.70016" lon="6.13228">
        <ele>310</ele>
        <time>2015-09-10T12:59:45.000Z</time>
      </trkpt>
      <trkpt lat="47.70011" lon="6.13227">
        <ele>310</ele>
        <time>2015-09-10T12:59:46.000Z</time>
      </trkpt>
      <trkpt lat="47.70005" lon="6.13226">
        <ele>310</ele>
        <time>2015-09-10T12:59:47.000Z</time>
      </trkpt>
      <trkpt lat="47.7" lon="6.13226">
        <ele>310</ele>
        <time>2015-09-10T12:59:48.000Z</time>
      </trkpt>
      <trkpt lat="47.69995" lon="6.13225">
        <ele>312</ele>
        <time>2015-09-10T12:59:49.000Z</time>
      </trkpt>
      <trkpt lat="47.69983" lon="6.13224">
        <ele>312</ele>
        <time>2015-09-10T12:59:51.000Z</time>
      </trkpt>
      <trkpt lat="47.69965" lon="6.13223">
        <ele>312</ele>
        <time>2015-09-10T12:59:54.000Z</time>
      </trkpt>
      <trkpt lat="47.69934" lon="6.13219">
        <ele>313</ele>
        <time>2015-09-10T13:00:00.000Z</time>
      </trkpt>
      <trkpt lat="47.69929" lon="6.13218">
        <ele>313</ele>
        <time>2015-09-10T13:00:01.000Z</time>
      </trkpt>
      <trkpt lat="47.6991" lon="6.13213">
        <ele>313</ele>
        <time>2015-09-10T13:00:05.000Z</time>
      </trkpt>
      <trkpt lat="47.69906" lon="6.13212">
        <ele>313</ele>
        <time>2015-09-10T13:00:06.000Z</time>
      </trkpt>
      <trkpt lat="47.69886" lon="6.13206">
        <ele>312</ele>
        <time>2015-09-10T13:00:11.000Z</time>
      </trkpt>
      <trkpt lat="47.69871" lon="6.13198">
        <ele>312</ele>
        <time>2015-09-10T13:00:17.000Z</time>
      </trkpt>
      <trkpt lat="47.69868" lon="6.13196">
        <ele>312</ele>
        <time>2015-09-10T13:00:20.000Z</time>
      </trkpt>
      <trkpt lat="47.69862" lon="6.13191">
        <ele>311</ele>
        <time>2015-09-10T13:01:38.000Z</time>
      </trkpt>
      <trkpt lat="47.69861" lon="6.13186">
        <ele>311</ele>
        <time>2015-09-10T13:01:39.000Z</time>
      </trkpt>
      <trkpt lat="47.69858" lon="6.13158">
        <ele>309</ele>
        <time>2015-09-10T13:01:44.000Z</time>
      </trkpt>
      <trkpt lat="47.69854" lon="6.13125">
        <ele>308</ele>
        <time>2015-09-10T13:01:48.000Z</time>
      </trkpt>
      <trkpt lat="47.69851" lon="6.13117">
        <ele>308</ele>
        <time>2015-09-10T13:01:49.000Z</time>
      </trkpt>
      <trkpt lat="47.69846" lon="6.131">
        <ele>308</ele>
        <time>2015-09-10T13:01:51.000Z</time>
      </trkpt>
      <trkpt lat="47.69835" lon="6.13074">
        <ele>306</ele>
        <time>2015-09-10T13:01:54.000Z</time>
      </trkpt>
      <trkpt lat="47.69817" lon="6.13016">
        <ele>307</ele>
        <time>2015-09-10T13:02:00.000Z</time>
      </trkpt>
      <trkpt lat="47.69796" lon="6.1297">
        <ele>307</ele>
        <time>2015-09-10T13:02:06.000Z</time>
      </trkpt>
      <trkpt lat="47.69773" lon="6.12922">
        <ele>307</ele>
        <time>2015-09-10T13:02:13.000Z</time>
      </trkpt>
      <trkpt lat="47.69749" lon="6.12861">
        <ele>307</ele>
        <time>2015-09-10T13:02:21.000Z</time>
      </trkpt>
      <trkpt lat="47.69725" lon="6.12802">
        <ele>306</ele>
        <time>2015-09-10T13:02:28.000Z</time>
      </trkpt>
      <trkpt lat="47.69696" lon="6.12726">
        <ele>306</ele>
        <time>2015-09-10T13:02:37.000Z</time>
      </trkpt>
      <trkpt lat="47.6967" lon="6.12656">
        <ele>305</ele>
        <time>2015-09-10T13:02:45.000Z</time>
      </trkpt>
      <trkpt lat="47.69666" lon="6.12647">
        <ele>305</ele>
        <time>2015-09-10T13:02:46.000Z</time>
      </trkpt>
      <trkpt lat="47.69663" lon="6.12638">
        <ele>304</ele>
        <time>2015-09-10T13:02:47.000Z</time>
      </trkpt>
      <trkpt lat="47.69659" lon="6.1263">
        <ele>304</ele>
        <time>2015-09-10T13:02:48.000Z</time>
      </trkpt>
      <trkpt lat="47.69641" lon="6.12595">
        <ele>304</ele>
        <time>2015-09-10T13:02:52.000Z</time>
      </trkpt>
      <trkpt lat="47.69636" lon="6.12587">
        <ele>304</ele>
        <time>2015-09-10T13:02:53.000Z</time>
      </trkpt>
      <trkpt lat="47.69631" lon="6.12579">
        <ele>303</ele>
        <time>2015-09-10T13:02:54.000Z</time>
      </trkpt>
      <trkpt lat="47.69626" lon="6.12571">
        <ele>303</ele>
        <time>2015-09-10T13:02:55.000Z</time>
      </trkpt>
      <trkpt lat="47.6962" lon="6.12564">
        <ele>303</ele>
        <time>2015-09-10T13:02:56.000Z</time>
      </trkpt>
      <trkpt lat="47.69614" lon="6.12557">
        <ele>303</ele>
        <time>2015-09-10T13:02:57.000Z</time>
      </trkpt>
      <trkpt lat="47.69608" lon="6.1255">
        <ele>303</ele>
        <time>2015-09-10T13:02:58.000Z</time>
      </trkpt>
      <trkpt lat="47.69589" lon="6.12528">
        <ele>302</ele>
        <time>2015-09-10T13:03:01.000Z</time>
      </trkpt>
      <trkpt lat="47.69583" lon="6.12521">
        <ele>299</ele>
        <time>2015-09-10T13:03:02.000Z</time>
      </trkpt>
      <trkpt lat="47.69576" lon="6.12514">
        <ele>299</ele>
        <time>2015-09-10T13:03:03.000Z</time>
      </trkpt>
      <trkpt lat="47.69569" lon="6.12506">
        <ele>299</ele>
        <time>2015-09-10T13:03:04.000Z</time>
      </trkpt>
      <trkpt lat="47.69561" lon="6.12498">
        <ele>297</ele>
        <time>2015-09-10T13:03:05.000Z</time>
      </trkpt>
      <trkpt lat="47.69554" lon="6.1249">
        <ele>297</ele>
        <time>2015-09-10T13:03:06.000Z</time>
      </trkpt>
      <trkpt lat="47.69547" lon="6.12482">
        <ele>296</ele>
        <time>2015-09-10T13:03:07.000Z</time>
      </trkpt>
      <trkpt lat="47.69541" lon="6.12474">
        <ele>296</ele>
        <time>2015-09-10T13:03:08.000Z</time>
      </trkpt>
      <trkpt lat="47.69534" lon="6.12464">
        <ele>296</ele>
        <time>2015-09-10T13:03:09.000Z</time>
      </trkpt>
      <trkpt lat="47.69528" lon="6.12454">
        <ele>295</ele>
        <time>2015-09-10T13:03:10.000Z</time>
      </trkpt>
      <trkpt lat="47.69521" lon="6.12443">
        <ele>295</ele>
        <time>2015-09-10T13:03:11.000Z</time>
      </trkpt>
      <trkpt lat="47.69516" lon="6.12431">
        <ele>295</ele>
        <time>2015-09-10T13:03:12.000Z</time>
      </trkpt>
      <trkpt lat="47.69512" lon="6.12417">
        <ele>294</ele>
        <time>2015-09-10T13:03:13.000Z</time>
      </trkpt>
      <trkpt lat="47.69508" lon="6.12403">
        <ele>293</ele>
        <time>2015-09-10T13:03:14.000Z</time>
      </trkpt>
      <trkpt lat="47.69506" lon="6.12388">
        <ele>293</ele>
        <time>2015-09-10T13:03:15.000Z</time>
      </trkpt>
      <trkpt lat="47.69504" lon="6.12372">
        <ele>293</ele>
        <time>2015-09-10T13:03:16.000Z</time>
      </trkpt>
      <trkpt lat="47.69503" lon="6.12356">
        <ele>293</ele>
        <time>2015-09-10T13:03:17.000Z</time>
      </trkpt>
      <trkpt lat="47.69502" lon="6.12339">
        <ele>292</ele>
        <time>2015-09-10T13:03:18.000Z</time>
      </trkpt>
      <trkpt lat="47.69502" lon="6.12322">
        <ele>291</ele>
        <time>2015-09-10T13:03:19.000Z</time>
      </trkpt>
      <trkpt lat="47.69502" lon="6.12305">
        <ele>290</ele>
        <time>2015-09-10T13:03:20.000Z</time>
      </trkpt>
      <trkpt lat="47.69502" lon="6.12289">
        <ele>290</ele>
        <time>2015-09-10T13:03:21.000Z</time>
      </trkpt>
      <trkpt lat="47.69503" lon="6.12273">
        <ele>289</ele>
        <time>2015-09-10T13:03:22.000Z</time>
      </trkpt>
      <trkpt lat="47.69504" lon="6.12257">
        <ele>287</ele>
        <time>2015-09-10T13:03:23.000Z</time>
      </trkpt>
      <trkpt lat="47.69506" lon="6.12241">
        <ele>286</ele>
        <time>2015-09-10T13:03:24.000Z</time>
      </trkpt>
      <trkpt lat="47.69509" lon="6.12226">
        <ele>286</ele>
        <time>2015-09-10T13:03:25.000Z</time>
      </trkpt>
      <trkpt lat="47.69514" lon="6.12211">
        <ele>286</ele>
        <time>2015-09-10T13:03:26.000Z</time>
      </trkpt>
      <trkpt lat="47.69522" lon="6.12197">
        <ele>286</ele>
        <time>2015-09-10T13:03:27.000Z</time>
      </trkpt>
      <trkpt lat="47.69526" lon="6.1218">
        <ele>285</ele>
        <time>2015-09-10T13:03:28.000Z</time>
      </trkpt>
      <trkpt lat="47.69528" lon="6.12163">
        <ele>283</ele>
        <time>2015-09-10T13:03:29.000Z</time>
      </trkpt>
      <trkpt lat="47.69528" lon="6.12146">
        <ele>283</ele>
        <time>2015-09-10T13:03:30.000Z</time>
      </trkpt>
      <trkpt lat="47.69526" lon="6.12128">
        <ele>283</ele>
        <time>2015-09-10T13:03:31.000Z</time>
      </trkpt>
      <trkpt lat="47.69525" lon="6.12112">
        <ele>283</ele>
        <time>2015-09-10T13:03:32.000Z</time>
      </trkpt>
      <trkpt lat="47.69522" lon="6.12096">
        <ele>282</ele>
        <time>2015-09-10T13:03:33.000Z</time>
      </trkpt>
      <trkpt lat="47.6952" lon="6.1208">
        <ele>281</ele>
        <time>2015-09-10T13:03:34.000Z</time>
      </trkpt>
      <trkpt lat="47.69516" lon="6.12065">
        <ele>281</ele>
        <time>2015-09-10T13:03:35.000Z</time>
      </trkpt>
      <trkpt lat="47.69512" lon="6.1205">
        <ele>282</ele>
        <time>2015-09-10T13:03:36.000Z</time>
      </trkpt>
      <trkpt lat="47.69508" lon="6.12036">
        <ele>282</ele>
        <time>2015-09-10T13:03:37.000Z</time>
      </trkpt>
      <trkpt lat="47.69503" lon="6.12023">
        <ele>282</ele>
        <time>2015-09-10T13:03:38.000Z</time>
      </trkpt>
      <trkpt lat="47.69492" lon="6.11998">
        <ele>283</ele>
        <time>2015-09-10T13:03:40.000Z</time>
      </trkpt>
      <trkpt lat="47.69478" lon="6.11961">
        <ele>284</ele>
        <time>2015-09-10T13:03:43.000Z</time>
      </trkpt>
      <trkpt lat="47.69476" lon="6.1195">
        <ele>284</ele>
        <time>2015-09-10T13:03:44.000Z</time>
      </trkpt>
      <trkpt lat="47.69462" lon="6.11899">
        <ele>285</ele>
        <time>2015-09-10T13:03:49.000Z</time>
      </trkpt>
      <trkpt lat="47.69458" lon="6.11889">
        <ele>285</ele>
        <time>2015-09-10T13:03:50.000Z</time>
      </trkpt>
      <trkpt lat="47.69455" lon="6.1188">
        <ele>285</ele>
        <time>2015-09-10T13:03:51.000Z</time>
      </trkpt>
      <trkpt lat="47.69452" lon="6.11871">
        <ele>285</ele>
        <time>2015-09-10T13:03:52.000Z</time>
      </trkpt>
      <trkpt lat="47.69448" lon="6.11861">
        <ele>285</ele>
        <time>2015-09-10T13:03:53.000Z</time>
      </trkpt>
      <trkpt lat="47.69445" lon="6.11852">
        <ele>285</ele>
        <time>2015-09-10T13:03:54.000Z</time>
      </trkpt>
      <trkpt lat="47.69433" lon="6.11825">
        <ele>286</ele>
        <time>2015-09-10T13:03:57.000Z</time>
      </trkpt>
      <trkpt lat="47.69401" lon="6.11759">
        <ele>286</ele>
        <time>2015-09-10T13:04:04.000Z</time>
      </trkpt>
      <trkpt lat="47.69397" lon="6.1175">
        <ele>286</ele>
        <time>2015-09-10T13:04:05.000Z</time>
      </trkpt>
      <trkpt lat="47.6937" lon="6.11683">
        <ele>285</ele>
        <time>2015-09-10T13:04:12.000Z</time>
      </trkpt>
      <trkpt lat="47.69356" lon="6.11622">
        <ele>285</ele>
        <time>2015-09-10T13:04:18.000Z</time>
      </trkpt>
      <trkpt lat="47.69343" lon="6.11558">
        <ele>285</ele>
        <time>2015-09-10T13:04:24.000Z</time>
      </trkpt>
      <trkpt lat="47.6934" lon="6.11548">
        <ele>285</ele>
        <time>2015-09-10T13:04:25.000Z</time>
      </trkpt>
      <trkpt lat="47.69327" lon="6.11506">
        <ele>285</ele>
        <time>2015-09-10T13:04:29.000Z</time>
      </trkpt>
      <trkpt lat="47.69328" lon="6.11487">
        <ele>284</ele>
        <time>2015-09-10T13:04:31.000Z</time>
      </trkpt>
      <trkpt lat="47.69337" lon="6.11466">
        <ele>285</ele>
        <time>2015-09-10T13:04:34.000Z</time>
      </trkpt>
      <trkpt lat="47.69341" lon="6.11459">
        <ele>285</ele>
        <time>2015-09-10T13:04:35.000Z</time>
      </trkpt>
      <trkpt lat="47.69351" lon="6.11438">
        <ele>285</ele>
        <time>2015-09-10T13:04:38.000Z</time>
      </trkpt>
      <trkpt lat="47.69357" lon="6.11423">
        <ele>285</ele>
        <time>2015-09-10T13:04:40.000Z</time>
      </trkpt>
      <trkpt lat="47.69374" lon="6.11382">
        <ele>283</ele>
        <time>2015-09-10T13:04:45.000Z</time>
      </trkpt>
      <trkpt lat="47.69386" lon="6.11341">
        <ele>282</ele>
        <time>2015-09-10T13:04:49.000Z</time>
      </trkpt>
      <trkpt lat="47.69389" lon="6.11329">
        <ele>281</ele>
        <time>2015-09-10T13:04:50.000Z</time>
      </trkpt>
      <trkpt lat="47.69391" lon="6.11318">
        <ele>281</ele>
        <time>2015-09-10T13:04:51.000Z</time>
      </trkpt>
      <trkpt lat="47.69393" lon="6.11306">
        <ele>281</ele>
        <time>2015-09-10T13:04:52.000Z</time>
      </trkpt>
      <trkpt lat="47.69394" lon="6.11294">
        <ele>281</ele>
        <time>2015-09-10T13:04:53.000Z</time>
      </trkpt>
      <trkpt lat="47.69395" lon="6.11282">
        <ele>281</ele>
        <time>2015-09-10T13:04:54.000Z</time>
      </trkpt>
      <trkpt lat="47.69395" lon="6.1127">
        <ele>281</ele>
        <time>2015-09-10T13:04:55.000Z</time>
      </trkpt>
      <trkpt lat="47.69395" lon="6.11257">
        <ele>281</ele>
        <time>2015-09-10T13:04:56.000Z</time>
      </trkpt>
      <trkpt lat="47.69391" lon="6.11234">
        <ele>282</ele>
        <time>2015-09-10T13:04:58.000Z</time>
      </trkpt>
      <trkpt lat="47.6938" lon="6.11202">
        <ele>282</ele>
        <time>2015-09-10T13:05:01.000Z</time>
      </trkpt>
      <trkpt lat="47.69374" lon="6.11182">
        <ele>282</ele>
        <time>2015-09-10T13:05:03.000Z</time>
      </trkpt>
      <trkpt lat="47.69362" lon="6.11138">
        <ele>282</ele>
        <time>2015-09-10T13:05:08.000Z</time>
      </trkpt>
      <trkpt lat="47.69366" lon="6.11114">
        <ele>283</ele>
        <time>2015-09-10T13:05:11.000Z</time>
      </trkpt>
      <trkpt lat="47.69366" lon="6.11088">
        <ele>283</ele>
        <time>2015-09-10T13:05:14.000Z</time>
      </trkpt>
      <trkpt lat="47.69363" lon="6.1108">
        <ele>283</ele>
        <time>2015-09-10T13:05:15.000Z</time>
      </trkpt>
      <trkpt lat="47.6936" lon="6.11072">
        <ele>283</ele>
        <time>2015-09-10T13:05:16.000Z</time>
      </trkpt>
      <trkpt lat="47.69348" lon="6.11051">
        <ele>283</ele>
        <time>2015-09-10T13:05:19.000Z</time>
      </trkpt>
      <trkpt lat="47.69343" lon="6.11045">
        <ele>283</ele>
        <time>2015-09-10T13:05:20.000Z</time>
      </trkpt>
      <trkpt lat="47.69337" lon="6.11038">
        <ele>283</ele>
        <time>2015-09-10T13:05:21.000Z</time>
      </trkpt>
      <trkpt lat="47.69332" lon="6.11032">
        <ele>282</ele>
        <time>2015-09-10T13:05:22.000Z</time>
      </trkpt>
      <trkpt lat="47.69327" lon="6.11024">
        <ele>282</ele>
        <time>2015-09-10T13:05:23.000Z</time>
      </trkpt>
      <trkpt lat="47.69316" lon="6.10996">
        <ele>281</ele>
        <time>2015-09-10T13:05:26.000Z</time>
      </trkpt>
      <trkpt lat="47.69313" lon="6.10986">
        <ele>281</ele>
        <time>2015-09-10T13:05:27.000Z</time>
      </trkpt>
      <trkpt lat="47.69307" lon="6.10955">
        <ele>280</ele>
        <time>2015-09-10T13:05:30.000Z</time>
      </trkpt>
      <trkpt lat="47.69307" lon="6.10945">
        <ele>280</ele>
        <time>2015-09-10T13:05:31.000Z</time>
      </trkpt>
      <trkpt lat="47.69308" lon="6.10936">
        <ele>280</ele>
        <time>2015-09-10T13:05:32.000Z</time>
      </trkpt>
      <trkpt lat="47.69309" lon="6.10926">
        <ele>280</ele>
        <time>2015-09-10T13:05:33.000Z</time>
      </trkpt>
      <trkpt lat="47.6931" lon="6.10917">
        <ele>280</ele>
        <time>2015-09-10T13:05:34.000Z</time>
      </trkpt>
      <trkpt lat="47.69314" lon="6.10888">
        <ele>279</ele>
        <time>2015-09-10T13:05:37.000Z</time>
      </trkpt>
      <trkpt lat="47.69319" lon="6.10834">
        <ele>279</ele>
        <time>2015-09-10T13:05:43.000Z</time>
      </trkpt>
      <trkpt lat="47.6932" lon="6.10798">
        <ele>277</ele>
        <time>2015-09-10T13:05:48.000Z</time>
      </trkpt>
      <trkpt lat="47.69321" lon="6.10792">
        <ele>276</ele>
        <time>2015-09-10T13:05:50.000Z</time>
      </trkpt>
      <trkpt lat="47.69323" lon="6.10789">
        <ele>276</ele>
        <time>2015-09-10T13:05:51.000Z</time>
      </trkpt>
      <trkpt lat="47.69325" lon="6.10788">
        <ele>276</ele>
        <time>2015-09-10T13:05:52.000Z</time>
      </trkpt>
      <trkpt lat="47.69328" lon="6.10787">
        <ele>276</ele>
        <time>2015-09-10T13:05:53.000Z</time>
      </trkpt>
      <trkpt lat="47.6933" lon="6.10786">
        <ele>276</ele>
        <time>2015-09-10T13:05:54.000Z</time>
      </trkpt>
      <trkpt lat="47.69333" lon="6.10785">
        <ele>276</ele>
        <time>2015-09-10T13:05:55.000Z</time>
      </trkpt>
      <trkpt lat="47.69338" lon="6.10782">
        <ele>278</ele>
        <time>2015-09-10T13:05:57.000Z</time>
      </trkpt>
      <trkpt lat="47.69345" lon="6.10777">
        <ele>278</ele>
        <time>2015-09-10T13:05:59.000Z</time>
      </trkpt>
      <trkpt lat="47.69352" lon="6.10775">
        <ele>278</ele>
        <time>2015-09-10T13:06:01.000Z</time>
      </trkpt>
      <trkpt lat="47.69361" lon="6.10772">
        <ele>278</ele>
        <time>2015-09-10T13:06:03.000Z</time>
      </trkpt>
      <trkpt lat="47.69381" lon="6.10763">
        <ele>278</ele>
        <time>2015-09-10T13:06:07.000Z</time>
      </trkpt>
      <trkpt lat="47.69391" lon="6.10758">
        <ele>278</ele>
        <time>2015-09-10T13:06:09.000Z</time>
      </trkpt>
      <trkpt lat="47.69404" lon="6.1075">
        <ele>278</ele>
        <time>2015-09-10T13:06:12.000Z</time>
      </trkpt>
      <trkpt lat="47.6941" lon="6.10739">
        <ele>277</ele>
        <time>2015-09-10T13:06:14.000Z</time>
      </trkpt>
      <trkpt lat="47.69425" lon="6.10704">
        <ele>274</ele>
        <time>2015-09-10T13:06:19.000Z</time>
      </trkpt>
      <trkpt lat="47.69428" lon="6.10699">
        <ele>274</ele>
        <time>2015-09-10T13:06:20.000Z</time>
      </trkpt>
      <trkpt lat="47.69431" lon="6.10696">
        <ele>274</ele>
        <time>2015-09-10T13:06:21.000Z</time>
      </trkpt>
      <trkpt lat="47.69435" lon="6.10692">
        <ele>274</ele>
        <time>2015-09-10T13:06:22.000Z</time>
      </trkpt>
      <trkpt lat="47.6944" lon="6.10689">
        <ele>273</ele>
        <time>2015-09-10T13:06:23.000Z</time>
      </trkpt>
      <trkpt lat="47.69445" lon="6.10686">
        <ele>273</ele>
        <time>2015-09-10T13:06:24.000Z</time>
      </trkpt>
      <trkpt lat="47.69451" lon="6.10683">
        <ele>273</ele>
        <time>2015-09-10T13:06:25.000Z</time>
      </trkpt>
      <trkpt lat="47.69456" lon="6.1068">
        <ele>273</ele>
        <time>2015-09-10T13:06:26.000Z</time>
      </trkpt>
      <trkpt lat="47.69462" lon="6.10677">
        <ele>273</ele>
        <time>2015-09-10T13:06:27.000Z</time>
      </trkpt>
      <trkpt lat="47.69467" lon="6.10675">
        <ele>272</ele>
        <time>2015-09-10T13:06:28.000Z</time>
      </trkpt>
      <trkpt lat="47.69472" lon="6.10672">
        <ele>272</ele>
        <time>2015-09-10T13:06:29.000Z</time>
      </trkpt>
      <trkpt lat="47.69476" lon="6.1067">
        <ele>271</ele>
        <time>2015-09-10T13:06:30.000Z</time>
      </trkpt>
      <trkpt lat="47.69481" lon="6.10668">
        <ele>271</ele>
        <time>2015-09-10T13:06:31.000Z</time>
      </trkpt>
      <trkpt lat="47.69486" lon="6.10667">
        <ele>270</ele>
        <time>2015-09-10T13:06:32.000Z</time>
      </trkpt>
      <trkpt lat="47.6949" lon="6.10666">
        <ele>267</ele>
        <time>2015-09-10T13:06:33.000Z</time>
      </trkpt>
      <trkpt lat="47.69495" lon="6.10666">
        <ele>268</ele>
        <time>2015-09-10T13:06:34.000Z</time>
      </trkpt>
      <trkpt lat="47.69499" lon="6.10665">
        <ele>268</ele>
        <time>2015-09-10T13:06:35.000Z</time>
      </trkpt>
      <trkpt lat="47.69504" lon="6.10665">
        <ele>267</ele>
        <time>2015-09-10T13:06:36.000Z</time>
      </trkpt>
      <trkpt lat="47.69509" lon="6.10663">
        <ele>265</ele>
        <time>2015-09-10T13:06:37.000Z</time>
      </trkpt>
      <trkpt lat="47.69513" lon="6.10662">
        <ele>264</ele>
        <time>2015-09-10T13:06:38.000Z</time>
      </trkpt>
      <trkpt lat="47.69518" lon="6.1066">
        <ele>263</ele>
        <time>2015-09-10T13:06:39.000Z</time>
      </trkpt>
      <trkpt lat="47.69523" lon="6.10658">
        <ele>262</ele>
        <time>2015-09-10T13:06:40.000Z</time>
      </trkpt>
      <trkpt lat="47.69528" lon="6.10656">
        <ele>262</ele>
        <time>2015-09-10T13:06:41.000Z</time>
      </trkpt>
      <trkpt lat="47.69532" lon="6.10653">
        <ele>261</ele>
        <time>2015-09-10T13:06:42.000Z</time>
      </trkpt>
      <trkpt lat="47.69537" lon="6.10649">
        <ele>261</ele>
        <time>2015-09-10T13:06:43.000Z</time>
      </trkpt>
      <trkpt lat="47.69541" lon="6.10646">
        <ele>260</ele>
        <time>2015-09-10T13:06:44.000Z</time>
      </trkpt>
      <trkpt lat="47.69546" lon="6.10643">
        <ele>260</ele>
        <time>2015-09-10T13:06:45.000Z</time>
      </trkpt>
      <trkpt lat="47.6955" lon="6.10639">
        <ele>259</ele>
        <time>2015-09-10T13:06:46.000Z</time>
      </trkpt>
      <trkpt lat="47.69555" lon="6.10636">
        <ele>259</ele>
        <time>2015-09-10T13:06:47.000Z</time>
      </trkpt>
      <trkpt lat="47.6956" lon="6.10632">
        <ele>258</ele>
        <time>2015-09-10T13:06:48.000Z</time>
      </trkpt>
      <trkpt lat="47.69565" lon="6.10629">
        <ele>258</ele>
        <time>2015-09-10T13:06:49.000Z</time>
      </trkpt>
      <trkpt lat="47.69571" lon="6.10627">
        <ele>258</ele>
        <time>2015-09-10T13:06:50.000Z</time>
      </trkpt>
      <trkpt lat="47.69576" lon="6.10625">
        <ele>257</ele>
        <time>2015-09-10T13:06:51.000Z</time>
      </trkpt>
      <trkpt lat="47.69581" lon="6.10623">
        <ele>257</ele>
        <time>2015-09-10T13:06:52.000Z</time>
      </trkpt>
      <trkpt lat="47.69586" lon="6.10621">
        <ele>252</ele>
        <time>2015-09-10T13:06:53.000Z</time>
      </trkpt>
      <trkpt lat="47.69591" lon="6.10619">
        <ele>251</ele>
        <time>2015-09-10T13:06:54.000Z</time>
      </trkpt>
      <trkpt lat="47.69596" lon="6.10618">
        <ele>251</ele>
        <time>2015-09-10T13:06:55.000Z</time>
      </trkpt>
      <trkpt lat="47.69601" lon="6.10616">
        <ele>251</ele>
        <time>2015-09-10T13:06:56.000Z</time>
      </trkpt>
      <trkpt lat="47.69606" lon="6.10615">
        <ele>251</ele>
        <time>2015-09-10T13:06:57.000Z</time>
      </trkpt>
      <trkpt lat="47.69611" lon="6.10614">
        <ele>251</ele>
        <time>2015-09-10T13:06:58.000Z</time>
      </trkpt>
      <trkpt lat="47.69616" lon="6.10613">
        <ele>250</ele>
        <time>2015-09-10T13:06:59.000Z</time>
      </trkpt>
      <trkpt lat="47.6962" lon="6.10612">
        <ele>250</ele>
        <time>2015-09-10T13:07:00.000Z</time>
      </trkpt>
      <trkpt lat="47.69625" lon="6.10611">
        <ele>250</ele>
        <time>2015-09-10T13:07:01.000Z</time>
      </trkpt>
      <trkpt lat="47.69629" lon="6.10611">
        <ele>250</ele>
        <time>2015-09-10T13:07:02.000Z</time>
      </trkpt>
      <trkpt lat="47.69633" lon="6.10611">
        <ele>250</ele>
        <time>2015-09-10T13:07:03.000Z</time>
      </trkpt>
      <trkpt lat="47.69636" lon="6.1061">
        <ele>249</ele>
        <time>2015-09-10T13:07:04.000Z</time>
      </trkpt>
      <trkpt lat="47.6964" lon="6.1061">
        <ele>249</ele>
        <time>2015-09-10T13:07:05.000Z</time>
      </trkpt>
      <trkpt lat="47.69643" lon="6.10609">
        <ele>249</ele>
        <time>2015-09-10T13:07:06.000Z</time>
      </trkpt>
      <trkpt lat="47.69647" lon="6.10609">
        <ele>249</ele>
        <time>2015-09-10T13:07:07.000Z</time>
      </trkpt>
      <trkpt lat="47.69651" lon="6.10609">
        <ele>248</ele>
        <time>2015-09-10T13:07:08.000Z</time>
      </trkpt>
      <trkpt lat="47.69654" lon="6.10608">
        <ele>248</ele>
        <time>2015-09-10T13:07:09.000Z</time>
      </trkpt>
      <trkpt lat="47.69656" lon="6.10606">
        <ele>248</ele>
        <time>2015-09-10T13:07:10.000Z</time>
      </trkpt>
      <trkpt lat="47.69659" lon="6.10604">
        <ele>248</ele>
        <time>2015-09-10T13:07:11.000Z</time>
      </trkpt>
      <trkpt lat="47.69663" lon="6.10599">
        <ele>247</ele>
        <time>2015-09-10T13:07:12.000Z</time>
      </trkpt>
      <trkpt lat="47.69666" lon="6.10593">
        <ele>246</ele>
        <time>2015-09-10T13:07:13.000Z</time>
      </trkpt>
      <trkpt lat="47.69669" lon="6.10586">
        <ele>244</ele>
        <time>2015-09-10T13:07:14.000Z</time>
      </trkpt>
      <trkpt lat="47.69673" lon="6.10578">
        <ele>244</ele>
        <time>2015-09-10T13:07:15.000Z</time>
      </trkpt>
      <trkpt lat="47.69678" lon="6.10573">
        <ele>243</ele>
        <time>2015-09-10T13:07:16.000Z</time>
      </trkpt>
      <trkpt lat="47.69683" lon="6.10568">
        <ele>243</ele>
        <time>2015-09-10T13:07:17.000Z</time>
      </trkpt>
      <trkpt lat="47.69689" lon="6.10563">
        <ele>243</ele>
        <time>2015-09-10T13:07:18.000Z</time>
      </trkpt>
      <trkpt lat="47.69701" lon="6.10558">
        <ele>243</ele>
        <time>2015-09-10T13:07:20.000Z</time>
      </trkpt>
      <trkpt lat="47.69727" lon="6.10557">
        <ele>243</ele>
        <time>2015-09-10T13:07:24.000Z</time>
      </trkpt>
      <trkpt lat="47.69734" lon="6.10558">
        <ele>243</ele>
        <time>2015-09-10T13:07:25.000Z</time>
      </trkpt>
      <trkpt lat="47.69779" lon="6.10569">
        <ele>244</ele>
        <time>2015-09-10T13:07:32.000Z</time>
      </trkpt>
      <trkpt lat="47.6982" lon="6.10578">
        <ele>246</ele>
        <time>2015-09-10T13:07:39.000Z</time>
      </trkpt>
      <trkpt lat="47.69826" lon="6.10578">
        <ele>246</ele>
        <time>2015-09-10T13:07:40.000Z</time>
      </trkpt>
      <trkpt lat="47.6985" lon="6.10574">
        <ele>247</ele>
        <time>2015-09-10T13:07:44.000Z</time>
      </trkpt>
      <trkpt lat="47.69873" lon="6.10556">
        <ele>247</ele>
        <time>2015-09-10T13:07:48.000Z</time>
      </trkpt>
      <trkpt lat="47.69882" lon="6.10542">
        <ele>247</ele>
        <time>2015-09-10T13:07:50.000Z</time>
      </trkpt>
      <trkpt lat="47.69896" lon="6.10522">
        <ele>247</ele>
        <time>2015-09-10T13:07:53.000Z</time>
      </trkpt>
      <trkpt lat="47.69925" lon="6.10498">
        <ele>251</ele>
        <time>2015-09-10T13:07:59.000Z</time>
      </trkpt>
      <trkpt lat="47.69949" lon="6.10483">
        <ele>253</ele>
        <time>2015-09-10T13:08:05.000Z</time>
      </trkpt>
      <trkpt lat="47.6996" lon="6.10477">
        <ele>253</ele>
        <time>2015-09-10T13:08:08.000Z</time>
      </trkpt>
      <trkpt lat="47.69963" lon="6.10475">
        <ele>253</ele>
        <time>2015-09-10T13:08:09.000Z</time>
      </trkpt>
      <trkpt lat="47.69966" lon="6.10473">
        <ele>253</ele>
        <time>2015-09-10T13:08:10.000Z</time>
      </trkpt>
      <trkpt lat="47.69969" lon="6.10471">
        <ele>253</ele>
        <time>2015-09-10T13:08:11.000Z</time>
      </trkpt>
      <trkpt lat="47.69971" lon="6.10469">
        <ele>253</ele>
        <time>2015-09-10T13:08:12.000Z</time>
      </trkpt>
      <trkpt lat="47.69982" lon="6.10459">
        <ele>253</ele>
        <time>2015-09-10T13:08:16.000Z</time>
      </trkpt>
      <trkpt lat="47.69984" lon="6.10457">
        <ele>254</ele>
        <time>2015-09-10T13:08:17.000Z</time>
      </trkpt>
      <trkpt lat="47.69986" lon="6.10454">
        <ele>254</ele>
        <time>2015-09-10T13:08:18.000Z</time>
      </trkpt>
      <trkpt lat="47.69988" lon="6.10451">
        <ele>254</ele>
        <time>2015-09-10T13:08:19.000Z</time>
      </trkpt>
      <trkpt lat="47.6999" lon="6.10449">
        <ele>254</ele>
        <time>2015-09-10T13:08:20.000Z</time>
      </trkpt>
      <trkpt lat="47.69993" lon="6.10447">
        <ele>254</ele>
        <time>2015-09-10T13:08:21.000Z</time>
      </trkpt>
      <trkpt lat="47.69997" lon="6.10441">
        <ele>255</ele>
        <time>2015-09-10T13:08:23.000Z</time>
      </trkpt>
      <trkpt lat="47.70006" lon="6.1043">
        <ele>254</ele>
        <time>2015-09-10T13:08:27.000Z</time>
      </trkpt>
      <trkpt lat="47.70009" lon="6.10427">
        <ele>254</ele>
        <time>2015-09-10T13:08:28.000Z</time>
      </trkpt>
      <trkpt lat="47.70011" lon="6.10423">
        <ele>254</ele>
        <time>2015-09-10T13:08:29.000Z</time>
      </trkpt>
      <trkpt lat="47.70013" lon="6.1042">
        <ele>254</ele>
        <time>2015-09-10T13:08:30.000Z</time>
      </trkpt>
      <trkpt lat="47.70015" lon="6.10417">
        <ele>254</ele>
        <time>2015-09-10T13:08:31.000Z</time>
      </trkpt>
      <trkpt lat="47.7002" lon="6.10412">
        <ele>258</ele>
        <time>2015-09-10T13:08:33.000Z</time>
      </trkpt>
      <trkpt lat="47.70037" lon="6.1039">
        <ele>258</ele>
        <time>2015-09-10T13:08:41.000Z</time>
      </trkpt>
      <trkpt lat="47.70043" lon="6.10382">
        <ele>258</ele>
        <time>2015-09-10T13:08:44.000Z</time>
      </trkpt>
      <trkpt lat="47.70046" lon="6.1038">
        <ele>258</ele>
        <time>2015-09-10T13:08:45.000Z</time>
      </trkpt>
      <trkpt lat="47.70048" lon="6.10377">
        <ele>258</ele>
        <time>2015-09-10T13:08:46.000Z</time>
      </trkpt>
      <trkpt lat="47.70051" lon="6.10375">
        <ele>258</ele>
        <time>2015-09-10T13:08:47.000Z</time>
      </trkpt>
      <trkpt lat="47.70053" lon="6.10373">
        <ele>258</ele>
        <time>2015-09-10T13:08:48.000Z</time>
      </trkpt>
      <trkpt lat="47.70069" lon="6.10352">
        <ele>259</ele>
        <time>2015-09-10T13:08:55.000Z</time>
      </trkpt>
      <trkpt lat="47.70071" lon="6.10349">
        <ele>259</ele>
        <time>2015-09-10T13:08:56.000Z</time>
      </trkpt>
      <trkpt lat="47.70073" lon="6.10347">
        <ele>259</ele>
        <time>2015-09-10T13:08:57.000Z</time>
      </trkpt>
      <trkpt lat="47.70075" lon="6.10344">
        <ele>259</ele>
        <time>2015-09-10T13:08:58.000Z</time>
      </trkpt>
      <trkpt lat="47.70077" lon="6.10342">
        <ele>259</ele>
        <time>2015-09-10T13:08:59.000Z</time>
      </trkpt>
      <trkpt lat="47.7008" lon="6.10339">
        <ele>260</ele>
        <time>2015-09-10T13:09:00.000Z</time>
      </trkpt>
      <trkpt lat="47.70082" lon="6.10337">
        <ele>260</ele>
        <time>2015-09-10T13:09:01.000Z</time>
      </trkpt>
      <trkpt lat="47.70097" lon="6.10322">
        <ele>262</ele>
        <time>2015-09-10T13:09:07.000Z</time>
      </trkpt>
      <trkpt lat="47.70116" lon="6.103">
        <ele>263</ele>
        <time>2015-09-10T13:09:14.000Z</time>
      </trkpt>
      <trkpt lat="47.70118" lon="6.10296">
        <ele>264</ele>
        <time>2015-09-10T13:09:15.000Z</time>
      </trkpt>
      <trkpt lat="47.70121" lon="6.10292">
        <ele>264</ele>
        <time>2015-09-10T13:09:16.000Z</time>
      </trkpt>
      <trkpt lat="47.70124" lon="6.10289">
        <ele>264</ele>
        <time>2015-09-10T13:09:17.000Z</time>
      </trkpt>
      <trkpt lat="47.70128" lon="6.10283">
        <ele>264</ele>
        <time>2015-09-10T13:09:18.000Z</time>
      </trkpt>
      <trkpt lat="47.70131" lon="6.1028">
        <ele>264</ele>
        <time>2015-09-10T13:09:19.000Z</time>
      </trkpt>
      <trkpt lat="47.70143" lon="6.10269">
        <ele>265</ele>
        <time>2015-09-10T13:09:22.000Z</time>
      </trkpt>
      <trkpt lat="47.70161" lon="6.10244">
        <ele>268</ele>
        <time>2015-09-10T13:09:28.000Z</time>
      </trkpt>
      <trkpt lat="47.70185" lon="6.10199">
        <ele>264</ele>
        <time>2015-09-10T13:09:35.000Z</time>
      </trkpt>
      <trkpt lat="47.70206" lon="6.10166">
        <ele>265</ele>
        <time>2015-09-10T13:09:38.000Z</time>
      </trkpt>
      <trkpt lat="47.7021" lon="6.10158">
        <ele>264</ele>
        <time>2015-09-10T13:09:39.000Z</time>
      </trkpt>
      <trkpt lat="47.70219" lon="6.10128">
        <ele>264</ele>
        <time>2015-09-10T13:09:43.000Z</time>
      </trkpt>
      <trkpt lat="47.70221" lon="6.10114">
        <ele>264</ele>
        <time>2015-09-10T13:09:45.000Z</time>
      </trkpt>
      <trkpt lat="47.70224" lon="6.10066">
        <ele>264</ele>
        <time>2015-09-10T13:09:52.000Z</time>
      </trkpt>
      <trkpt lat="47.70226" lon="6.10046">
        <ele>264</ele>
        <time>2015-09-10T13:09:55.000Z</time>
      </trkpt>
      <trkpt lat="47.70226" lon="6.1004">
        <ele>264</ele>
        <time>2015-09-10T13:09:56.000Z</time>
      </trkpt>
      <trkpt lat="47.70227" lon="6.10034">
        <ele>264</ele>
        <time>2015-09-10T13:09:57.000Z</time>
      </trkpt>
      <trkpt lat="47.70228" lon="6.10029">
        <ele>263</ele>
        <time>2015-09-10T13:09:58.000Z</time>
      </trkpt>
      <trkpt lat="47.70228" lon="6.10023">
        <ele>263</ele>
        <time>2015-09-10T13:09:59.000Z</time>
      </trkpt>
      <trkpt lat="47.70229" lon="6.10017">
        <ele>262</ele>
        <time>2015-09-10T13:10:00.000Z</time>
      </trkpt>
      <trkpt lat="47.70239" lon="6.09977">
        <ele>261</ele>
        <time>2015-09-10T13:10:06.000Z</time>
      </trkpt>
      <trkpt lat="47.70249" lon="6.09921">
        <ele>256</ele>
        <time>2015-09-10T13:10:12.000Z</time>
      </trkpt>
      <trkpt lat="47.70253" lon="6.09903">
        <ele>255</ele>
        <time>2015-09-10T13:10:14.000Z</time>
      </trkpt>
      <trkpt lat="47.70255" lon="6.09894">
        <ele>255</ele>
        <time>2015-09-10T13:10:15.000Z</time>
      </trkpt>
      <trkpt lat="47.70256" lon="6.09885">
        <ele>255</ele>
        <time>2015-09-10T13:10:16.000Z</time>
      </trkpt>
      <trkpt lat="47.70257" lon="6.09876">
        <ele>255</ele>
        <time>2015-09-10T13:10:17.000Z</time>
      </trkpt>
      <trkpt lat="47.70257" lon="6.09867">
        <ele>255</ele>
        <time>2015-09-10T13:10:18.000Z</time>
      </trkpt>
      <trkpt lat="47.7026" lon="6.09818">
        <ele>257</ele>
        <time>2015-09-10T13:10:24.000Z</time>
      </trkpt>
      <trkpt lat="47.70261" lon="6.09771">
        <ele>258</ele>
        <time>2015-09-10T13:10:31.000Z</time>
      </trkpt>
      <trkpt lat="47.70261" lon="6.09758">
        <ele>258</ele>
        <time>2015-09-10T13:10:33.000Z</time>
      </trkpt>
      <trkpt lat="47.70262" lon="6.09736">
        <ele>260</ele>
        <time>2015-09-10T13:10:37.000Z</time>
      </trkpt>
      <trkpt lat="47.70263" lon="6.09727">
        <ele>260</ele>
        <time>2015-09-10T13:10:39.000Z</time>
      </trkpt>
      <trkpt lat="47.70264" lon="6.09723">
        <ele>260</ele>
        <time>2015-09-10T13:10:40.000Z</time>
      </trkpt>
      <trkpt lat="47.70264" lon="6.09718">
        <ele>260</ele>
        <time>2015-09-10T13:10:41.000Z</time>
      </trkpt>
      <trkpt lat="47.70265" lon="6.09714">
        <ele>261</ele>
        <time>2015-09-10T13:10:42.000Z</time>
      </trkpt>
      <trkpt lat="47.70266" lon="6.09711">
        <ele>261</ele>
        <time>2015-09-10T13:10:43.000Z</time>
      </trkpt>
      <trkpt lat="47.70269" lon="6.09695">
        <ele>261</ele>
        <time>2015-09-10T13:10:48.000Z</time>
      </trkpt>
      <trkpt lat="47.70272" lon="6.09677">
        <ele>262</ele>
        <time>2015-09-10T13:10:53.000Z</time>
      </trkpt>
      <trkpt lat="47.70275" lon="6.09658">
        <ele>265</ele>
        <time>2015-09-10T13:10:58.000Z</time>
      </trkpt>
      <trkpt lat="47.70275" lon="6.09654">
        <ele>265</ele>
        <time>2015-09-10T13:10:59.000Z</time>
      </trkpt>
      <trkpt lat="47.70276" lon="6.09651">
        <ele>265</ele>
        <time>2015-09-10T13:11:00.000Z</time>
      </trkpt>
      <trkpt lat="47.70277" lon="6.09648">
        <ele>265</ele>
        <time>2015-09-10T13:11:01.000Z</time>
      </trkpt>
      <trkpt lat="47.70282" lon="6.09628">
        <ele>266</ele>
        <time>2015-09-10T13:11:08.000Z</time>
      </trkpt>
      <trkpt lat="47.70282" lon="6.0961">
        <ele>267</ele>
        <time>2015-09-10T13:11:15.000Z</time>
      </trkpt>
      <trkpt lat="47.70284" lon="6.09597">
        <ele>268</ele>
        <time>2015-09-10T13:11:20.000Z</time>
      </trkpt>
      <trkpt lat="47.70284" lon="6.09594">
        <ele>268</ele>
        <time>2015-09-10T13:11:21.000Z</time>
      </trkpt>
      <trkpt lat="47.70285" lon="6.09592">
        <ele>268</ele>
        <time>2015-09-10T13:11:22.000Z</time>
      </trkpt>
      <trkpt lat="47.70285" lon="6.0959">
        <ele>268</ele>
        <time>2015-09-10T13:11:23.000Z</time>
      </trkpt>
      <trkpt lat="47.70285" lon="6.09581">
        <ele>274</ele>
        <time>2015-09-10T13:11:26.000Z</time>
      </trkpt>
      <trkpt lat="47.70286" lon="6.0957">
        <ele>274</ele>
        <time>2015-09-10T13:11:29.000Z</time>
      </trkpt>
      <trkpt lat="47.70286" lon="6.09564">
        <ele>275</ele>
        <time>2015-09-10T13:11:31.000Z</time>
      </trkpt>
      <trkpt lat="47.70287" lon="6.0956">
        <ele>275</ele>
        <time>2015-09-10T13:11:32.000Z</time>
      </trkpt>
      <trkpt lat="47.7029" lon="6.09539">
        <ele>277</ele>
        <time>2015-09-10T13:11:39.000Z</time>
      </trkpt>
      <trkpt lat="47.70291" lon="6.09536">
        <ele>277</ele>
        <time>2015-09-10T13:11:40.000Z</time>
      </trkpt>
      <trkpt lat="47.70292" lon="6.09534">
        <ele>277</ele>
        <time>2015-09-10T13:11:41.000Z</time>
      </trkpt>
      <trkpt lat="47.70293" lon="6.09532">
        <ele>277</ele>
        <time>2015-09-10T13:11:42.000Z</time>
      </trkpt>
      <trkpt lat="47.70294" lon="6.0953">
        <ele>277</ele>
        <time>2015-09-10T13:11:43.000Z</time>
      </trkpt>
      <trkpt lat="47.70298" lon="6.09522">
        <ele>278</ele>
        <time>2015-09-10T13:11:48.000Z</time>
      </trkpt>
      <trkpt lat="47.703" lon="6.09517">
        <ele>279</ele>
        <time>2015-09-10T13:11:50.000Z</time>
      </trkpt>
      <trkpt lat="47.70301" lon="6.09512">
        <ele>279</ele>
        <time>2015-09-10T13:11:52.000Z</time>
      </trkpt>
      <trkpt lat="47.7031" lon="6.09474">
        <ele>287</ele>
        <time>2015-09-10T13:12:15.000Z</time>
      </trkpt>
      <trkpt lat="47.70311" lon="6.09471">
        <ele>287</ele>
        <time>2015-09-10T13:12:16.000Z</time>
      </trkpt>
      <trkpt lat="47.70406" lon="6.09086">
        <ele>311</ele>
        <time>2015-09-10T13:16:08.000Z</time>
      </trkpt>
      <trkpt lat="47.70407" lon="6.09083">
        <ele>311</ele>
        <time>2015-09-10T13:16:09.000Z</time>
      </trkpt>
      <trkpt lat="47.70407" lon="6.09081">
        <ele>311</ele>
        <time>2015-09-10T13:16:10.000Z</time>
      </trkpt>
      <trkpt lat="47.70413" lon="6.09058">
        <ele>312</ele>
        <time>2015-09-10T13:18:01.000Z</time>
      </trkpt>
      <trkpt lat="47.70413" lon="6.09056">
        <ele>312</ele>
        <time>2015-09-10T13:18:02.000Z</time>
      </trkpt>
      <trkpt lat="47.70412" lon="6.09047">
        <ele>312</ele>
        <time>2015-09-10T13:18:06.000Z</time>
      </trkpt>
      <trkpt lat="47.70412" lon="6.09044">
        <ele>312</ele>
        <time>2015-09-10T13:18:07.000Z</time>
      </trkpt>
      <trkpt lat="47.70419" lon="6.09032">
        <ele>308</ele>
        <time>2015-09-10T13:18:12.000Z</time>
      </trkpt>
      <trkpt lat="47.70425" lon="6.09021">
        <ele>309</ele>
        <time>2015-09-10T13:18:18.000Z</time>
      </trkpt>
      <trkpt lat="47.70434" lon="6.09005">
        <ele>309</ele>
        <time>2015-09-10T13:18:24.000Z</time>
      </trkpt>
      <trkpt lat="47.70446" lon="6.08984">
        <ele>307</ele>
        <time>2015-09-10T13:18:29.000Z</time>
      </trkpt>
      <trkpt lat="47.70449" lon="6.08979">
        <ele>306</ele>
        <time>2015-09-10T13:18:30.000Z</time>
      </trkpt>
      <trkpt lat="47.70451" lon="6.08974">
        <ele>306</ele>
        <time>2015-09-10T13:18:31.000Z</time>
      </trkpt>
      <trkpt lat="47.70453" lon="6.08969">
        <ele>306</ele>
        <time>2015-09-10T13:18:32.000Z</time>
      </trkpt>
      <trkpt lat="47.70454" lon="6.08964">
        <ele>306</ele>
        <time>2015-09-10T13:18:33.000Z</time>
      </trkpt>
      <trkpt lat="47.70456" lon="6.08959">
        <ele>306</ele>
        <time>2015-09-10T13:18:34.000Z</time>
      </trkpt>
      <trkpt lat="47.70459" lon="6.08954">
        <ele>305</ele>
        <time>2015-09-10T13:18:35.000Z</time>
      </trkpt>
      <trkpt lat="47.70466" lon="6.08947">
        <ele>305</ele>
        <time>2015-09-10T13:18:37.000Z</time>
      </trkpt>
      <trkpt lat="47.70478" lon="6.08941">
        <ele>305</ele>
        <time>2015-09-10T13:18:40.000Z</time>
      </trkpt>
      <trkpt lat="47.70484" lon="6.0894">
        <ele>305</ele>
        <time>2015-09-10T13:18:42.000Z</time>
      </trkpt>
      <trkpt lat="47.70488" lon="6.0894">
        <ele>305</ele>
        <time>2015-09-10T13:18:43.000Z</time>
      </trkpt>
      <trkpt lat="47.70491" lon="6.0894">
        <ele>305</ele>
        <time>2015-09-10T13:18:44.000Z</time>
      </trkpt>
      <trkpt lat="47.70494" lon="6.08938">
        <ele>305</ele>
        <time>2015-09-10T13:18:45.000Z</time>
      </trkpt>
      <trkpt lat="47.70497" lon="6.08937">
        <ele>305</ele>
        <time>2015-09-10T13:18:46.000Z</time>
      </trkpt>
      <trkpt lat="47.70503" lon="6.08932">
        <ele>305</ele>
        <time>2015-09-10T13:18:48.000Z</time>
      </trkpt>
      <trkpt lat="47.7052" lon="6.08916">
        <ele>307</ele>
        <time>2015-09-10T13:18:53.000Z</time>
      </trkpt>
      <trkpt lat="47.70534" lon="6.08907">
        <ele>308</ele>
        <time>2015-09-10T13:18:58.000Z</time>
      </trkpt>
      <trkpt lat="47.70549" lon="6.08894">
        <ele>309</ele>
        <time>2015-09-10T13:19:03.000Z</time>
      </trkpt>
      <trkpt lat="47.70558" lon="6.08882">
        <ele>310</ele>
        <time>2015-09-10T13:19:08.000Z</time>
      </trkpt>
      <trkpt lat="47.70568" lon="6.08863">
        <ele>311</ele>
        <time>2015-09-10T13:19:13.000Z</time>
      </trkpt>
      <trkpt lat="47.70571" lon="6.08839">
        <ele>313</ele>
        <time>2015-09-10T13:19:18.000Z</time>
      </trkpt>
      <trkpt lat="47.70575" lon="6.08812">
        <ele>313</ele>
        <time>2015-09-10T13:19:24.000Z</time>
      </trkpt>
      <trkpt lat="47.70575" lon="6.08807">
        <ele>313</ele>
        <time>2015-09-10T13:19:25.000Z</time>
      </trkpt>
      <trkpt lat="47.70575" lon="6.08802">
        <ele>313</ele>
        <time>2015-09-10T13:19:26.000Z</time>
      </trkpt>
      <trkpt lat="47.70575" lon="6.08797">
        <ele>313</ele>
        <time>2015-09-10T13:19:27.000Z</time>
      </trkpt>
      <trkpt lat="47.70576" lon="6.08793">
        <ele>313</ele>
        <time>2015-09-10T13:19:28.000Z</time>
      </trkpt>
      <trkpt lat="47.70576" lon="6.08781">
        <ele>312</ele>
        <time>2015-09-10T13:19:31.000Z</time>
      </trkpt>
      <trkpt lat="47.70573" lon="6.08769">
        <ele>312</ele>
        <time>2015-09-10T13:19:35.000Z</time>
      </trkpt>
      <trkpt lat="47.70564" lon="6.08758">
        <ele>312</ele>
        <time>2015-09-10T13:19:38.000Z</time>
      </trkpt>
      <trkpt lat="47.70546" lon="6.08738">
        <ele>312</ele>
        <time>2015-09-10T13:19:42.000Z</time>
      </trkpt>
      <trkpt lat="47.70541" lon="6.08733">
        <ele>312</ele>
        <time>2015-09-10T13:19:43.000Z</time>
      </trkpt>
      <trkpt lat="47.70534" lon="6.08726">
        <ele>312</ele>
        <time>2015-09-10T13:19:44.000Z</time>
      </trkpt>
      <trkpt lat="47.70529" lon="6.08721">
        <ele>312</ele>
        <time>2015-09-10T13:19:45.000Z</time>
      </trkpt>
      <trkpt lat="47.70523" lon="6.08716">
        <ele>312</ele>
        <time>2015-09-10T13:19:46.000Z</time>
      </trkpt>
      <trkpt lat="47.70517" lon="6.0871">
        <ele>312</ele>
        <time>2015-09-10T13:19:47.000Z</time>
      </trkpt>
      <trkpt lat="47.70511" lon="6.08706">
        <ele>312</ele>
        <time>2015-09-10T13:19:48.000Z</time>
      </trkpt>
      <trkpt lat="47.70504" lon="6.08701">
        <ele>312</ele>
        <time>2015-09-10T13:19:49.000Z</time>
      </trkpt>
      <trkpt lat="47.70497" lon="6.08695">
        <ele>309</ele>
        <time>2015-09-10T13:19:50.000Z</time>
      </trkpt>
      <trkpt lat="47.7049" lon="6.0869">
        <ele>309</ele>
        <time>2015-09-10T13:19:51.000Z</time>
      </trkpt>
      <trkpt lat="47.70452" lon="6.08661">
        <ele>310</ele>
        <time>2015-09-10T13:19:56.000Z</time>
      </trkpt>
      <trkpt lat="47.70423" lon="6.08633">
        <ele>309</ele>
        <time>2015-09-10T13:20:00.000Z</time>
      </trkpt>
      <trkpt lat="47.70416" lon="6.08627">
        <ele>306</ele>
        <time>2015-09-10T13:20:01.000Z</time>
      </trkpt>
      <trkpt lat="47.70409" lon="6.0862">
        <ele>306</ele>
        <time>2015-09-10T13:20:02.000Z</time>
      </trkpt>
      <trkpt lat="47.70402" lon="6.08615">
        <ele>306</ele>
        <time>2015-09-10T13:20:03.000Z</time>
      </trkpt>
      <trkpt lat="47.70376" lon="6.08595">
        <ele>305</ele>
        <time>2015-09-10T13:20:07.000Z</time>
      </trkpt>
      <trkpt lat="47.7037" lon="6.0859">
        <ele>305</ele>
        <time>2015-09-10T13:20:08.000Z</time>
      </trkpt>
      <trkpt lat="47.70364" lon="6.08584">
        <ele>305</ele>
        <time>2015-09-10T13:20:09.000Z</time>
      </trkpt>
      <trkpt lat="47.70358" lon="6.08579">
        <ele>305</ele>
        <time>2015-09-10T13:20:10.000Z</time>
      </trkpt>
      <trkpt lat="47.70351" lon="6.08574">
        <ele>305</ele>
        <time>2015-09-10T13:20:11.000Z</time>
      </trkpt>
      <trkpt lat="47.70324" lon="6.08551">
        <ele>304</ele>
        <time>2015-09-10T13:20:15.000Z</time>
      </trkpt>
      <trkpt lat="47.70318" lon="6.08546">
        <ele>304</ele>
        <time>2015-09-10T13:20:16.000Z</time>
      </trkpt>
      <trkpt lat="47.70311" lon="6.0854">
        <ele>304</ele>
        <time>2015-09-10T13:20:18.000Z</time>
      </trkpt>
      <trkpt lat="47.70304" lon="6.08535">
        <ele>304</ele>
        <time>2015-09-10T13:20:19.000Z</time>
      </trkpt>
      <trkpt lat="47.70298" lon="6.0853">
        <ele>304</ele>
        <time>2015-09-10T13:20:20.000Z</time>
      </trkpt>
      <trkpt lat="47.70278" lon="6.08516">
        <ele>304</ele>
        <time>2015-09-10T13:20:23.000Z</time>
      </trkpt>
      <trkpt lat="47.70242" lon="6.0849">
        <ele>302</ele>
        <time>2015-09-10T13:20:29.000Z</time>
      </trkpt>
      <trkpt lat="47.70227" lon="6.08479">
        <ele>300</ele>
        <time>2015-09-10T13:20:31.000Z</time>
      </trkpt>
      <trkpt lat="47.7022" lon="6.08473">
        <ele>299</ele>
        <time>2015-09-10T13:20:32.000Z</time>
      </trkpt>
      <trkpt lat="47.70211" lon="6.08465">
        <ele>298</ele>
        <time>2015-09-10T13:20:33.000Z</time>
      </trkpt>
      <trkpt lat="47.70202" lon="6.08456">
        <ele>297</ele>
        <time>2015-09-10T13:20:34.000Z</time>
      </trkpt>
      <trkpt lat="47.70194" lon="6.08447">
        <ele>296</ele>
        <time>2015-09-10T13:20:35.000Z</time>
      </trkpt>
      <trkpt lat="47.70162" lon="6.08418">
        <ele>288</ele>
        <time>2015-09-10T13:20:39.000Z</time>
      </trkpt>
      <trkpt lat="47.70156" lon="6.0841">
        <ele>288</ele>
        <time>2015-09-10T13:20:40.000Z</time>
      </trkpt>
      <trkpt lat="47.7015" lon="6.08402">
        <ele>288</ele>
        <time>2015-09-10T13:20:41.000Z</time>
      </trkpt>
      <trkpt lat="47.70145" lon="6.08392">
        <ele>288</ele>
        <time>2015-09-10T13:20:42.000Z</time>
      </trkpt>
      <trkpt lat="47.70141" lon="6.08382">
        <ele>288</ele>
        <time>2015-09-10T13:20:43.000Z</time>
      </trkpt>
      <trkpt lat="47.70139" lon="6.0837">
        <ele>288</ele>
        <time>2015-09-10T13:20:44.000Z</time>
      </trkpt>
      <trkpt lat="47.70135" lon="6.08347">
        <ele>288</ele>
        <time>2015-09-10T13:20:46.000Z</time>
      </trkpt>
      <trkpt lat="47.70133" lon="6.08335">
        <ele>288</ele>
        <time>2015-09-10T13:20:47.000Z</time>
      </trkpt>
      <trkpt lat="47.70131" lon="6.08323">
        <ele>285</ele>
        <time>2015-09-10T13:20:48.000Z</time>
      </trkpt>
      <trkpt lat="47.70129" lon="6.0831">
        <ele>284</ele>
        <time>2015-09-10T13:20:49.000Z</time>
      </trkpt>
      <trkpt lat="47.70126" lon="6.08297">
        <ele>284</ele>
        <time>2015-09-10T13:20:50.000Z</time>
      </trkpt>
      <trkpt lat="47.70122" lon="6.08285">
        <ele>283</ele>
        <time>2015-09-10T13:20:51.000Z</time>
      </trkpt>
      <trkpt lat="47.70118" lon="6.08272">
        <ele>283</ele>
        <time>2015-09-10T13:20:52.000Z</time>
      </trkpt>
      <trkpt lat="47.70114" lon="6.08259">
        <ele>282</ele>
        <time>2015-09-10T13:20:53.000Z</time>
      </trkpt>
      <trkpt lat="47.7011" lon="6.08247">
        <ele>277</ele>
        <time>2015-09-10T13:20:54.000Z</time>
      </trkpt>
      <trkpt lat="47.70106" lon="6.08234">
        <ele>277</ele>
        <time>2015-09-10T13:20:55.000Z</time>
      </trkpt>
      <trkpt lat="47.70101" lon="6.08221">
        <ele>276</ele>
        <time>2015-09-10T13:20:56.000Z</time>
      </trkpt>
      <trkpt lat="47.70095" lon="6.08206">
        <ele>275</ele>
        <time>2015-09-10T13:20:57.000Z</time>
      </trkpt>
      <trkpt lat="47.7009" lon="6.08193">
        <ele>274</ele>
        <time>2015-09-10T13:20:58.000Z</time>
      </trkpt>
      <trkpt lat="47.70084" lon="6.08181">
        <ele>273</ele>
        <time>2015-09-10T13:20:59.000Z</time>
      </trkpt>
      <trkpt lat="47.70079" lon="6.08168">
        <ele>273</ele>
        <time>2015-09-10T13:21:00.000Z</time>
      </trkpt>
      <trkpt lat="47.70073" lon="6.08156">
        <ele>271</ele>
        <time>2015-09-10T13:21:01.000Z</time>
      </trkpt>
      <trkpt lat="47.70068" lon="6.08144">
        <ele>271</ele>
        <time>2015-09-10T13:21:02.000Z</time>
      </trkpt>
      <trkpt lat="47.70063" lon="6.08131">
        <ele>271</ele>
        <time>2015-09-10T13:21:03.000Z</time>
      </trkpt>
      <trkpt lat="47.70058" lon="6.08119">
        <ele>271</ele>
        <time>2015-09-10T13:21:04.000Z</time>
      </trkpt>
      <trkpt lat="47.70053" lon="6.08107">
        <ele>270</ele>
        <time>2015-09-10T13:21:05.000Z</time>
      </trkpt>
      <trkpt lat="47.70049" lon="6.08096">
        <ele>270</ele>
        <time>2015-09-10T13:21:06.000Z</time>
      </trkpt>
      <trkpt lat="47.70045" lon="6.08087">
        <ele>270</ele>
        <time>2015-09-10T13:21:07.000Z</time>
      </trkpt>
      <trkpt lat="47.70041" lon="6.08078">
        <ele>267</ele>
        <time>2015-09-10T13:21:08.000Z</time>
      </trkpt>
      <trkpt lat="47.70038" lon="6.08069">
        <ele>267</ele>
        <time>2015-09-10T13:21:09.000Z</time>
      </trkpt>
      <trkpt lat="47.70037" lon="6.0806">
        <ele>267</ele>
        <time>2015-09-10T13:21:10.000Z</time>
      </trkpt>
      <trkpt lat="47.70038" lon="6.0805">
        <ele>267</ele>
        <time>2015-09-10T13:21:11.000Z</time>
      </trkpt>
      <trkpt lat="47.70039" lon="6.08039">
        <ele>267</ele>
        <time>2015-09-10T13:21:12.000Z</time>
      </trkpt>
      <trkpt lat="47.70042" lon="6.08029">
        <ele>266</ele>
        <time>2015-09-10T13:21:13.000Z</time>
      </trkpt>
      <trkpt lat="47.70046" lon="6.08017">
        <ele>266</ele>
        <time>2015-09-10T13:21:14.000Z</time>
      </trkpt>
      <trkpt lat="47.70051" lon="6.08005">
        <ele>265</ele>
        <time>2015-09-10T13:21:15.000Z</time>
      </trkpt>
      <trkpt lat="47.70055" lon="6.07993">
        <ele>263</ele>
        <time>2015-09-10T13:21:16.000Z</time>
      </trkpt>
      <trkpt lat="47.7006" lon="6.07981">
        <ele>263</ele>
        <time>2015-09-10T13:21:17.000Z</time>
      </trkpt>
      <trkpt lat="47.70064" lon="6.07969">
        <ele>263</ele>
        <time>2015-09-10T13:21:18.000Z</time>
      </trkpt>
      <trkpt lat="47.70068" lon="6.07957">
        <ele>263</ele>
        <time>2015-09-10T13:21:19.000Z</time>
      </trkpt>
      <trkpt lat="47.70073" lon="6.07945">
        <ele>263</ele>
        <time>2015-09-10T13:21:20.000Z</time>
      </trkpt>
      <trkpt lat="47.70077" lon="6.07934">
        <ele>263</ele>
        <time>2015-09-10T13:21:21.000Z</time>
      </trkpt>
      <trkpt lat="47.70081" lon="6.07923">
        <ele>262</ele>
        <time>2015-09-10T13:21:22.000Z</time>
      </trkpt>
      <trkpt lat="47.70084" lon="6.07913">
        <ele>263</ele>
        <time>2015-09-10T13:21:23.000Z</time>
      </trkpt>
      <trkpt lat="47.70087" lon="6.07902">
        <ele>264</ele>
        <time>2015-09-10T13:21:24.000Z</time>
      </trkpt>
      <trkpt lat="47.70088" lon="6.07892">
        <ele>265</ele>
        <time>2015-09-10T13:21:25.000Z</time>
      </trkpt>
      <trkpt lat="47.70088" lon="6.07882">
        <ele>265</ele>
        <time>2015-09-10T13:21:26.000Z</time>
      </trkpt>
      <trkpt lat="47.70087" lon="6.07864">
        <ele>266</ele>
        <time>2015-09-10T13:21:28.000Z</time>
      </trkpt>
      <trkpt lat="47.70084" lon="6.07857">
        <ele>266</ele>
        <time>2015-09-10T13:21:29.000Z</time>
      </trkpt>
      <trkpt lat="47.7007" lon="6.07829">
        <ele>266</ele>
        <time>2015-09-10T13:21:34.000Z</time>
      </trkpt>
      <trkpt lat="47.70066" lon="6.07825">
        <ele>266</ele>
        <time>2015-09-10T13:21:35.000Z</time>
      </trkpt>
      <trkpt lat="47.70061" lon="6.07821">
        <ele>266</ele>
        <time>2015-09-10T13:21:36.000Z</time>
      </trkpt>
      <trkpt lat="47.70057" lon="6.07818">
        <ele>266</ele>
        <time>2015-09-10T13:21:37.000Z</time>
      </trkpt>
      <trkpt lat="47.70052" lon="6.07815">
        <ele>266</ele>
        <time>2015-09-10T13:21:38.000Z</time>
      </trkpt>
      <trkpt lat="47.70042" lon="6.0781">
        <ele>266</ele>
        <time>2015-09-10T13:21:40.000Z</time>
      </trkpt>
      <trkpt lat="47.70029" lon="6.07803">
        <ele>266</ele>
        <time>2015-09-10T13:21:43.000Z</time>
      </trkpt>
      <trkpt lat="47.70025" lon="6.07801">
        <ele>266</ele>
        <time>2015-09-10T13:21:44.000Z</time>
      </trkpt>
      <trkpt lat="47.70021" lon="6.07798">
        <ele>266</ele>
        <time>2015-09-10T13:21:45.000Z</time>
      </trkpt>
      <trkpt lat="47.70017" lon="6.07795">
        <ele>266</ele>
        <time>2015-09-10T13:21:46.000Z</time>
      </trkpt>
      <trkpt lat="47.70013" lon="6.07792">
        <ele>266</ele>
        <time>2015-09-10T13:21:47.000Z</time>
      </trkpt>
      <trkpt lat="47.70007" lon="6.07787">
        <ele>266</ele>
        <time>2015-09-10T13:21:49.000Z</time>
      </trkpt>
      <trkpt lat="47.69984" lon="6.07779">
        <ele>264</ele>
        <time>2015-09-10T13:21:55.000Z</time>
      </trkpt>
      <trkpt lat="47.6997" lon="6.0776">
        <ele>264</ele>
        <time>2015-09-10T13:21:59.000Z</time>
      </trkpt>
      <trkpt lat="47.69962" lon="6.07735">
        <ele>264</ele>
        <time>2015-09-10T13:22:03.000Z</time>
      </trkpt>
      <trkpt lat="47.69961" lon="6.07728">
        <ele>264</ele>
        <time>2015-09-10T13:22:04.000Z</time>
      </trkpt>
      <trkpt lat="47.69964" lon="6.07708">
        <ele>264</ele>
        <time>2015-09-10T13:22:07.000Z</time>
      </trkpt>
      <trkpt lat="47.69973" lon="6.0769">
        <ele>265</ele>
        <time>2015-09-10T13:22:10.000Z</time>
      </trkpt>
      <trkpt lat="47.69976" lon="6.07685">
        <ele>265</ele>
        <time>2015-09-10T13:22:11.000Z</time>
      </trkpt>
      <trkpt lat="47.69981" lon="6.07673">
        <ele>265</ele>
        <time>2015-09-10T13:22:13.000Z</time>
      </trkpt>
      <trkpt lat="47.69983" lon="6.07661">
        <ele>265</ele>
        <time>2015-09-10T13:22:15.000Z</time>
      </trkpt>
      <trkpt lat="47.69977" lon="6.07645">
        <ele>265</ele>
        <time>2015-09-10T13:22:18.000Z</time>
      </trkpt>
      <trkpt lat="47.69962" lon="6.07632">
        <ele>264</ele>
        <time>2015-09-10T13:22:22.000Z</time>
      </trkpt>
      <trkpt lat="47.69952" lon="6.07623">
        <ele>264</ele>
        <time>2015-09-10T13:22:25.000Z</time>
      </trkpt>
      <trkpt lat="47.69942" lon="6.07615">
        <ele>264</ele>
        <time>2015-09-10T13:22:27.000Z</time>
      </trkpt>
      <trkpt lat="47.69913" lon="6.07587">
        <ele>264</ele>
        <time>2015-09-10T13:22:33.000Z</time>
      </trkpt>
      <trkpt lat="47.69886" lon="6.07563">
        <ele>263</ele>
        <time>2015-09-10T13:22:39.000Z</time>
      </trkpt>
      <trkpt lat="47.69882" lon="6.0756">
        <ele>263</ele>
        <time>2015-09-10T13:22:40.000Z</time>
      </trkpt>
      <trkpt lat="47.69878" lon="6.07556">
        <ele>263</ele>
        <time>2015-09-10T13:22:41.000Z</time>
      </trkpt>
      <trkpt lat="47.69874" lon="6.07553">
        <ele>263</ele>
        <time>2015-09-10T13:22:42.000Z</time>
      </trkpt>
      <trkpt lat="47.6987" lon="6.07549">
        <ele>263</ele>
        <time>2015-09-10T13:22:43.000Z</time>
      </trkpt>
      <trkpt lat="47.69857" lon="6.07539">
        <ele>263</ele>
        <time>2015-09-10T13:22:46.000Z</time>
      </trkpt>
      <trkpt lat="47.69853" lon="6.07536">
        <ele>263</ele>
        <time>2015-09-10T13:22:47.000Z</time>
      </trkpt>
      <trkpt lat="47.69825" lon="6.07512">
        <ele>264</ele>
        <time>2015-09-10T13:22:54.000Z</time>
      </trkpt>
      <trkpt lat="47.69796" lon="6.07485">
        <ele>264</ele>
        <time>2015-09-10T13:23:01.000Z</time>
      </trkpt>
      <trkpt lat="47.69791" lon="6.07467">
        <ele>263</ele>
        <time>2015-09-10T13:23:04.000Z</time>
      </trkpt>
      <trkpt lat="47.69791" lon="6.07448">
        <ele>263</ele>
        <time>2015-09-10T13:23:07.000Z</time>
      </trkpt>
      <trkpt lat="47.69792" lon="6.07436">
        <ele>263</ele>
        <time>2015-09-10T13:23:09.000Z</time>
      </trkpt>
      <trkpt lat="47.69795" lon="6.07396">
        <ele>261</ele>
        <time>2015-09-10T13:23:16.000Z</time>
      </trkpt>
      <trkpt lat="47.69798" lon="6.07358">
        <ele>261</ele>
        <time>2015-09-10T13:23:22.000Z</time>
      </trkpt>
      <trkpt lat="47.69801" lon="6.07315">
        <ele>261</ele>
        <time>2015-09-10T13:23:28.000Z</time>
      </trkpt>
      <trkpt lat="47.69802" lon="6.07307">
        <ele>262</ele>
        <time>2015-09-10T13:23:29.000Z</time>
      </trkpt>
      <trkpt lat="47.69803" lon="6.07299">
        <ele>262</ele>
        <time>2015-09-10T13:23:30.000Z</time>
      </trkpt>
      <trkpt lat="47.69803" lon="6.07292">
        <ele>262</ele>
        <time>2015-09-10T13:23:31.000Z</time>
      </trkpt>
      <trkpt lat="47.69804" lon="6.07285">
        <ele>262</ele>
        <time>2015-09-10T13:23:32.000Z</time>
      </trkpt>
      <trkpt lat="47.69806" lon="6.0726">
        <ele>262</ele>
        <time>2015-09-10T13:23:36.000Z</time>
      </trkpt>
      <trkpt lat="47.69806" lon="6.07218">
        <ele>264</ele>
        <time>2015-09-10T13:23:43.000Z</time>
      </trkpt>
      <trkpt lat="47.69806" lon="6.07161">
        <ele>264</ele>
        <time>2015-09-10T13:23:52.000Z</time>
      </trkpt>
      <trkpt lat="47.69804" lon="6.07148">
        <ele>265</ele>
        <time>2015-09-10T13:23:54.000Z</time>
      </trkpt>
      <trkpt lat="47.69799" lon="6.07132">
        <ele>265</ele>
        <time>2015-09-10T13:23:57.000Z</time>
      </trkpt>
      <trkpt lat="47.69797" lon="6.07128">
        <ele>265</ele>
        <time>2015-09-10T13:23:58.000Z</time>
      </trkpt>
      <trkpt lat="47.69781" lon="6.07099">
        <ele>266</ele>
        <time>2015-09-10T13:24:05.000Z</time>
      </trkpt>
      <trkpt lat="47.6977" lon="6.07074">
        <ele>267</ele>
        <time>2015-09-10T13:24:10.000Z</time>
      </trkpt>
      <trkpt lat="47.69768" lon="6.0707">
        <ele>267</ele>
        <time>2015-09-10T13:24:11.000Z</time>
      </trkpt>
      <trkpt lat="47.69766" lon="6.07065">
        <ele>267</ele>
        <time>2015-09-10T13:24:12.000Z</time>
      </trkpt>
      <trkpt lat="47.69763" lon="6.07061">
        <ele>267</ele>
        <time>2015-09-10T13:24:13.000Z</time>
      </trkpt>
      <trkpt lat="47.69762" lon="6.07056">
        <ele>267</ele>
        <time>2015-09-10T13:24:14.000Z</time>
      </trkpt>
      <trkpt lat="47.69756" lon="6.07041">
        <ele>267</ele>
        <time>2015-09-10T13:24:17.000Z</time>
      </trkpt>
      <trkpt lat="47.69748" lon="6.07021">
        <ele>271</ele>
        <time>2015-09-10T13:24:21.000Z</time>
      </trkpt>
      <trkpt lat="47.69747" lon="6.07017">
        <ele>271</ele>
        <time>2015-09-10T13:24:22.000Z</time>
      </trkpt>
      <trkpt lat="47.69745" lon="6.07012">
        <ele>271</ele>
        <time>2015-09-10T13:24:23.000Z</time>
      </trkpt>
      <trkpt lat="47.69743" lon="6.07008">
        <ele>270</ele>
        <time>2015-09-10T13:24:24.000Z</time>
      </trkpt>
      <trkpt lat="47.69741" lon="6.07003">
        <ele>270</ele>
        <time>2015-09-10T13:24:25.000Z</time>
      </trkpt>
      <trkpt lat="47.69734" lon="6.0698">
        <ele>271</ele>
        <time>2015-09-10T13:24:30.000Z</time>
      </trkpt>
      <trkpt lat="47.69727" lon="6.06959">
        <ele>271</ele>
        <time>2015-09-10T13:24:36.000Z</time>
      </trkpt>
      <trkpt lat="47.69726" lon="6.06952">
        <ele>271</ele>
        <time>2015-09-10T13:24:55.000Z</time>
      </trkpt>
      <trkpt lat="47.69724" lon="6.06947">
        <ele>271</ele>
        <time>2015-09-10T13:24:57.000Z</time>
      </trkpt>
      <trkpt lat="47.69723" lon="6.06945">
        <ele>271</ele>
        <time>2015-09-10T13:24:58.000Z</time>
      </trkpt>
      <trkpt lat="47.69722" lon="6.06942">
        <ele>271</ele>
        <time>2015-09-10T13:24:59.000Z</time>
      </trkpt>
      <trkpt lat="47.6972" lon="6.0694">
        <ele>271</ele>
        <time>2015-09-10T13:25:00.000Z</time>
      </trkpt>
      <trkpt lat="47.69717" lon="6.06923">
        <ele>271</ele>
        <time>2015-09-10T13:25:04.000Z</time>
      </trkpt>
      <trkpt lat="47.69711" lon="6.06889">
        <ele>271</ele>
        <time>2015-09-10T13:25:11.000Z</time>
      </trkpt>
      <trkpt lat="47.69703" lon="6.06854">
        <ele>271</ele>
        <time>2015-09-10T13:25:17.000Z</time>
      </trkpt>
      <trkpt lat="47.697" lon="6.06826">
        <ele>270</ele>
        <time>2015-09-10T13:25:21.000Z</time>
      </trkpt>
      <trkpt lat="47.69701" lon="6.06818">
        <ele>270</ele>
        <time>2015-09-10T13:25:22.000Z</time>
      </trkpt>
      <trkpt lat="47.69701" lon="6.0681">
        <ele>270</ele>
        <time>2015-09-10T13:25:23.000Z</time>
      </trkpt>
      <trkpt lat="47.69701" lon="6.06802">
        <ele>270</ele>
        <time>2015-09-10T13:25:24.000Z</time>
      </trkpt>
      <trkpt lat="47.69702" lon="6.06793">
        <ele>270</ele>
        <time>2015-09-10T13:25:25.000Z</time>
      </trkpt>
      <trkpt lat="47.69702" lon="6.06785">
        <ele>270</ele>
        <time>2015-09-10T13:25:26.000Z</time>
      </trkpt>
      <trkpt lat="47.69703" lon="6.06776">
        <ele>270</ele>
        <time>2015-09-10T13:25:27.000Z</time>
      </trkpt>
      <trkpt lat="47.69704" lon="6.06768">
        <ele>270</ele>
        <time>2015-09-10T13:25:28.000Z</time>
      </trkpt>
      <trkpt lat="47.69705" lon="6.06725">
        <ele>270</ele>
        <time>2015-09-10T13:25:34.000Z</time>
      </trkpt>
      <trkpt lat="47.69705" lon="6.06685">
        <ele>270</ele>
        <time>2015-09-10T13:25:40.000Z</time>
      </trkpt>
      <trkpt lat="47.69705" lon="6.06629">
        <ele>270</ele>
        <time>2015-09-10T13:25:48.000Z</time>
      </trkpt>
      <trkpt lat="47.6971" lon="6.06589">
        <ele>269</ele>
        <time>2015-09-10T13:25:54.000Z</time>
      </trkpt>
      <trkpt lat="47.69721" lon="6.06525">
        <ele>267</ele>
        <time>2015-09-10T13:26:02.000Z</time>
      </trkpt>
      <trkpt lat="47.69728" lon="6.06477">
        <ele>266</ele>
        <time>2015-09-10T13:26:07.000Z</time>
      </trkpt>
      <trkpt lat="47.69728" lon="6.06467">
        <ele>266</ele>
        <time>2015-09-10T13:26:08.000Z</time>
      </trkpt>
      <trkpt lat="47.69726" lon="6.06458">
        <ele>265</ele>
        <time>2015-09-10T13:26:09.000Z</time>
      </trkpt>
      <trkpt lat="47.69724" lon="6.06449">
        <ele>265</ele>
        <time>2015-09-10T13:26:10.000Z</time>
      </trkpt>
      <trkpt lat="47.6972" lon="6.06441">
        <ele>265</ele>
        <time>2015-09-10T13:26:11.000Z</time>
      </trkpt>
      <trkpt lat="47.69717" lon="6.06432">
        <ele>265</ele>
        <time>2015-09-10T13:26:12.000Z</time>
      </trkpt>
      <trkpt lat="47.69714" lon="6.06423">
        <ele>265</ele>
        <time>2015-09-10T13:26:13.000Z</time>
      </trkpt>
      <trkpt lat="47.69697" lon="6.06382">
        <ele>265</ele>
        <time>2015-09-10T13:26:18.000Z</time>
      </trkpt>
      <trkpt lat="47.69682" lon="6.06338">
        <ele>265</ele>
        <time>2015-09-10T13:26:24.000Z</time>
      </trkpt>
      <trkpt lat="47.6967" lon="6.06289">
        <ele>265</ele>
        <time>2015-09-10T13:26:30.000Z</time>
      </trkpt>
      <trkpt lat="47.69666" lon="6.06273">
        <ele>266</ele>
        <time>2015-09-10T13:26:32.000Z</time>
      </trkpt>
      <trkpt lat="47.6966" lon="6.0625">
        <ele>266</ele>
        <time>2015-09-10T13:26:35.000Z</time>
      </trkpt>
      <trkpt lat="47.69651" lon="6.06212">
        <ele>266</ele>
        <time>2015-09-10T13:26:40.000Z</time>
      </trkpt>
      <trkpt lat="47.69647" lon="6.06197">
        <ele>265</ele>
        <time>2015-09-10T13:26:42.000Z</time>
      </trkpt>
      <trkpt lat="47.69632" lon="6.06141">
        <ele>264</ele>
        <time>2015-09-10T13:26:50.000Z</time>
      </trkpt>
      <trkpt lat="47.69616" lon="6.06086">
        <ele>263</ele>
        <time>2015-09-10T13:26:57.000Z</time>
      </trkpt>
      <trkpt lat="47.69598" lon="6.06028">
        <ele>260</ele>
        <time>2015-09-10T13:27:03.000Z</time>
      </trkpt>
      <trkpt lat="47.69589" lon="6.05997">
        <ele>259</ele>
        <time>2015-09-10T13:27:06.000Z</time>
      </trkpt>
      <trkpt lat="47.69586" lon="6.05987">
        <ele>259</ele>
        <time>2015-09-10T13:27:07.000Z</time>
      </trkpt>
      <trkpt lat="47.69583" lon="6.05977">
        <ele>260</ele>
        <time>2015-09-10T13:27:08.000Z</time>
      </trkpt>
      <trkpt lat="47.6958" lon="6.05967">
        <ele>259</ele>
        <time>2015-09-10T13:27:09.000Z</time>
      </trkpt>
      <trkpt lat="47.69578" lon="6.05956">
        <ele>259</ele>
        <time>2015-09-10T13:27:10.000Z</time>
      </trkpt>
      <trkpt lat="47.69563" lon="6.05885">
        <ele>258</ele>
        <time>2015-09-10T13:27:17.000Z</time>
      </trkpt>
      <trkpt lat="47.69554" lon="6.05849">
        <ele>257</ele>
        <time>2015-09-10T13:27:21.000Z</time>
      </trkpt>
      <trkpt lat="47.69552" lon="6.0584">
        <ele>257</ele>
        <time>2015-09-10T13:27:22.000Z</time>
      </trkpt>
      <trkpt lat="47.6955" lon="6.05831">
        <ele>256</ele>
        <time>2015-09-10T13:27:23.000Z</time>
      </trkpt>
      <trkpt lat="47.69548" lon="6.05822">
        <ele>256</ele>
        <time>2015-09-10T13:27:24.000Z</time>
      </trkpt>
      <trkpt lat="47.69545" lon="6.05812">
        <ele>256</ele>
        <time>2015-09-10T13:27:25.000Z</time>
      </trkpt>
      <trkpt lat="47.69543" lon="6.05803">
        <ele>256</ele>
        <time>2015-09-10T13:27:26.000Z</time>
      </trkpt>
      <trkpt lat="47.69538" lon="6.05785">
        <ele>256</ele>
        <time>2015-09-10T13:27:28.000Z</time>
      </trkpt>
      <trkpt lat="47.69535" lon="6.05776">
        <ele>256</ele>
        <time>2015-09-10T13:27:29.000Z</time>
      </trkpt>
      <trkpt lat="47.69533" lon="6.05767">
        <ele>256</ele>
        <time>2015-09-10T13:27:30.000Z</time>
      </trkpt>
      <trkpt lat="47.69531" lon="6.05758">
        <ele>256</ele>
        <time>2015-09-10T13:27:31.000Z</time>
      </trkpt>
      <trkpt lat="47.69528" lon="6.0575">
        <ele>255</ele>
        <time>2015-09-10T13:27:32.000Z</time>
      </trkpt>
      <trkpt lat="47.69524" lon="6.05731">
        <ele>254</ele>
        <time>2015-09-10T13:27:34.000Z</time>
      </trkpt>
      <trkpt lat="47.6952" lon="6.0571">
        <ele>254</ele>
        <time>2015-09-10T13:27:36.000Z</time>
      </trkpt>
      <trkpt lat="47.69517" lon="6.057">
        <ele>254</ele>
        <time>2015-09-10T13:27:37.000Z</time>
      </trkpt>
      <trkpt lat="47.69514" lon="6.0569">
        <ele>254</ele>
        <time>2015-09-10T13:27:38.000Z</time>
      </trkpt>
      <trkpt lat="47.69511" lon="6.0568">
        <ele>254</ele>
        <time>2015-09-10T13:27:39.000Z</time>
      </trkpt>
      <trkpt lat="47.69508" lon="6.0567">
        <ele>254</ele>
        <time>2015-09-10T13:27:40.000Z</time>
      </trkpt>
      <trkpt lat="47.69506" lon="6.0566">
        <ele>254</ele>
        <time>2015-09-10T13:27:41.000Z</time>
      </trkpt>
      <trkpt lat="47.69504" lon="6.0565">
        <ele>254</ele>
        <time>2015-09-10T13:27:42.000Z</time>
      </trkpt>
      <trkpt lat="47.69502" lon="6.05641">
        <ele>253</ele>
        <time>2015-09-10T13:27:43.000Z</time>
      </trkpt>
      <trkpt lat="47.69499" lon="6.0563">
        <ele>254</ele>
        <time>2015-09-10T13:27:44.000Z</time>
      </trkpt>
      <trkpt lat="47.69497" lon="6.05621">
        <ele>253</ele>
        <time>2015-09-10T13:27:45.000Z</time>
      </trkpt>
      <trkpt lat="47.69494" lon="6.05612">
        <ele>253</ele>
        <time>2015-09-10T13:27:46.000Z</time>
      </trkpt>
      <trkpt lat="47.69485" lon="6.05584">
        <ele>253</ele>
        <time>2015-09-10T13:27:49.000Z</time>
      </trkpt>
      <trkpt lat="47.69474" lon="6.05557">
        <ele>252</ele>
        <time>2015-09-10T13:27:52.000Z</time>
      </trkpt>
      <trkpt lat="47.6947" lon="6.05548">
        <ele>252</ele>
        <time>2015-09-10T13:27:53.000Z</time>
      </trkpt>
      <trkpt lat="47.69467" lon="6.0554">
        <ele>252</ele>
        <time>2015-09-10T13:27:54.000Z</time>
      </trkpt>
      <trkpt lat="47.69463" lon="6.05531">
        <ele>252</ele>
        <time>2015-09-10T13:27:55.000Z</time>
      </trkpt>
      <trkpt lat="47.6946" lon="6.05523">
        <ele>252</ele>
        <time>2015-09-10T13:27:56.000Z</time>
      </trkpt>
      <trkpt lat="47.69442" lon="6.0548">
        <ele>250</ele>
        <time>2015-09-10T13:28:02.000Z</time>
      </trkpt>
      <trkpt lat="47.6944" lon="6.05476">
        <ele>250</ele>
        <time>2015-09-10T13:28:03.000Z</time>
      </trkpt>
      <trkpt lat="47.69439" lon="6.05472">
        <ele>249</ele>
        <time>2015-09-10T13:28:04.000Z</time>
      </trkpt>
      <trkpt lat="47.69438" lon="6.05468">
        <ele>249</ele>
        <time>2015-09-10T13:28:05.000Z</time>
      </trkpt>
      <trkpt lat="47.69437" lon="6.05468">
        <ele>249</ele>
        <time>2015-09-10T13:28:06.000Z</time>
      </trkpt>
      <trkpt lat="47.69437" lon="6.05465">
        <ele>249</ele>
        <time>2015-09-10T13:28:43.000Z</time>
      </trkpt>
      <trkpt lat="47.69439" lon="6.0546">
        <ele>249</ele>
        <time>2015-09-10T13:28:45.000Z</time>
      </trkpt>
      <trkpt lat="47.69441" lon="6.05459">
        <ele>249</ele>
        <time>2015-09-10T13:28:46.000Z</time>
      </trkpt>
      <trkpt lat="47.69447" lon="6.05468">
        <ele>249</ele>
        <time>2015-09-10T13:28:49.000Z</time>
      </trkpt>
      <trkpt lat="47.69454" lon="6.05476">
        <ele>250</ele>
        <time>2015-09-10T13:28:52.000Z</time>
      </trkpt>
      <trkpt lat="47.69457" lon="6.05478">
        <ele>250</ele>
        <time>2015-09-10T13:28:53.000Z</time>
      </trkpt>
      <trkpt lat="47.69478" lon="6.05495">
        <ele>251</ele>
        <time>2015-09-10T13:28:59.000Z</time>
      </trkpt>
      <trkpt lat="47.69501" lon="6.05514">
        <ele>252</ele>
        <time>2015-09-10T13:29:05.000Z</time>
      </trkpt>
      <trkpt lat="47.69506" lon="6.05514">
        <ele>252</ele>
        <time>2015-09-10T13:29:06.000Z</time>
      </trkpt>
      <trkpt lat="47.69515" lon="6.0552">
        <ele>252</ele>
        <time>2015-09-10T13:29:08.000Z</time>
      </trkpt>
      <trkpt lat="47.69519" lon="6.05524">
        <ele>252</ele>
        <time>2015-09-10T13:29:09.000Z</time>
      </trkpt>
      <trkpt lat="47.69523" lon="6.05526">
        <ele>252</ele>
        <time>2015-09-10T13:29:10.000Z</time>
      </trkpt>
      <trkpt lat="47.69527" lon="6.05528">
        <ele>252</ele>
        <time>2015-09-10T13:29:11.000Z</time>
      </trkpt>
      <trkpt lat="47.69531" lon="6.0553">
        <ele>252</ele>
        <time>2015-09-10T13:29:12.000Z</time>
      </trkpt>
      <trkpt lat="47.6954" lon="6.05532">
        <ele>252</ele>
        <time>2015-09-10T13:29:14.000Z</time>
      </trkpt>
      <trkpt lat="47.69544" lon="6.05533">
        <ele>253</ele>
        <time>2015-09-10T13:29:15.000Z</time>
      </trkpt>
      <trkpt lat="47.6956" lon="6.05537">
        <ele>253</ele>
        <time>2015-09-10T13:29:18.000Z</time>
      </trkpt>
      <trkpt lat="47.69572" lon="6.05539">
        <ele>253</ele>
        <time>2015-09-10T13:29:20.000Z</time>
      </trkpt>
      <trkpt lat="47.69579" lon="6.05542">
        <ele>252</ele>
        <time>2015-09-10T13:29:21.000Z</time>
      </trkpt>
      <trkpt lat="47.69598" lon="6.05558">
        <ele>250</ele>
        <time>2015-09-10T13:29:24.000Z</time>
      </trkpt>
      <trkpt lat="47.69611" lon="6.05569">
        <ele>250</ele>
        <time>2015-09-10T13:29:26.000Z</time>
      </trkpt>
      <trkpt lat="47.69618" lon="6.05574">
        <ele>249</ele>
        <time>2015-09-10T13:29:27.000Z</time>
      </trkpt>
      <trkpt lat="47.69626" lon="6.05578">
        <ele>249</ele>
        <time>2015-09-10T13:29:28.000Z</time>
      </trkpt>
      <trkpt lat="47.69634" lon="6.05581">
        <ele>248</ele>
        <time>2015-09-10T13:29:29.000Z</time>
      </trkpt>
      <trkpt lat="47.69642" lon="6.05584">
        <ele>248</ele>
        <time>2015-09-10T13:29:30.000Z</time>
      </trkpt>
      <trkpt lat="47.69651" lon="6.05586">
        <ele>248</ele>
        <time>2015-09-10T13:29:31.000Z</time>
      </trkpt>
      <trkpt lat="47.6966" lon="6.05584">
        <ele>247</ele>
        <time>2015-09-10T13:29:32.000Z</time>
      </trkpt>
      <trkpt lat="47.69669" lon="6.0558">
        <ele>245</ele>
        <time>2015-09-10T13:29:33.000Z</time>
      </trkpt>
      <trkpt lat="47.69678" lon="6.05574">
        <ele>245</ele>
        <time>2015-09-10T13:29:34.000Z</time>
      </trkpt>
      <trkpt lat="47.69687" lon="6.05568">
        <ele>244</ele>
        <time>2015-09-10T13:29:35.000Z</time>
      </trkpt>
      <trkpt lat="47.69695" lon="6.05561">
        <ele>243</ele>
        <time>2015-09-10T13:29:36.000Z</time>
      </trkpt>
      <trkpt lat="47.69703" lon="6.05552">
        <ele>243</ele>
        <time>2015-09-10T13:29:37.000Z</time>
      </trkpt>
      <trkpt lat="47.6971" lon="6.05544">
        <ele>243</ele>
        <time>2015-09-10T13:29:38.000Z</time>
      </trkpt>
      <trkpt lat="47.69717" lon="6.05536">
        <ele>242</ele>
        <time>2015-09-10T13:29:39.000Z</time>
      </trkpt>
      <trkpt lat="47.69724" lon="6.05528">
        <ele>242</ele>
        <time>2015-09-10T13:29:40.000Z</time>
      </trkpt>
      <trkpt lat="47.69749" lon="6.05493">
        <ele>240</ele>
        <time>2015-09-10T13:29:44.000Z</time>
      </trkpt>
      <trkpt lat="47.69755" lon="6.05484">
        <ele>240</ele>
        <time>2015-09-10T13:29:45.000Z</time>
      </trkpt>
      <trkpt lat="47.69762" lon="6.05475">
        <ele>241</ele>
        <time>2015-09-10T13:29:46.000Z</time>
      </trkpt>
      <trkpt lat="47.69769" lon="6.05469">
        <ele>241</ele>
        <time>2015-09-10T13:29:47.000Z</time>
      </trkpt>
      <trkpt lat="47.69776" lon="6.05461">
        <ele>242</ele>
        <time>2015-09-10T13:29:48.000Z</time>
      </trkpt>
      <trkpt lat="47.69781" lon="6.05452">
        <ele>242</ele>
        <time>2015-09-10T13:29:49.000Z</time>
      </trkpt>
      <trkpt lat="47.69788" lon="6.05431">
        <ele>243</ele>
        <time>2015-09-10T13:29:51.000Z</time>
      </trkpt>
      <trkpt lat="47.69791" lon="6.05419">
        <ele>243</ele>
        <time>2015-09-10T13:29:52.000Z</time>
      </trkpt>
      <trkpt lat="47.69794" lon="6.05409">
        <ele>246</ele>
        <time>2015-09-10T13:29:53.000Z</time>
      </trkpt>
      <trkpt lat="47.69797" lon="6.05399">
        <ele>247</ele>
        <time>2015-09-10T13:29:54.000Z</time>
      </trkpt>
      <trkpt lat="47.698" lon="6.0539">
        <ele>247</ele>
        <time>2015-09-10T13:29:55.000Z</time>
      </trkpt>
      <trkpt lat="47.69805" lon="6.05376">
        <ele>248</ele>
        <time>2015-09-10T13:29:57.000Z</time>
      </trkpt>
      <trkpt lat="47.69808" lon="6.05369">
        <ele>248</ele>
        <time>2015-09-10T13:29:58.000Z</time>
      </trkpt>
      <trkpt lat="47.6981" lon="6.05363">
        <ele>248</ele>
        <time>2015-09-10T13:29:59.000Z</time>
      </trkpt>
      <trkpt lat="47.69812" lon="6.05357">
        <ele>248</ele>
        <time>2015-09-10T13:30:00.000Z</time>
      </trkpt>
      <trkpt lat="47.69814" lon="6.05351">
        <ele>249</ele>
        <time>2015-09-10T13:30:01.000Z</time>
      </trkpt>
      <trkpt lat="47.69816" lon="6.05346">
        <ele>249</ele>
        <time>2015-09-10T13:30:02.000Z</time>
      </trkpt>
      <trkpt lat="47.69819" lon="6.05342">
        <ele>250</ele>
        <time>2015-09-10T13:30:03.000Z</time>
      </trkpt>
      <trkpt lat="47.69821" lon="6.05337">
        <ele>250</ele>
        <time>2015-09-10T13:30:04.000Z</time>
      </trkpt>
      <trkpt lat="47.69824" lon="6.05332">
        <ele>251</ele>
        <time>2015-09-10T13:30:05.000Z</time>
      </trkpt>
      <trkpt lat="47.69831" lon="6.05322">
        <ele>251</ele>
        <time>2015-09-10T13:30:07.000Z</time>
      </trkpt>
      <trkpt lat="47.69834" lon="6.05316">
        <ele>251</ele>
        <time>2015-09-10T13:30:08.000Z</time>
      </trkpt>
      <trkpt lat="47.69837" lon="6.0531">
        <ele>251</ele>
        <time>2015-09-10T13:30:09.000Z</time>
      </trkpt>
      <trkpt lat="47.6984" lon="6.05304">
        <ele>251</ele>
        <time>2015-09-10T13:30:10.000Z</time>
      </trkpt>
      <trkpt lat="47.69843" lon="6.05299">
        <ele>251</ele>
        <time>2015-09-10T13:30:11.000Z</time>
      </trkpt>
      <trkpt lat="47.69845" lon="6.05294">
        <ele>250</ele>
        <time>2015-09-10T13:30:12.000Z</time>
      </trkpt>
      <trkpt lat="47.6985" lon="6.05284">
        <ele>250</ele>
        <time>2015-09-10T13:30:14.000Z</time>
      </trkpt>
      <trkpt lat="47.69865" lon="6.0525">
        <ele>250</ele>
        <time>2015-09-10T13:30:20.000Z</time>
      </trkpt>
      <trkpt lat="47.69882" lon="6.0522">
        <ele>250</ele>
        <time>2015-09-10T13:30:25.000Z</time>
      </trkpt>
      <trkpt lat="47.69903" lon="6.05201">
        <ele>250</ele>
        <time>2015-09-10T13:30:30.000Z</time>
      </trkpt>
      <trkpt lat="47.69926" lon="6.05183">
        <ele>249</ele>
        <time>2015-09-10T13:30:36.000Z</time>
      </trkpt>
      <trkpt lat="47.69928" lon="6.05173">
        <ele>249</ele>
        <time>2015-09-10T13:30:38.000Z</time>
      </trkpt>
      <trkpt lat="47.69926" lon="6.05169">
        <ele>249</ele>
        <time>2015-09-10T13:30:39.000Z</time>
      </trkpt>
      <trkpt lat="47.69913" lon="6.05155">
        <ele>251</ele>
        <time>2015-09-10T13:30:43.000Z</time>
      </trkpt>
      <trkpt lat="47.699" lon="6.05144">
        <ele>251</ele>
        <time>2015-09-10T13:30:46.000Z</time>
      </trkpt>
      <trkpt lat="47.69892" lon="6.05137">
        <ele>251</ele>
        <time>2015-09-10T13:30:48.000Z</time>
      </trkpt>
      <trkpt lat="47.69867" lon="6.05112">
        <ele>252</ele>
        <time>2015-09-10T13:30:54.000Z</time>
      </trkpt>
      <trkpt lat="47.69846" lon="6.05094">
        <ele>253</ele>
        <time>2015-09-10T13:30:59.000Z</time>
      </trkpt>
      <trkpt lat="47.69822" lon="6.05067">
        <ele>253</ele>
        <time>2015-09-10T13:31:06.000Z</time>
      </trkpt>
      <trkpt lat="47.69819" lon="6.05062">
        <ele>253</ele>
        <time>2015-09-10T13:31:07.000Z</time>
      </trkpt>
      <trkpt lat="47.6981" lon="6.05047">
        <ele>252</ele>
        <time>2015-09-10T13:31:10.000Z</time>
      </trkpt>
      <trkpt lat="47.69804" lon="6.05038">
        <ele>252</ele>
        <time>2015-09-10T13:31:12.000Z</time>
      </trkpt>
      <trkpt lat="47.69797" lon="6.05026">
        <ele>251</ele>
        <time>2015-09-10T13:31:14.000Z</time>
      </trkpt>
      <trkpt lat="47.69792" lon="6.05011">
        <ele>251</ele>
        <time>2015-09-10T13:31:16.000Z</time>
      </trkpt>
      <trkpt lat="47.69786" lon="6.04997">
        <ele>251</ele>
        <time>2015-09-10T13:31:18.000Z</time>
      </trkpt>
      <trkpt lat="47.69778" lon="6.04977">
        <ele>251</ele>
        <time>2015-09-10T13:31:21.000Z</time>
      </trkpt>
      <trkpt lat="47.69772" lon="6.04966">
        <ele>251</ele>
        <time>2015-09-10T13:31:23.000Z</time>
      </trkpt>
      <trkpt lat="47.6977" lon="6.0496">
        <ele>251</ele>
        <time>2015-09-10T13:31:24.000Z</time>
      </trkpt>
      <trkpt lat="47.69767" lon="6.04956">
        <ele>251</ele>
        <time>2015-09-10T13:31:25.000Z</time>
      </trkpt>
      <trkpt lat="47.69764" lon="6.04951">
        <ele>251</ele>
        <time>2015-09-10T13:31:26.000Z</time>
      </trkpt>
      <trkpt lat="47.69761" lon="6.04947">
        <ele>251</ele>
        <time>2015-09-10T13:31:27.000Z</time>
      </trkpt>
      <trkpt lat="47.69758" lon="6.04943">
        <ele>251</ele>
        <time>2015-09-10T13:31:28.000Z</time>
      </trkpt>
      <trkpt lat="47.69748" lon="6.04934">
        <ele>248</ele>
        <time>2015-09-10T13:31:31.000Z</time>
      </trkpt>
      <trkpt lat="47.69744" lon="6.0493">
        <ele>248</ele>
        <time>2015-09-10T13:31:32.000Z</time>
      </trkpt>
      <trkpt lat="47.69741" lon="6.04927">
        <ele>248</ele>
        <time>2015-09-10T13:31:33.000Z</time>
      </trkpt>
      <trkpt lat="47.69738" lon="6.04923">
        <ele>248</ele>
        <time>2015-09-10T13:31:34.000Z</time>
      </trkpt>
      <trkpt lat="47.69734" lon="6.0492">
        <ele>247</ele>
        <time>2015-09-10T13:31:35.000Z</time>
      </trkpt>
      <trkpt lat="47.69731" lon="6.04918">
        <ele>247</ele>
        <time>2015-09-10T13:31:36.000Z</time>
      </trkpt>
      <trkpt lat="47.69728" lon="6.04915">
        <ele>247</ele>
        <time>2015-09-10T13:31:37.000Z</time>
      </trkpt>
      <trkpt lat="47.69726" lon="6.04913">
        <ele>247</ele>
        <time>2015-09-10T13:31:38.000Z</time>
      </trkpt>
      <trkpt lat="47.69724" lon="6.04911">
        <ele>247</ele>
        <time>2015-09-10T13:31:39.000Z</time>
      </trkpt>
      <trkpt lat="47.69722" lon="6.0491">
        <ele>247</ele>
        <time>2015-09-10T13:31:40.000Z</time>
      </trkpt>
      <trkpt lat="47.69719" lon="6.04908">
        <ele>246</ele>
        <time>2015-09-10T13:31:41.000Z</time>
      </trkpt>
      <trkpt lat="47.69718" lon="6.04906">
        <ele>246</ele>
        <time>2015-09-10T13:31:42.000Z</time>
      </trkpt>
      <trkpt lat="47.69715" lon="6.04904">
        <ele>246</ele>
        <time>2015-09-10T13:31:43.000Z</time>
      </trkpt>
      <trkpt lat="47.69713" lon="6.04902">
        <ele>246</ele>
        <time>2015-09-10T13:31:44.000Z</time>
      </trkpt>
      <trkpt lat="47.6971" lon="6.04899">
        <ele>246</ele>
        <time>2015-09-10T13:31:45.000Z</time>
      </trkpt>
      <trkpt lat="47.69706" lon="6.04897">
        <ele>245</ele>
        <time>2015-09-10T13:31:46.000Z</time>
      </trkpt>
      <trkpt lat="47.69704" lon="6.04895">
        <ele>245</ele>
        <time>2015-09-10T13:31:47.000Z</time>
      </trkpt>
      <trkpt lat="47.69701" lon="6.04893">
        <ele>245</ele>
        <time>2015-09-10T13:31:48.000Z</time>
      </trkpt>
      <trkpt lat="47.69698" lon="6.04891">
        <ele>245</ele>
        <time>2015-09-10T13:31:49.000Z</time>
      </trkpt>
      <trkpt lat="47.69695" lon="6.04889">
        <ele>245</ele>
        <time>2015-09-10T13:31:50.000Z</time>
      </trkpt>
      <trkpt lat="47.69692" lon="6.04885">
        <ele>244</ele>
        <time>2015-09-10T13:31:51.000Z</time>
      </trkpt>
      <trkpt lat="47.69689" lon="6.04881">
        <ele>244</ele>
        <time>2015-09-10T13:31:52.000Z</time>
      </trkpt>
      <trkpt lat="47.69685" lon="6.04877">
        <ele>244</ele>
        <time>2015-09-10T13:31:53.000Z</time>
      </trkpt>
      <trkpt lat="47.69681" lon="6.04871">
        <ele>244</ele>
        <time>2015-09-10T13:31:54.000Z</time>
      </trkpt>
      <trkpt lat="47.69678" lon="6.04865">
        <ele>244</ele>
        <time>2015-09-10T13:31:55.000Z</time>
      </trkpt>
      <trkpt lat="47.69674" lon="6.0486">
        <ele>243</ele>
        <time>2015-09-10T13:31:56.000Z</time>
      </trkpt>
      <trkpt lat="47.69671" lon="6.04854">
        <ele>243</ele>
        <time>2015-09-10T13:31:57.000Z</time>
      </trkpt>
      <trkpt lat="47.69668" lon="6.04848">
        <ele>242</ele>
        <time>2015-09-10T13:31:58.000Z</time>
      </trkpt>
      <trkpt lat="47.69665" lon="6.04841">
        <ele>239</ele>
        <time>2015-09-10T13:31:59.000Z</time>
      </trkpt>
      <trkpt lat="47.69663" lon="6.04836">
        <ele>239</ele>
        <time>2015-09-10T13:32:00.000Z</time>
      </trkpt>
      <trkpt lat="47.69659" lon="6.04825">
        <ele>239</ele>
        <time>2015-09-10T13:32:02.000Z</time>
      </trkpt>
      <trkpt lat="47.69657" lon="6.04821">
        <ele>239</ele>
        <time>2015-09-10T13:32:03.000Z</time>
      </trkpt>
      <trkpt lat="47.69656" lon="6.04817">
        <ele>239</ele>
        <time>2015-09-10T13:32:04.000Z</time>
      </trkpt>
      <trkpt lat="47.69655" lon="6.04811">
        <ele>239</ele>
        <time>2015-09-10T13:32:05.000Z</time>
      </trkpt>
      <trkpt lat="47.69653" lon="6.04804">
        <ele>239</ele>
        <time>2015-09-10T13:32:06.000Z</time>
      </trkpt>
      <trkpt lat="47.6965" lon="6.04797">
        <ele>239</ele>
        <time>2015-09-10T13:32:07.000Z</time>
      </trkpt>
      <trkpt lat="47.69648" lon="6.04792">
        <ele>239</ele>
        <time>2015-09-10T13:32:08.000Z</time>
      </trkpt>
      <trkpt lat="47.69646" lon="6.04786">
        <ele>239</ele>
        <time>2015-09-10T13:32:09.000Z</time>
      </trkpt>
      <trkpt lat="47.69645" lon="6.04779">
        <ele>239</ele>
        <time>2015-09-10T13:32:10.000Z</time>
      </trkpt>
      <trkpt lat="47.69643" lon="6.04771">
        <ele>239</ele>
        <time>2015-09-10T13:32:11.000Z</time>
      </trkpt>
      <trkpt lat="47.69641" lon="6.04764">
        <ele>239</ele>
        <time>2015-09-10T13:32:12.000Z</time>
      </trkpt>
      <trkpt lat="47.69637" lon="6.0475">
        <ele>239</ele>
        <time>2015-09-10T13:32:14.000Z</time>
      </trkpt>
      <trkpt lat="47.69636" lon="6.04744">
        <ele>238</ele>
        <time>2015-09-10T13:32:15.000Z</time>
      </trkpt>
      <trkpt lat="47.69634" lon="6.04738">
        <ele>238</ele>
        <time>2015-09-10T13:32:16.000Z</time>
      </trkpt>
      <trkpt lat="47.69633" lon="6.04731">
        <ele>238</ele>
        <time>2015-09-10T13:32:17.000Z</time>
      </trkpt>
      <trkpt lat="47.69632" lon="6.04723">
        <ele>238</ele>
        <time>2015-09-10T13:32:18.000Z</time>
      </trkpt>
      <trkpt lat="47.6963" lon="6.04716">
        <ele>238</ele>
        <time>2015-09-10T13:32:19.000Z</time>
      </trkpt>
      <trkpt lat="47.69628" lon="6.04708">
        <ele>238</ele>
        <time>2015-09-10T13:32:20.000Z</time>
      </trkpt>
      <trkpt lat="47.69626" lon="6.047">
        <ele>238</ele>
        <time>2015-09-10T13:32:21.000Z</time>
      </trkpt>
      <trkpt lat="47.69625" lon="6.04693">
        <ele>238</ele>
        <time>2015-09-10T13:32:22.000Z</time>
      </trkpt>
      <trkpt lat="47.69623" lon="6.04686">
        <ele>238</ele>
        <time>2015-09-10T13:32:23.000Z</time>
      </trkpt>
      <trkpt lat="47.69622" lon="6.0468">
        <ele>238</ele>
        <time>2015-09-10T13:32:24.000Z</time>
      </trkpt>
      <trkpt lat="47.69621" lon="6.04673">
        <ele>238</ele>
        <time>2015-09-10T13:32:25.000Z</time>
      </trkpt>
      <trkpt lat="47.69621" lon="6.04667">
        <ele>238</ele>
        <time>2015-09-10T13:32:26.000Z</time>
      </trkpt>
      <trkpt lat="47.6962" lon="6.04661">
        <ele>235</ele>
        <time>2015-09-10T13:32:27.000Z</time>
      </trkpt>
      <trkpt lat="47.69619" lon="6.04655">
        <ele>235</ele>
        <time>2015-09-10T13:32:28.000Z</time>
      </trkpt>
      <trkpt lat="47.6961" lon="6.04581">
        <ele>226</ele>
        <time>2015-09-10T13:32:37.000Z</time>
      </trkpt>
      <trkpt lat="47.69609" lon="6.04568">
        <ele>225</ele>
        <time>2015-09-10T13:32:38.000Z</time>
      </trkpt>
      <trkpt lat="47.69608" lon="6.04555">
        <ele>225</ele>
        <time>2015-09-10T13:32:39.000Z</time>
      </trkpt>
      <trkpt lat="47.69607" lon="6.04543">
        <ele>224</ele>
        <time>2015-09-10T13:32:40.000Z</time>
      </trkpt>
      <trkpt lat="47.69603" lon="6.04504">
        <ele>220</ele>
        <time>2015-09-10T13:32:44.000Z</time>
      </trkpt>
      <trkpt lat="47.6959" lon="6.04484">
        <ele>215</ele>
        <time>2015-09-10T13:32:47.000Z</time>
      </trkpt>
      <trkpt lat="47.69586" lon="6.04476">
        <ele>214</ele>
        <time>2015-09-10T13:32:48.000Z</time>
      </trkpt>
      <trkpt lat="47.69582" lon="6.04467">
        <ele>213</ele>
        <time>2015-09-10T13:32:49.000Z</time>
      </trkpt>
      <trkpt lat="47.69581" lon="6.04459">
        <ele>213</ele>
        <time>2015-09-10T13:32:50.000Z</time>
      </trkpt>
      <trkpt lat="47.6958" lon="6.04444">
        <ele>212</ele>
        <time>2015-09-10T13:32:52.000Z</time>
      </trkpt>
      <trkpt lat="47.69578" lon="6.04438">
        <ele>211</ele>
        <time>2015-09-10T13:32:53.000Z</time>
      </trkpt>
      <trkpt lat="47.69575" lon="6.04431">
        <ele>211</ele>
        <time>2015-09-10T13:32:54.000Z</time>
      </trkpt>
      <trkpt lat="47.6957" lon="6.04428">
        <ele>211</ele>
        <time>2015-09-10T13:32:55.000Z</time>
      </trkpt>
      <trkpt lat="47.69564" lon="6.04427">
        <ele>211</ele>
        <time>2015-09-10T13:32:56.000Z</time>
      </trkpt>
      <trkpt lat="47.69557" lon="6.04427">
        <ele>211</ele>
        <time>2015-09-10T13:32:57.000Z</time>
      </trkpt>
      <trkpt lat="47.69551" lon="6.04428">
        <ele>212</ele>
        <time>2015-09-10T13:32:58.000Z</time>
      </trkpt>
      <trkpt lat="47.69545" lon="6.04428">
        <ele>212</ele>
        <time>2015-09-10T13:32:59.000Z</time>
      </trkpt>
      <trkpt lat="47.69526" lon="6.04427">
        <ele>212</ele>
        <time>2015-09-10T13:33:02.000Z</time>
      </trkpt>
      <trkpt lat="47.69479" lon="6.04425">
        <ele>215</ele>
        <time>2015-09-10T13:33:09.000Z</time>
      </trkpt>
      <trkpt lat="47.69439" lon="6.04421">
        <ele>217</ele>
        <time>2015-09-10T13:33:15.000Z</time>
      </trkpt>
      <trkpt lat="47.69398" lon="6.04416">
        <ele>214</ele>
        <time>2015-09-10T13:33:21.000Z</time>
      </trkpt>
      <trkpt lat="47.69358" lon="6.04411">
        <ele>215</ele>
        <time>2015-09-10T13:33:27.000Z</time>
      </trkpt>
      <trkpt lat="47.69314" lon="6.04405">
        <ele>215</ele>
        <time>2015-09-10T13:33:34.000Z</time>
      </trkpt>
      <trkpt lat="47.69265" lon="6.04395">
        <ele>216</ele>
        <time>2015-09-10T13:33:42.000Z</time>
      </trkpt>
      <trkpt lat="47.69219" lon="6.04377">
        <ele>216</ele>
        <time>2015-09-10T13:33:49.000Z</time>
      </trkpt>
      <trkpt lat="47.69183" lon="6.04364">
        <ele>215</ele>
        <time>2015-09-10T13:33:55.000Z</time>
      </trkpt>
      <trkpt lat="47.69138" lon="6.04342">
        <ele>217</ele>
        <time>2015-09-10T13:34:03.000Z</time>
      </trkpt>
      <trkpt lat="47.69133" lon="6.04338">
        <ele>217</ele>
        <time>2015-09-10T13:34:04.000Z</time>
      </trkpt>
      <trkpt lat="47.69119" lon="6.04328">
        <ele>211</ele>
        <time>2015-09-10T13:34:07.000Z</time>
      </trkpt>
      <trkpt lat="47.69086" lon="6.04302">
        <ele>211</ele>
        <time>2015-09-10T13:34:13.000Z</time>
      </trkpt>
      <trkpt lat="47.69044" lon="6.04272">
        <ele>212</ele>
        <time>2015-09-10T13:34:21.000Z</time>
      </trkpt>
      <trkpt lat="47.69022" lon="6.04262">
        <ele>212</ele>
        <time>2015-09-10T13:34:26.000Z</time>
      </trkpt>
      <trkpt lat="47.69018" lon="6.0426">
        <ele>211</ele>
        <time>2015-09-10T13:34:27.000Z</time>
      </trkpt>
      <trkpt lat="47.69012" lon="6.04267">
        <ele>212</ele>
        <time>2015-09-10T13:34:29.000Z</time>
      </trkpt>
      <trkpt lat="47.69013" lon="6.04267">
        <ele>212</ele>
        <time>2015-09-10T13:34:31.000Z</time>
      </trkpt>
    </trkseg>
  </trk>
</gpx>